     2              OBSERVATION DATA    GPS                 RINEX VERSION / TYPE
TurboRhino 92 8 26 0 7 41                                   PGM / RUN BY / DATE
TurboRogue rinex formatter V1.0                             COMMENT
mond                                                        MARKER NAME
CR                                                          OBSERVER / AGENCY
113 0TurboRogue Fri 08/21 16:28:52                          REC # / TYPE / VERS
113 0D. AND M. C146-6-1                                     ANT # / TYPE
        0.9826        0.0000        0.0000                  ANTENNA: DELTA H/E/N
 -2439737.0000 -4645851.0000  3615005.0000                  APPROX POSITION XYZ
    30                                                      INTERVAL
                                                            COMMENT
PANGA GPS Data Analysis Center                              COMMENT
Department of Geology                                       COMMENT
Central Washington University                               COMMENT
Ellensburg, WA 98926                                        COMMENT
                                                            COMMENT
http://www.panga.cwu.edu                                    COMMENT
ftp://panga.cwu.edu                                         COMMENT
                                                            COMMENT
     1     1                                                WAVELENGTH FACT L1/2
     5    C1    L1    L2    P1    P2                        # / TYPES OF OBSERV
    92     8    20    18    52    0.0000000                 TIME OF FIRST OBS
    92     8    21     4     1    0.0000000                 TIME OF LAST OBS
                                                            END OF HEADER
 92  8 20 18 52  0.0000000  0  5 20 16 12 03 24
  22335664.41216        -0.06116        -0.68619  22335532.81716  22335535.83416
  23005254.66116         0.16816         0.31319  23005122.34116  23005127.90416
  21745867.71816        -0.18716        -0.20019  21745736.33416  21745740.70916
  25193564.55316         0.08716         0.48519  25193433.35916  25193441.69516
  20614020.63516         0.14216         0.28719  20613888.92016  20613891.40016
 92  8 20 18 52 30.0000000  0  6 20 16 12 13 03 24
  22318900.16506    -88095.88006    -68646.76109  22318768.69106  22318771.88906
  22988575.58606    -87648.72306    -68297.39509  22988443.28306  22988448.78006
  21758782.04006     67864.84706     52881.58209  21758650.67906  21758655.08406
  23525661.20916        -0.61316        -0.83819  23525530.15816  23525534.74616
  25180171.49506    -70382.29306    -54842.88009  25180040.15506  25180048.22706
  20620961.41006     36473.42506     28421.01609  20620829.56606  20620832.04006
 92  8 20 18 53  0.0000000  0  6 20 16 12 13 03 24
  22302160.36106   -176065.14406   -137194.21209  22302028.77906  22302031.89206
  22971912.70006   -175210.64406   -136527.34309  22971780.59006  22971786.08306
  21771768.15306    136107.04006    106057.25109  21771636.80306  21771641.19806
  23538503.69106     67486.54606     52586.48609  23538372.63106  23538377.21306
  25166776.10306   -140777.41106   -109696.13409  25166644.60506  25166652.31706
  20627960.35206     73253.28006     57080.63209  20627828.55806  20627831.00406
 92  8 20 18 53 30.0000000  0  6 20 16 12 13 03 24
  22285458.62606   -263834.07906   -205585.57409  22285327.00006  22285329.98906
  22955281.96806   -262604.54306   -204626.36709  22955149.95906  22955155.40506
  21784839.12306    204794.93506    159580.22109  21784707.68506  21784712.11106
  23551334.61606    134912.76606    105126.32409  23551203.37806  23551208.10106
  25153390.72206   -211114.19106   -164503.93409  25153259.34506  25153267.44606
  20635029.65906    110403.00706     86028.45809  20634897.91006  20634900.34506
 92  8 20 18 54  0.0000000  0  6 20 16 12 13 03 24
  22268806.77606   -351339.57806   -273771.65909  22268675.14406  22268678.28106
  22938695.12406   -349767.47606   -272545.42309  22938563.36506  22938568.81706
  21798005.89606    273986.57506    213495.71809  21797874.49406  21797878.96906
  23564165.21006    202338.33806    157665.65709  23564034.16306  23564038.92306
  25140029.33606   -281332.18206   -219219.17909  25139897.69306  25139905.63906
  20642180.35406    147979.26806    115308.65009  20642048.52906  20642050.96406
 92  8 20 18 54 30.0000000  0  6 20 16 12 13 03 24
  22252214.19806   -438533.37806   -341714.85309  22252082.64006  22252085.83806
  22922162.86506   -436646.61506   -340243.34309  22922030.71806  22922036.15306
  21811276.71506    343725.34006    267837.54409  21811145.35806  21811149.92306
  23577004.42006    269808.82206    210239.98209  23576873.28406  23576878.25506
  25126698.63306   -351386.28206   -273806.71909  25126567.05106  25126574.77306
  20649419.83906    186022.90706    144953.02909  20649287.96406  20649290.42006
 92  8 20 18 55  0.0000000  0  6 20 16 12 13 03 24
  22235683.74706   -525401.52906   -409404.30009  22235552.19606  22235555.28206
  22905687.89006   -523222.91406   -407705.28809  22905555.72806  22905561.13906
  21824653.36206    414019.92106    322612.47209  21824522.02006  21824526.58806
  23589854.88406    337335.58506    262858.15509  23589723.45006  23589728.22606
  25113400.04006   -421265.20106   -328257.73709  25113268.97706  25113277.01906
  20656750.75006    224547.34406    174972.05509  20656618.97806  20656621.39106
 92  8 20 18 55 30.0000000  0  6 20 16 12 13 03 24
  22219218.76106   -611926.76606   -476826.54609  22219087.07106  22219090.07806
  22889274.67106   -609475.60206   -474915.07509  22889142.37106  22889147.77806
  21838138.19306    484882.46106    377829.96609  21838006.76706  21838011.33406
  23602718.24606    404932.63406    315531.09109  23602586.88806  23602591.44406
  25100138.59906   -490954.98206   -382561.38509  25100007.45006  25100015.56906
  20664178.35706    263579.82006    205386.95509  20664046.59706  20664049.00206
 92  8 20 18 56  0.0000000  0  6 20 16 12 13 03 24
  22202821.68306   -698093.81406   -543969.67909  22202689.99506  22202693.08606
  22872922.94206   -695403.35906   -541871.67109  22872790.79706  22872796.27706
  21851732.88406    556323.08506    433497.91509  21851601.52606  21851606.12306
  23615597.34706    472612.99906    368268.95409  23615466.15406  23615470.80506
  25086915.51506   -560442.86106   -436707.68009  25086784.28706  25086792.16906
  20671706.47606    303139.50606    236212.66409  20671574.62406  20671577.06406
 92  8 20 18 56 30.0000000  0  6 20 16 12 13 03 24
  22186492.36306   -783903.79106   -610834.57309  22186360.86506  22186363.85206
  22856631.49006   -781013.43106   -608580.72109  22856499.67306  22856505.06406
  21865436.41806    628335.44506    489611.37409  21865305.12106  21865309.69606
  23628491.72906    540373.23506    421069.05209  23628360.53406  23628365.16006
  25073729.97006   -629732.82806   -490699.74909  25073598.56606  25073606.60506
  20679330.41106    343203.45206    267431.30309  20679198.55706  20679200.99806
 92  8 20 18 57  0.0000000  0  6 20 16 12 13 03 24
  22170228.87106   -869369.90406   -677431.52509  22170097.19306  22170100.17106
  22840396.89906   -866326.03906   -675057.98109  22840265.03306  22840270.45406
  21879245.41106    700901.32206    546156.14309  21879113.97606  21879118.63306
  23641398.29006    608196.70106    473918.42409  23641267.00006  23641271.77706
  25060579.55706   -698841.23506   -544550.37609  25060448.21006  25060455.81006
  20687046.14506    383750.29306    299026.22309  20686914.36606  20686916.80306
 92  8 20 18 57 30.0000000  0  6 20 16 12 13 03 24
  22154030.76706   -954490.46906   -743759.21809  22153899.22006  22153902.32506
  22824217.84206   -951347.93706   -741308.71809  22824085.84206  22824091.24006
  21893158.88906    774016.69406    603129.08909  21893027.45306  21893032.08406
  23654316.75506    676082.36806    526816.25509  23654185.40606  23654190.04406
  25047462.78606   -767769.41706   -598260.55209  25047331.34006  25047338.96706
  20694851.88306    424769.64006    330989.32809  20694720.06606  20694722.52906
 92  8 20 18 58  0.0000000  0  6 20 16 12 13 03 24
  22137900.47606  -1039255.41006   -809809.79709  22137769.01106  22137772.05406
  22808095.22706  -1036073.86506   -807328.83009  22807962.97406  22807968.37306
  21907177.79506    847686.67906    660534.20409  21907046.46706  21907051.00306
  23667247.93006    744037.75606    579768.41609  23667116.95606  23667121.66906
  25034382.12806   -836510.16306   -651824.68809  25034250.56106  25034257.77306
  20702746.65106    466256.36606    363316.62709  20702614.81106  20702617.24206
 92  8 20 18 58 30.0000000  0  7 20 16 12 13 03 25 24
  22121840.12006  -1123653.42506   -875574.46509  22121708.51506  22121711.60006
  22792033.70606  -1120476.11406   -873096.72809  22791901.69806  22791906.98706
  21921303.59906    921917.60106    718376.40809  21921172.20106  21921176.75806
  23680194.60206    812072.28606    632782.24509  23680063.50606  23680068.35006
  25021338.62206   -905054.81306   -705236.01809  25021206.81606  25021214.31906
  25697827.77816        -0.04016        -0.28119  25697696.33716  25697699.48116
  20710733.95406    508229.74506    396023.13609  20710602.10206  20710604.48106
 92  8 20 18 59  0.0000000  0  6 20 16 12 13 03 24
  22105849.81606  -1207683.97806   -941052.79709  22105718.14106  22105721.17406
  22776034.59806  -1204553.37106   -938611.38409  22775902.27606  22775907.60806
  21935535.18706    996704.83506    776652.10409  21935403.77306  21935408.40506
  23693156.03806    880183.67506    685855.96109  23693024.80106  23693029.58606
  25008331.01706   -973405.77806   -758496.41309  25008199.82606  25008207.64606
  20718818.51506    550714.70806    429128.28409  20718686.71306  20718689.13006
 92  8 20 18 59 30.0000000  0  6 20 16 12 13 03 24
  22089926.95206  -1291359.05406  -1006254.13809  22089795.30906  22089798.34006
  22760098.76706  -1288295.47306  -1003864.87909  22759966.53406  22759971.91806
  21949869.21206   1072030.60906    835347.44209  21949737.82006  21949742.51306
  23706128.84506    948356.88106    738977.85009  23705997.72306  23706002.62606
  24995358.32706  -1041578.41906   -811617.86009  24995226.87606  24995234.34806
  20727000.01006    593708.96706    462630.28709  20726868.24406  20726870.71006
 92  8 20 19  0  0.0000000  0  7 20 16 12 13 03 25 24
  22074069.29306  -1374690.63406  -1071187.82209  22073937.68506  22073940.83106
  22744229.14706  -1371689.61406  -1068847.23509  22744097.08006  22744102.48706
  21964302.42706   1147877.74106    894449.03109  21964171.08806  21964175.81206
  23719110.66106   1016577.39506    792136.59909  23718979.73506  23718984.69306
  24982416.13006  -1109587.41906   -864611.80709  24982285.00106  24982292.75806
  25655413.14216        -0.32816        -0.85319  25655281.63516  25655285.17816
  20735275.23306    637195.89106    496516.18309  20735143.59706  20735146.05306
 92  8 20 19  0 30.0000000  0  7 20 16 12 13 03 25 24
  22058278.41206  -1457671.81406  -1135848.46109  22058146.97006  22058150.02706
  22728428.76306  -1454719.10706  -1133545.45009  22728297.04106  22728302.36106
  21978835.11606   1224247.88806    953958.16309  21978703.91006  21978708.65806
  23732102.82006   1084849.56206    845335.59909  23731971.59606  23731976.56006
  24969506.71206  -1177429.11706   -917475.35609  24969375.37906  24969383.02006
  25641439.89506    -73429.03106    -57218.05609  25641308.48206  25641311.82906
  20743643.50806    681171.77606    530783.09009  20743511.91706  20743514.39706
 92  8 20 19  1  0.0000000  0  7 20 16 12 13 03 25 24
  22042558.56506  -1540281.31806  -1200219.49009  22042426.94806  22042430.06206
  22712700.68706  -1537370.89306  -1197949.34809  22712568.90706  22712574.15806
  21993470.42206   1301156.90606   1013887.19409  21993339.31006  21993344.04706
  23745107.75706   1153191.49706    898588.96709  23744976.59106  23744981.65806
  24956632.27906  -1245084.85706   -970194.05509  24956500.91106  24956508.06906
  25627556.84406   -146387.98806   -114069.26609  25627425.01406  25627427.84506
  20752103.41906    725628.03706    565424.31609  20751971.69206  20751974.11006
 92  8 20 19  1 30.0000000  0  7 20 16 12 03 13 25 24
  22026909.30906  -1622517.84306  -1264299.88409  22026777.84006  22026780.88506
  22697045.53606  -1619639.41906  -1262054.60109  22696913.68606  22696919.00306
  22008207.65906   1378600.91106   1074233.10009  22008076.46006  22008081.16706
  24943792.50006  -1312556.38606  -1022769.19209  24943661.27006  24943668.12406
  23758125.85806   1221602.11306    951895.85009  23757994.71806  23757999.78206
  25613762.55506   -218878.16106   -170555.27809  25613630.94206  25613633.04306
  20760651.68306    770549.34606    600427.92009  20760519.95106  20760522.39406
 92  8 20 19  2  0.0000000  0  7 20 16 12 03 13 25 24
  22011329.11806  -1704391.35706  -1328097.41509  22011197.78906  22011200.85506
  22681456.36006  -1701561.89006  -1325890.20109  22681324.24506  22681329.50906
  22023043.66306   1456564.61206   1134983.96009  22022912.48706  22022917.32206
  24930985.72906  -1379856.57706  -1075210.82609  24930854.41106  24930861.95606
  23771154.65206   1290069.22406   1005246.75509  23771023.63206  23771028.55406
  25600054.53406   -290912.22906   -226685.76109  25599923.01506  25599926.98606
  20769283.43706    815909.86006    635773.75909  20769151.75306  20769154.21006
 92  8 20 19  2 30.0000000  0  6 20 16 12 13 03 24
  21995818.79406  -1785899.20706  -1391610.01709  21995687.39206  21995690.36106
  22665929.37506  -1783156.52506  -1389470.35109  22665797.26106  22665802.52706
  22037978.00006   1535045.05606   1196137.47709  22037846.85006  22037851.71306
  23784194.24506   1358592.52506   1058641.44109  23784063.36006  23784068.48806
  24918211.11506  -1446986.20606  -1127519.51309  24918079.87306  24918087.52306
  20778001.06206    861721.66706    671471.25309  20777869.47706  20777871.94106
 92  8 20 19  3  0.0000000  0  6 20 16 12 03 13 24
  21980379.70506  -1867031.40706  -1454829.90509  21980248.42606  21980251.37006
  22650465.87306  -1864416.91206  -1452790.04609  22650333.94306  22650339.07106
  22053011.44506   1614046.78106   1257697.18409  22052880.44506  22052885.31306
  24905471.35606  -1513937.59706  -1179689.35409  24905339.75506  24905347.00106
  23797246.02006   1427179.52306   1112085.76209  23797115.17106  23797120.04606
  20786808.63206    908005.37006    707536.46009  20786676.99106  20786679.46906
 92  8 20 19  3 30.0000000  0  7 20 16 12 03 13 25 24
  21965010.59506  -1947796.23506  -1517763.52509  21964879.29006  21964882.37706
  22635064.56106  -1945349.93106  -1515854.65409  22634932.80306  22634937.92006
  22068141.68706   1693556.01106   1319652.34809  22068010.60906  22068015.51306
  24892761.79906  -1580722.85606  -1231729.70409  24892630.63906  24892637.92906
  23810308.16106   1495818.84806   1165570.85909  23810176.84506  23810181.86606
  25559470.13816        -0.86516        -0.14519  25559338.72016  25559342.83716
  20795705.73306    954760.03406    743968.64809  20795574.10206  20795576.58706
 92  8 20 19  4  0.0000000  0  6 20 16 12 03 13 24
  21949710.87006  -2028197.21506  -1580413.62309  21949579.50606  21949582.54306
  22619726.02006  -2025954.35506  -1578663.21609  22619594.21806  22619599.30206
  22083366.76406   1773564.01006   1381996.16509  22083235.70606  22083240.60806
  24880083.68806  -1647347.98706  -1283645.29509  24879952.21206  24879959.55606
  23823378.39206   1564504.86606   1219092.33909  23823247.32106  23823252.50306
  20804690.69006   1001976.51606    780760.70009  20804559.10106  20804561.62906
 92  8 20 19  4 30.0000000  0  6 20 16 12 03 13 24
  21934480.19306  -2108234.61606  -1642780.42409  21934348.90506  21934351.93306
  22604452.59506  -2106216.64306  -1641205.18309  22604320.73006  22604325.82006
  22098685.58806   1854064.92106   1444724.07009  22098554.57906  22098559.47106
  24867435.02506  -1713816.54806  -1335438.89209  24867303.83206  24867311.29406
  23836457.16006   1633234.57006   1272647.86509  23836326.23506  23836331.45406
  20813762.67306   1049651.23706    817909.81709  20813631.22606  20813633.80306
 92  8 20 19  5  0.0000000  0  7 20 16 12 03 13 25 24
  21919317.95106  -2187913.23406  -1704867.64909  21919186.59806  21919189.63506
  22589244.36006  -2186135.66606  -1703479.67409  22589112.68806  22589117.64306
  22114096.47806   1935048.57106   1507828.13409  22113965.31206  22113970.22106
  24854814.75806  -1780135.97806  -1387116.27909  24854683.54206  24854690.73606
  23849542.89906   1702000.52606   1326231.63409  23849412.10506  23849417.12706
  25519708.81716        -0.54716        -0.84119  25519577.31616  25519581.27916
  20822918.05206   1097762.81106    855399.34209  20822786.63606  20822789.17206
 92  8 20 19  5 30.0000000  0  7 20 16 12 03 13 25 24
  21904224.00506  -2267232.21306  -1766674.63309  21904092.67706  21904095.82106
  22574102.19606  -2265708.87106  -1765484.69209  22573970.34306  22573975.36306
  22129598.12006   2016510.52606   1571304.90309  22129467.06106  22129472.00206
  24842222.39606  -1846308.60406  -1438679.25509  24842091.08106  24842098.04106
  23862635.36406   1770801.30806   1379842.53309  23862504.54606  23862509.73506
  25506636.72906    -68696.18506    -53529.96409  25506504.99206  25506509.16306
  20832155.20106   1146303.52306    893223.25909  20832023.66506  20832026.20106
 92  8 20 19  6  0.0000000  0  7 20 16 12 03 13 25 24
  21889198.73106  -2346191.26806  -1828201.15409  21889067.30006  21889070.35706
  22559026.64606  -2344931.81306  -1827216.77909  22558894.66706  22558899.63806
  22145189.90506   2098445.47106   1635150.23509  22145058.81506  22145063.80306
  24829657.38606  -1912336.79806  -1490129.71409  24829526.30506  24829533.46206
  23875733.49506   1839634.48406   1433478.67809  23875603.07706  23875608.30606
  25493654.36106   -136914.65206   -106687.29209  25493523.16406  25493527.51706
  20841473.49906   1195271.40306    931380.03209  20841342.01206  20841344.53706
 92  8 20 19  6 30.0000000  0  7 20 16 12 03 13 25 24
  21874237.27006  -2424813.63006  -1889465.32409  21874105.93606  21874108.89506
  22544010.95406  -2423838.19406  -1888702.19209  22543879.22706  22543884.06906
  22160866.24306   2180824.76806   1699341.81409  22160735.11906  22160740.15106
  24817115.50806  -1978247.14006  -1541488.35909  24816983.92906  24816991.41606
  23888833.95306   1908474.33806   1487120.03509  23888703.08406  23888708.21506
  25480758.17706   -204690.51706   -159499.71609  25480626.51706  25480629.88106
  20850867.81906   1244638.47206    969847.86109  20850736.21406  20850738.80006
 92  8 20 19  7  0.0000000  0  7 20 16 12 03 13 25 24
  21859335.74906  -2503121.40106  -1950484.35509  21859204.40406  21859207.38506
  22529048.84306  -2502464.54906  -1949969.40709  22528917.01506  22528921.98006
  22176622.04506   2263620.83106   1763858.14809  22176490.77306  22176495.78006
  24804589.55206  -2044064.54406  -1592774.54909  24804459.00406  24804466.62106
  23901930.65006   1977296.05506   1540747.24309  23901799.54006  23901804.46306
  25467940.37406   -272048.43206   -211986.46509  25467808.78806  25467813.11206
  20860333.54506   1294381.26106   1008608.45709  20860201.99206  20860204.53906
 92  8 20 19  7 30.0000000  0  7 20 16 12 03 13 25 24
  21844489.11406  -2581140.39606  -2011278.36609  21844357.83206  21844360.93406
  22514134.70006  -2580838.51206  -2011039.95609  22514002.90706  22514007.78306
  22192450.78106   2346802.24806   1828674.76009  22192319.77106  22192324.74606
  24792077.76306  -2109817.89406  -1644010.83409  24791946.57106  24791953.82406
  23915017.84906   2046071.57206   1594338.45509  23914887.08006  23914892.10306
  25455197.35806   -339012.27406   -264166.12309  25455065.72106  25455070.23906
  20869865.46406   1344472.37506   1047640.47509  20869733.96906  20869736.52606
 92  8 20 19  8  0.0000000  0  7 20 16 12 03 13 25 24
  21829698.43806  -2658866.23106  -2071843.93209  21829567.10506  21829570.22606
  22499265.95706  -2658973.30306  -2071924.13709  22499134.34506  22499139.22306
  22208352.77506   2430367.55506   1893790.50509  22208221.78806  22208226.77306
  24779578.11306  -2175506.54106  -1695196.72409  24779446.65006  24779453.09006
  23928096.59606   2114802.02306   1647894.55109  23927965.97706  23927971.31106
  25442530.83006   -405576.30606   -316034.29409  25442399.65006  25442403.51106
  20879461.88206   1394901.89306   1086936.18509  20879330.39406  20879332.94606
 92  8 20 19  8 30.0000000  0  7 20 16 12 03 13 25 24
  21814965.13606  -2736290.06706  -2132174.17909  21814833.85906  21814836.85406
  22484445.12206  -2736858.19206  -2132613.59009  22484313.32906  22484318.15906
  22224328.64206   2514320.14306   1959208.02809  22224197.49306  22224202.49506
  24767091.29806  -2241123.93106  -1746327.09909  24766959.73006  24766966.97806
  23941168.80206   2183494.25406   1701420.86709  23941037.80806  23941042.98106
  25429939.90106   -471741.08906   -367591.28709  25429808.43206  25429812.65006
  20889121.94606   1445665.51206   1126492.23309  20888990.45506  20888993.02206
 92  8 20 19  9  0.0000000  0  7 20 16 12 03 13 25 24
  21800289.83906  -2813410.19606  -2192267.77609  21800158.40806  21800161.35006
  22469674.80206  -2814476.37706  -2193095.22109  22469542.96906  22469547.84006
  22240377.28506   2598656.41106   2024924.52009  22240246.19406  22240251.26406
  24754617.09006  -2306671.62806  -1797403.12509  24754486.28706  24754493.86206
  23954233.02306   2252146.81206   1754916.27209  23954102.03006  23954107.40106
  25417424.67906   -537510.41206   -418840.28209  25417293.32206  25417297.17506
  20898844.40506   1496757.26506   1166303.97009  20898712.90506  20898715.48806
 92  8 20 19  9 30.0000000  0  7 20 16 12 03 13 25 24
  21785674.73206  -2890212.80006  -2252113.95209  21785543.35406  21785546.37806
  22454961.85606  -2891793.28006  -2253342.08809  22454830.08106  22454834.88006
  22256500.26806   2683384.02806   2090945.95309  22256369.36406  22256374.50006
  24742159.35706  -2372139.19806  -1848416.76309  24742028.51106  24742035.23306
  23967292.21906   2320771.27606   1808389.78309  23967161.00806  23967166.19006
  25404989.25706   -602859.71406   -469761.79709  25404857.42606  25404861.61906
  20908630.13306   1548181.71006   1206374.94609  20908498.65306  20908501.24006
 92  8 20 19 10  0.0000000  0  7 20 16 12 03 13 25 24
  21771126.00606  -2966666.59206  -2311688.32309  21770994.74306  21770997.69306
  22440313.76906  -2968769.32606  -2313323.35109  22440181.92706  22440186.72006
  22272702.95906   2768529.09106   2157292.66709  22272571.95306  22272577.02406
  24729721.84706  -2437497.85306  -1899345.49609  24729590.92306  24729598.01606
  23980350.95606   2389396.83606   1861864.14609  23980220.09006  23980225.46706
  25392638.05106   -667764.76206   -520337.29909  25392506.92606  25392510.52206
  20918484.91906   1599969.03306   1246728.68509  20918353.42906  20918356.01806
 92  8 20 19 10 30.0000000  0  7 20 16 12 03 13 25 24
  21756648.56806  -3042746.64206  -2370971.46509  21756517.17606  21756520.13106
  22425739.75106  -3045355.30006  -2373000.66009  22425608.00306  22425612.81006
  22288988.84806   2854111.11406   2223979.86609  22288857.74006  22288862.81406
  24717309.65006  -2502725.86106  -1950172.41409  24717178.46606  24717185.70706
  23993414.52506   2458045.91806   1915356.84909  23993283.54706  23993288.90806
  25380376.36906   -732201.89506   -570548.13609  25380244.67506  25380249.01606
  20928414.44306   1652148.62706   1287388.08709  20928282.88906  20928285.51406
 92  8 20 19 11  0.0000000  0  7 20 16 12 03 13 25 24
  21742241.10406  -3118457.75906  -2429967.12909  21742109.82306  21742112.73706
  22411237.11806  -3121567.21706  -2432386.49609  22411105.38806  22411110.16806
  22305355.76806   2940119.37306   2290999.19509  22305224.61606  22305229.80906
  24704920.50606  -2567831.15806  -2000903.74709  24704789.43706  24704796.59906
  24006481.51406   2526710.66706   1968861.74609  24006350.15306  24006355.42506
  25368204.53406   -796163.42706   -620388.29609  25368073.40806  25368077.50306
  20938418.86406   1704721.98706   1328354.32009  20938287.32906  20938289.94206
 92  8 20 19 11 30.0000000  0  7 20 16 12 03 13 25 24
  21727898.86106  -3193826.68706  -2488696.15209  21727767.54506  21727770.44406
  22396798.34406  -3197442.75606  -2491510.22009  22396666.67106  22396671.43406
  22321797.60206   3026521.52806   2358325.45609  22321666.52506  22321671.74506
  24692549.03006  -2632843.64106  -2051562.74109  24692417.81006  24692425.02106
  24019545.55706   2595362.25106   2022356.39509  24019414.39706  24019419.46006
  25356119.17906   -859674.08806   -669877.23209  25355987.74306  25355991.84306
  20948493.12906   1757663.02106   1369607.05409  20948361.68406  20948364.30106
 92  8 20 19 12  0.0000000  0  7 20 16 12 03 13 25 24
  21713625.28506  -3268835.36306  -2547144.46109  21713493.91206  21713496.81906
  22382425.66506  -3272972.39806  -2550364.41409  22382293.85306  22382298.58806
  22338316.75106   3113329.98606   2425968.31409  22338185.69006  22338190.93506
  24680197.85206  -2697748.15206  -2102137.62709  24680066.78606  24680073.66906
  24032609.66306   2664016.13606   2075852.83209  24032478.71406  24032484.19806
  25344120.52706   -922730.86706   -719012.45209  25343989.18806  25343993.15006
  20958639.97206   1810984.65506   1411156.35809  20958508.52106  20958511.05606
 92  8 20 19 12 30.0000000  0  7 20 16 12 03 13 25 24
  21699419.97506  -3343484.10906  -2605312.30109  21699288.65106  21699291.64306
  22368117.68506  -3348161.64506  -2608953.36409  22367985.71506  22367990.52206
  22354912.19606   3200538.95706   2493923.26109  22354781.09506  22354786.35206
  24667866.53906  -2762548.31506  -2152631.17309  24667735.54406  24667742.44006
  24045674.37006   2732669.16906   2129348.61109  24045542.99406  24045548.37206
  25332208.09606   -985329.71606   -767790.80109  25332076.59206  25332080.55406
  20968857.57306   1864678.05406   1452995.35009  20968726.07706  20968728.58006
 92  8 20 19 13  0.0000000  0  7 20 16 12 03 13 25 24
  21685283.01606  -3417774.00106  -2663200.51409  21685151.72606  21685154.63906
  22353872.92106  -3423017.79506  -2667282.75809  22353740.99206  22353745.74206
  22371582.56906   3288141.78806   2562185.11509  22371451.44306  22371456.72006
  24655554.64106  -2827247.81406  -2203046.26909  24655423.52906  24655430.77206
  24058737.38806   2801318.53606   2182841.53209  24058606.53606  24058612.06206
  25320381.69906  -1047478.65106   -816218.60209  25320250.21806  25320254.04306
  20979144.37506   1918735.32106   1495117.87309  20979012.82706  20979015.37506
 92  8 20 19 13 30.0000000  0  7 20 16 24 12 03 13 25
  21671213.52206  -3491710.21506  -2720813.13709  21671082.23606  21671085.11006
  22339691.93706  -3497538.07106  -2725350.43209  22339560.14506  22339564.85506
  20989496.62606   1973136.72506   1537508.55409  20989365.07606  20989367.67906
  22388325.71706   3376127.36406   2630745.21109  22388194.54506  22388199.92906
  24643260.00006  -2891855.12106  -2253389.52709  24643129.23906  24643136.32606
  24071798.80406   2869956.72306   2236325.72509  24071667.99406  24071673.43606
  25308637.56906  -1109194.22306   -864308.78409  25308506.06606  25308510.06406
 92  8 20 19 14  0.0000000  0  7 24 20 16 03 12 13 25
  20999910.72006   2027863.09806   1580152.45909  20999779.18306  20999781.77506
  21657207.62706  -3565311.50706  -2778164.78209  21657076.34406  21657079.24606
  22325573.75706  -3571727.83006  -2783160.55609  22325442.23906  22325447.01206
  24630979.81606  -2956391.88306  -2303677.81309  24630848.52506  24630855.08506
  22405137.05406   3464471.53206   2699584.73009  22405005.88706  22405011.37806
  24084853.90906   2938561.82706   2289784.15309  24084723.22406  24084728.89406
  25296973.47506  -1170490.77106   -912072.34009  25296841.88106  25296846.32906
 92  8 20 19 14 30.0000000  0  7 20 16 24 03 12 13 25
  21643265.09406  -3638579.47406  -2835256.68709  21643133.86806  21643136.85206
  22311520.09806  -3645580.53206  -2840708.04009  22311388.45606  22311393.17706
  21010384.63106   2082903.91406   1623041.37809  21010253.13306  21010255.74506
  24618710.87006  -3020862.54706  -2353914.61109  24618579.79306  24618586.56706
  22422015.15806   3553167.05206   2768698.03009  22421884.18806  22421889.61106
  24097902.13506   3007129.83206   2343213.67409  24097771.42106  24097776.93006
  25285389.80906  -1231363.22606   -959505.47209  25285258.36406  25285262.12706
 92  8 20 19 15  0.0000000  0  7 20 16 24 12 03 13 25
  21629385.51806  -3711517.58906  -2892091.56709  21629254.27806  21629257.18106
  22297529.58406  -3719101.95006  -2897997.37909  22297397.73706  22297402.42706
  21020917.49506   2138254.85906   1666171.95509  21020786.06306  21020788.70206
  22438958.40706   3642204.33206   2838077.63709  22438827.51406  22438832.90506
  24606453.23506  -3085274.26206  -2404105.46009  24606322.24606  24606329.24406
  24110942.33906   3075654.64106   2396609.53509  24110811.41406  24110816.77706
  25273884.83706  -1291814.84106  -1006610.68809  25273753.86906  25273759.01306
 92  8 20 19 15 30.0000000  0  7 20 16 24 12 03 13 25
  21615570.90206  -3784114.36706  -2948660.47009  21615439.57006  21615442.41406
  22283604.78706  -3792277.21306  -2955016.98809  22283472.90306  22283477.64906
  21031510.46206   2193921.19706   1709548.29409  21031378.98706  21031381.65506
  22455967.93506   3731589.64806   2907728.44109  22455837.10706  22455842.42506
  24594209.60506  -3149618.42706  -2454243.67409  24594078.23606  24594085.03906
  24123975.41406   3144145.62006   2449979.02109  24123844.75006  24123850.29606
  25262466.97806  -1351822.81106  -1053370.30309  25262335.77306  25262339.69006
 92  8 20 19 16  0.0000000  0  7 20 16 24 03 12 13 25
  21601827.03406  -3856337.94606  -3004938.56909  21601695.81206  21601698.73206
  22269751.34406  -3865076.56706  -3011743.67809  22269619.62706  22269624.30806
  21042169.78606   2249936.14606   1753196.28009  21042038.31806  21042040.97706
  24581983.52006  -3213865.80506  -2504306.48909  24581852.52006  24581859.47406
  22473048.70906   3821348.96106   2977670.67109  22472917.78906  22472923.19606
  24137008.31306   3212632.61106   2503345.41609  24136877.54806  24136883.10906
  25251138.45706  -1411354.04106  -1099758.18709  25251007.22106  25251011.75706
 92  8 20 19 16 30.0000000  0  7 20 16 24 03 12 13 25
  21588158.80606  -3928165.13106  -3060907.78309  21588027.50906  21588030.48006
  22255968.56406  -3937504.92706  -3068181.28209  22255836.87206  22255841.59206
  21052899.15206   2306319.51606   1797131.34209  21052767.75506  21052770.34406
  24569779.62606  -3277996.79206  -2554278.57009  24569648.51606  24569655.69306
  22490203.91106   3911499.50806   3047917.75809  22490072.95406  22490078.40306
  24150044.44706   3281135.87406   2556724.47009  24149913.46206  24149919.00006
  25239903.74006  -1470394.17706  -1145763.52709  25239772.26206  25239776.66306
 92  8 20 19 17  0.0000000  0  7 20 16 24 03 12 13 25
  21574569.78406  -3999576.23906  -3116552.78509  21574438.47206  21574441.38306
  22242259.19906  -4009548.58606  -3124319.11809  22242127.38006  22242132.08506
  21063702.88506   2363092.80306   1841370.23609  21063571.39406  21063574.00106
  24557601.33306  -3341994.42006  -2604146.76409  24557470.28806  24557476.81206
  22507436.31706   4002055.57206   3118480.83109  22507305.29406  22507310.71906
  24163086.09006   3349672.68006   2610129.68309  24162955.44006  24162961.03306
  25228764.94506  -1528925.67506  -1191372.58309  25228633.90306  25228637.96806
 92  8 20 19 17 30.0000000  0  6 20 16 24 12 03 13
  21561058.40906  -4070578.64406  -3171879.31409  21560927.11606  21560930.05506
  22228622.77406  -4081208.27606  -3180157.76109  22228490.86806  22228495.64206
  21074576.12706   2420231.85906   1885894.14009  21074444.61606  21074447.26306
  22524743.48006   4093004.34106   3189349.90709  22524612.32206  22524617.82206
  24545446.53106  -3405868.83606  -2653918.98109  24545315.25706  24545321.71906
  24176133.22106   3418234.08906   2663554.05609  24176002.33406  24176008.08906
 92  8 20 19 18  0.0000000  0  6 20 16 24 12 03 13
  21547615.27706  -4141223.21106  -3226927.00809  21547483.91306  21547486.79106
  22215048.18306  -4152542.27106  -3235742.61709  22214916.50806  22214921.20306
  21085508.06206   2477679.62206   1930658.59409  21085376.57906  21085379.25006
  22542114.51006   4184289.04406   3260480.74809  22541983.29106  22541988.84106
  24533304.20006  -3469674.17006  -2703637.32809  24533173.29406  24533180.34406
  24189174.91106   3486766.43106   2716955.79009  24189043.74506  24189049.33706
 92  8 20 19 18 30.0000000  0  6 20 16 24 03 12 13
  21534231.73506  -4211554.77106  -3281730.80809  21534100.34506  21534103.12206
  22201528.02606  -4223590.43606  -3291104.74709  22201396.42406  22201401.04806
  21096487.01806   2535374.59206   1975615.67909  21096355.61106  21096358.31806
  24521166.86506  -3533458.41206  -2753339.23809  24521035.61506  24521042.62506
  22559539.54506   4275859.14606   3331833.97409  22559408.56806  22559414.15306
  24202200.89706   3555222.33006   2770297.95109  24202070.46806  24202076.00106
 92  8 20 19 19  0.0000000  0  6 20 16 24 12 03 13
  21520905.21306  -4281585.77306  -3336300.41109  21520773.87106  21520776.65606
  22188065.92806  -4294335.76706  -3346230.90209  22187934.03506  22187938.62706
  21107506.92806   2593284.19706   2020740.00609  21107375.47606  21107378.16806
  22577015.66206   4367696.33606   3403395.32009  22576884.66506  22576890.19806
  24509030.02606  -3597236.83806  -2803036.64109  24508899.12506  24508905.65106
  24215211.00606   3623586.96906   2823569.00709  24215079.93006  24215085.66106
 92  8 20 19 19 30.0000000  0  7 20 16 24 03 12 13 25
  21507639.50306  -4351296.38306  -3390620.35509  21507508.23506  21507511.16306
  22174664.46806  -4364759.91106  -3401106.77709  22174532.68806  22174537.26106
  21118572.94506   2651435.78206   2066052.89109  21118441.39406  21118444.10206
  24496897.66106  -3660993.22106  -2852716.85409  24496766.36706  24496772.70906
  22594545.35106   4459814.90506   3475175.92209  22594414.27206  22594419.91106
  24228205.89406   3691877.61506   2876782.39909  24228075.34306  24228081.00706
  25174344.96816        -0.65316        -0.66119  25174213.71716  25174218.04316
 92  8 20 19 20  0.0000000  0  7 20 16 24 03 12 13 25
  21494436.92406  -4420676.34506  -3444682.64709  21494305.66306  21494308.57306
  22161323.71106  -4434864.62106  -3455733.74109  22161192.16006  22161196.66406
  21129690.04006   2709856.26806   2111575.31009  21129558.50606  21129561.17006
  24484770.70006  -3724720.06006  -2902374.04309  24484639.30206  24484646.25506
  22612129.36306   4552218.74306   3547178.81109  22611998.25806  22612003.86206
  24241188.27506   3760102.06306   2929944.20709  24241058.06106  24241063.89706
  25163692.62006    -55972.08306    -43614.94709  25163561.82206  25163566.46006
 92  8 20 19 20 30.0000000  0  7 20 16 24 03 12 13 25
  21481298.04806  -4489721.41606  -3498483.98909  21481166.79106  21481169.73406
  22148046.70806  -4504635.28506  -3510100.40809  22147915.15206  22147919.72706
  21140858.54006   2768547.48806   2157308.69109  21140727.07206  21140729.79406
  24472649.56106  -3788416.33706  -2952007.41609  24472518.46806  24472525.18806
  22629767.40806   4644906.91406   3619403.25909  22629636.37106  22629641.98906
  24254159.47606   3828262.70906   2983056.29309  24254028.70506  24254034.66006
  25153121.14306   -111532.55306    -86908.69509  25152989.86006  25152993.55206
 92  8 20 19 21  0.0000000  0  7 20 16 24 03 12 13 25
  21468230.90906  -4558389.02206  -3551991.20109  21468099.73206  21468102.70906
  22134840.86706  -4574033.62906  -3564176.95709  22134709.02706  22134713.52406
  21152088.52406   2827561.96306   2203293.95809  21151957.08506  21151959.87006
  24460541.94606  -3852042.01606  -3001585.79309  24460410.72906  24460417.23206
  22647466.65106   4737916.22606   3691877.94609  22647335.51306  22647341.15006
  24267125.71706   3896399.67206   3036149.92609  24266994.79706  24267000.81006
  25142631.24606   -166655.47306   -129861.87009  25142500.01006  25142504.59106
 92  8 20 19 21 30.0000000  0  7 20 16 24 12 03 13 25
  21455242.80806  -4626642.75306  -3605175.91709  21455111.52006  21455114.43406
  22121709.78906  -4643036.95006  -3617945.69309  22121578.05506  22121582.49406
  21163388.61906   2886944.10606   2249565.72009  21163257.16106  21163259.95106
  22665232.76906   4831277.29706   3764626.73009  22665101.63106  22665107.23406
  24448453.81106  -3915564.10406  -3051083.44009  24448322.77906  24448329.48506
  24280093.98506   3964547.11106   3089251.73309  24279962.95706  24279968.58506
  25132231.22606   -221309.78606   -172449.56109  25132099.92206  25132104.13906
 92  8 20 19 22  0.0000000  0  7 20 16 24 03 12 13 25
  21442337.89206  -4694459.32206  -3658019.99009  21442206.51906  21442209.36106
  22108660.80506  -4711609.29406  -3671378.60409  22108529.13006  22108533.53706
  21174758.38806   2946692.34606   2296122.75109  21174626.97306  21174629.71706
  24436390.07106  -3978961.97906  -3100484.30809  24436258.81406  24436265.23506
  22683069.08006   4925007.72506   3837663.32309  22682938.05806  22682943.67706
  24293067.48206   4032725.99906   3142378.03209  24292936.91806  24292942.98706
  25121930.07006   -275443.00006   -214631.37209  25121798.71506  25121803.34506
 92  8 20 19 22 30.0000000  0  7 20 16 24 12 03 13 25
  21429518.59406  -4761824.11806  -3710512.03109  21429387.36206  21429390.24706
  22095699.25906  -4779722.15706  -3724453.47709  22095567.61506  22095572.03706
  21186197.44006   3006804.53106   2342963.37609  21186066.02806  21186068.77506
  22700977.40006   5019116.32306   3910994.59509  22700846.40006  22700852.03506
  24424351.25706  -4042224.15806  -3149779.44509  24424220.17406  24424226.73106
  24306049.66006   4100948.37006   3195538.24709  24305919.43906  24305924.98206
  25111734.63306   -329026.06206   -256384.42509  25111603.21006  25111606.48506
 92  8 20 19 23  0.0000000  0  6 20 16 24 12 03 13
  21416786.56306  -4828731.44406  -3762647.60009  21416655.35206  21416658.18006
  22082824.98606  -4847377.20606  -3777171.61109  22082693.22106  22082697.67706
  21197708.28006   3067293.90906   2390097.91909  21197576.81106  21197579.55006
  22718957.68406   5113603.03606   3984620.49909  22718826.58506  22718832.37706
  24412339.30506  -4105347.82806  -3198966.64009  24412208.03506  24412214.59206
  24319041.40606   4169217.55606   3248734.91209  24318910.38506  24318916.62506
 92  8 20 19 23 30.0000000  0  6 20 16 24 12 03 13
  21404141.54506  -4895181.22606  -3814426.64709  21404010.29806  21404013.22206
  22070037.52306  -4914575.65506  -3829533.95509  22069905.63506  22069910.05806
  21209289.08606   3128151.03106   2437519.01709  21209157.58006  21209160.27406
  22737008.91306   5208462.33406   4058536.72609  22736877.71806  22736883.63306
  24400352.80106  -4168335.98806  -3248048.22309  24400221.70306  24400228.22906
  24332041.54106   4237531.82806   3301966.70509  24331910.42506  24331916.49006
 92  8 20 19 24  0.0000000  0  6 20 16 24 12 03 13
  21391584.20506  -4961169.37106  -3865845.96809  21391453.08606  21391456.09806
  22057336.73006  -4981317.32106  -3881540.36209  22057205.08106  22057209.36606
  21220937.84706   3189365.81006   2485218.81109  21220806.35306  21220809.08006
  22755130.53306   5303692.53006   4132741.96209  22754999.53206  22755005.50206
  24388392.59306  -4231187.79906  -3297023.58109  24388261.34306  24388267.46906
  24345049.60606   4305892.78706   3355234.89409  24344919.28006  24344925.14906
 92  8 20 19 24 30.0000000  0  6 20 16 24 12 03 13
  21379111.34906  -5026715.53606  -3916920.89309  21378980.11606  21378983.09306
  22044716.53706  -5047635.85706  -3933217.05709  22044585.04906  22044589.23506
  21232652.10606   3250924.14206   2533186.30809  21232520.50306  21232523.22506
  22773318.00506   5399268.19106   4207216.38809  22773187.07506  22773193.12806
  24376453.29506  -4293925.52606  -3345910.03609  24376322.51806  24376329.21406
  24358063.82206   4374279.03506   3408522.77709  24357932.65906  24357938.62606
 92  8 20 19 25  0.0000000  0  6 20 16 24 12 03 13
  21366713.66206  -5091866.02306  -3967687.49909  21366582.33406  21366585.38806
  22032165.90806  -5113590.28906  -3984610.03709  22032034.23906  22032038.45306
  21244420.97806   3312769.74406   2581377.65409  21244289.40206  21244292.15506
  22791561.43406   5495137.14806   4281919.36009  22791430.53606  22791436.46506
  24364527.18206  -4356598.58406  -3394746.07909  24364396.00506  24364402.88106
  24371072.43806   4442641.79706   3461792.35509  24370941.85606  24370947.38806
 92  8 20 19 25 30.0000000  0  6 20 16 24 03 12 13
  21354382.51406  -5156665.35906  -4018180.47609  21354251.40006  21354254.40406
  22019677.09706  -5179219.98606  -4035749.97809  22019545.26306  22019549.50006
  21256232.63506   3374840.86406   2629744.72609  21256101.20406  21256104.00006
  24352604.12206  -4419254.86206  -3443569.05009  24352473.03406  24352479.45806
  22809851.39106   5591249.07606   4356811.66009  22809720.13806  22809726.07706
  24384068.21206   4510934.23406   3515007.14909  24383937.38306  24383943.65606
 92  8 20 19 26  0.0000000  0  6 20 16 24 03 12 13
  21342113.07506  -5221142.17006  -4068422.13809  21341981.90506  21341984.89206
  22007246.28406  -5244543.57606  -4086651.40209  22007114.57606  22007118.78706
  21268081.39206   3437106.36806   2678263.26509  21267949.88906  21267952.64406
  24340678.20106  -4481925.91906  -3492403.53809  24340547.24406  24340553.59106
  22828180.46506   5687569.56606   4431866.47809  22828049.43206  22828055.32706
  24397045.51906   4579125.22306   3568142.88609  24396914.06106  24396920.15606
 92  8 20 19 26 30.0000000  0  7 20 16 03 24 12 13 25
  21329901.48606  -5285315.05506  -4118426.97509  21329770.23406  21329773.23406
  21994871.95406  -5309570.37606  -4137321.56409  21994740.35506  21994744.61706
  24328744.87906  -4544633.43206  -3541266.44709  24328614.11806  24328620.66606
  21279964.26106   3499550.86706   2726921.28309  21279832.80506  21279835.56206
  22846544.89406   5784074.24806   4507064.82409  22846413.75706  22846419.65406
  24409997.83806   4647193.79806   3621183.22309  24409867.01006  24409873.01506
  25033654.16516         0.41516        -0.27219  25033522.40716  25033526.21016
 92  8 20 19 27  0.0000000  0  7 20 16 24 03 12 13 25
  21317754.93406  -5349145.15106  -4168164.70409  21317623.73106  21317626.72806
  21982562.55906  -5374256.51906  -4187726.27709  21982430.86206  21982435.14406
  21291887.43106   3562207.42606   2775744.54209  21291755.92806  21291758.69606
  24316812.25006  -4607340.92506  -3590129.33709  24316681.16106  24316687.89106
  22864950.60406   5880796.24106   4582432.50209  22864819.40206  22864825.36806
  24422934.12606   4715176.45106   3674156.61509  24422803.58706  24422809.62706
  25024255.62506    -49379.23406    -38478.10209  25024125.03206  25024130.66906
 92  8 20 19 27 30.0000000  0  7 20 16 24 12 03 13 25
  21305682.26006  -5412587.64606  -4217600.40309  21305551.02106  21305554.00806
  21970329.02106  -5438544.30106  -4237820.57909  21970197.28806  21970201.53206
  21303858.80506   3625117.57606   2824765.40509  21303727.30506  21303730.11506
  22883405.14606   5977774.97006   4658000.23209  22883273.85406  22883279.90606
  24304887.87906  -4670006.79606  -3638959.80709  24304756.46506  24304762.71506
  24435863.42306   4783116.84706   3727097.08109  24435732.32906  24435738.46606
  25014951.62606    -98282.57906    -76584.60609  25014820.24106  25014823.89706
 92  8 20 19 28  0.0000000  0  7 20 16 24 12 03 13 25
  21293686.61906  -5475625.00406  -4266720.41509  21293555.39606  21293558.32206
  21958174.90606  -5502414.58406  -4287589.56109  21958043.11306  21958047.36606
  21315880.70506   3688293.69106   2873993.51409  21315749.30906  21315752.18406
  22901910.47006   6075022.25606   4733777.22409  22901779.47306  22901785.53706
  24292972.94906  -4732616.48806  -3687746.50009  24292842.01606  24292848.27306
  24448787.32506   4851030.20106   3780016.45809  24448656.01006  24448662.15706
  25005739.43106   -146691.90906   -114306.15409  25005607.70006  25005612.74406
 92  8 20 19 28 30.0000000  0  7 20 16 24 12 03 13 25
  21281771.16306  -5538241.64206  -4315512.59209  21281639.85406  21281642.77206
  21946101.13606  -5565862.08106  -4337029.10309  21945969.39106  21945973.62206
  21327954.42206   3751741.90206   2923433.64609  21327823.15706  21327826.08306
  22920468.98406   6172547.44206   4809770.76009  22920337.97006  22920344.11106
  24281071.69906  -4795157.52706  -3736479.70209  24280940.93906  24280947.22806
  24461707.60306   4918929.43906   3832924.84909  24461576.61706  24461583.12206
  24996622.98006   -194598.83506   -151636.32709  24996491.36706  24996494.84006
 92  8 20 19 29  0.0000000  0  7 20 16 24 12 03 13 25
  21269944.55306  -5600390.98606  -4363940.64109  21269813.24606  21269816.20006
  21934116.69206  -5628840.98406  -4386103.51209  21933984.92906  21933989.07006
  21340087.58806   3815501.64006   2973116.52509  21339956.22206  21339959.12406
  22939088.00706   6270391.35806   4886012.65609  22938957.10506  22938963.34006
  24269191.77006  -4857586.16606  -3785125.30809  24269060.97906  24269067.48806
  24474633.96806   4986858.73406   3885856.66409  24474503.41006  24474509.77506
  24987607.74306   -241971.45306   -188550.10609  24987476.43606  24987481.16206
 92  8 20 19 29 30.0000000  0  7 20 16 24 12 03 13 25
  21258209.85006  -5662057.42306  -4411992.40209  21258078.53506  21258081.47806
  21922225.24706  -5691329.86906  -4434796.08409  21922093.59006  21922097.75706
  21352282.08306   3879583.01706   3023050.03509  21352150.60306  21352153.48706
  22957769.99606   6368564.41406   4962511.02209  22957638.95406  22957645.11006
  24257336.34706  -4919889.89606  -3833673.58309  24257205.07006  24257211.41006
  24487569.36906   5054831.95606   3938822.68909  24487438.57806  24487444.76106
  24978695.35006   -288807.10106   -225045.47409  24978564.10806  24978569.24706
 92  8 20 19 30  0.0000000  0  7 20 16 24 12 03 13 25
  21246565.23306  -5723249.78006  -4459674.74809  21246434.01906  21246436.96406
  21910424.25506  -5753344.26106  -4483118.92709  21910292.58506  21910296.68106
  21364535.58406   3943975.84406   3073226.23109  21364404.09806  21364406.97406
  22976511.43806   6467051.44206   5039254.04009  22976380.51106  22976386.68306
  24245501.80806  -4982080.48906  -3882133.69509  24245370.51806  24245376.72206
  24500510.01406   5122837.91906   3991814.25109  24500379.52506  24500385.94506
  24969885.15106   -335107.19506   -261123.43109  24969753.77406  24969757.10606
 92  8 20 19 30 30.0000000  0  7 20 16 24 12 03 13 25
  21235002.13706  -5784014.62006  -4507023.96109  21234870.84206  21234873.78006
  21898703.76906  -5814936.11506  -4531112.52409  21898572.04306  21898576.16506
  21376838.19706   4008626.00006   3123602.94509  21376706.65106  21376709.59006
  22995302.59706   6565800.54706   5116201.27809  22995171.98406  22995178.15506
  24233679.06606  -5044207.06706  -3930543.93809  24233548.28506  24233554.38906
  24513448.32406   5190828.24606   4044793.64709  24513317.68106  24513324.05406
  24961168.00806   -380912.93906   -296816.38509  24961036.91306  24961042.60406
 92  8 20 19 31  0.0000000  0  7 20 16 24 12 03 13 25
  21223519.29306  -5844356.21906  -4554043.37909  21223388.19206  21223391.15806
  21887063.61106  -5876104.98006  -4578776.51909  21886931.93906  21886936.07606
  21389187.85006   4073523.55706   3174172.43709  21389056.35106  21389059.23706
  23014142.06806   6664801.70006   5193344.91809  23014011.34106  23014017.58706
  24221867.60106  -5106277.05606  -3978910.06909  24221736.64606  24221742.88006
  24526382.86106   5258796.26206   4097755.64309  24526251.84806  24526258.16106
  24952546.08006   -426226.52406   -332125.69409  24952414.61906  24952419.04306
 92  8 20 19 31 30.0000000  0  7 20 16 24 12 03 13 25
  21212118.61606  -5904267.75506  -4600727.68109  21211987.39906  21211990.38706
  21875505.10106  -5936844.71806  -4626106.12609  21875373.43306  21875377.57906
  21401584.40106   4138668.07906   3224934.37109  21401452.93806  21401455.87806
  23033029.99106   6764055.91606   5270685.75109  23032898.86506  23032905.10006
  24210067.12306  -5168286.16306  -4027228.75509  24209936.38606  24209942.53606
  24539313.44806   5326747.43406   4150704.49409  24539182.61806  24539188.82406
  24944019.26406   -471031.17706   -367038.39509  24943888.02106  24943893.11806
 92  8 20 19 32  0.0000000  0  7 20 16 24 12 03 13 25
  21200803.42306  -5963729.75006  -4647061.69509  21200672.15206  21200675.12806
  21864030.41506  -5997144.44806  -4673092.87209  21863898.83906  21863902.91506
  21414031.25406   4204076.93506   3275902.27909  21413899.79506  21413902.75506
  23051968.32606   6863577.03906   5348234.56309  23051837.18706  23051843.45306
  24198282.00006  -5230218.20706  -4075487.39609  24198151.18206  24198157.22906
  24552244.29206   5394699.19306   4203653.81209  24552113.19206  24552119.84706
  24935595.96506   -515302.25806   -401535.39509  24935464.25106  24935468.05006
 92  8 20 19 32 30.0000000  0  7 20 16 24 12 03 13 25
  21189571.05306  -6022755.70406  -4693055.93709  21189439.84506  21189442.78906
  21852635.63306  -6057024.93106  -4719752.93109  21852503.90206  21852508.01006
  21426526.58306   4269740.13106   3327068.37409  21426395.18006  21426398.10006
  23070953.85706   6963345.99206   5425976.48909  23070822.72206  23070828.98906
  24186508.66006  -5292089.06206  -4123698.35309  24186377.40206  24186383.54006
  24565172.44706   5462635.86106   4256591.35009  24565041.42606  24565047.76106
  24927267.04906   -559062.09106   -435633.99209  24927136.48706  24927140.78306
 92  8 20 19 33  0.0000000  0  7 20 16 24 12 03 13 25
  21178424.15006  -6081333.08406  -4738700.64009  21178292.95106  21178295.87406
  21841322.22106  -6116477.59706  -4766079.63009  21841190.48306  21841194.57406
  21439075.22806   4335682.87406   3378452.30009  21438943.69106  21438946.59306
  23089987.52606   7063369.32106   5503916.62909  23089856.57806  23089862.93106
  24174748.12606  -5353889.80706  -4171854.68409  24174617.05706  24174623.03406
  24578099.03106   5530567.71106   4309525.16409  24577968.25606  24577974.96006
  24919038.13706   -602305.36106   -469330.09509  24918907.43606  24918911.67006
 92  8 20 19 33 30.0000000  0  7 20 16 24 03 12 13 25
  21167370.43906  -6139420.24606  -4783963.35709  21167239.31906  21167242.27706
  21830096.81506  -6175466.93806  -4812045.29109  21829965.14906  21829969.15206
  21451685.76706   4401952.38306   3430090.84609  21451554.33606  21451557.26206
  24163008.25206  -5415581.63706  -4219926.15609  24162877.32006  24162883.38406
  23109076.60306   7163682.82406   5582082.87909  23108945.70906  23108952.04606
  24591033.44006   5598534.29906   4362486.01209  24590902.06906  24590908.78706
  24910916.18506   -644995.26606   -502595.05009  24910784.49806  24910788.57106
 92  8 20 19 34  0.0000000  0  7 20 16 24 12 03 13 25
  21156409.62006  -6197020.06706  -4828846.32409  21156278.43806  21156281.41406
  21818959.00806  -6233996.20006  -4857652.44509  21818827.25606  21818831.33106
  21464357.50406   4468542.33706   3481979.09009  21464226.01806  21464228.98206
  23128219.35806   7264277.83606   5660468.48309  23128088.31706  23128094.76306
  24151288.38906  -5477170.07106  -4267917.04809  24151157.34206  24151163.36406
  24603971.94106   5666530.41506   4415469.90009  24603841.27806  24603848.10006
  24902894.48006   -687150.87806   -535443.53109  24902762.66406  24902766.89706
 92  8 20 19 34 30.0000000  0  8 20 16 24 03 12 13 25 17
  21145535.83606  -6254162.45706  -4873372.85309  21145404.62806  21145407.56406
  21807904.75706  -6292086.39906  -4902917.47609  21807773.04806  21807777.06806
  21477084.32306   4535421.90206   3534093.00409  21476952.87406  21476955.81706
  24139582.11206  -5538687.94106  -4315852.95609  24139450.91506  24139456.92806
  23147408.63706   7365119.20006   5739046.04809  23147277.85906  23147284.34806
  24616911.59206   5734524.26106   4468451.98309  24616780.34006  24616786.98706
  24894964.90806   -728816.64106   -567910.37909  24894833.09606  24894837.64406
  25367453.53016        -0.43816        -0.20619  25367321.16916  25367333.94916
 92  8 20 19 35  0.0000000  0  8 20 16 24 12 03 13 25 17
  21134746.85706  -6310858.74406  -4917551.77109  21134615.68306  21134618.60506
  21796935.13606  -6349731.51106  -4947835.68109  21796803.47006  21796807.49306
  21489860.60506   4602562.00306   3586409.93009  21489729.17306  21489732.15306
  23166641.77506   7466189.76306   5817802.20209  23166510.99806  23166517.56706
  24127886.41706  -5600148.94606  -4363744.56309  24127755.24206  24127761.16906
  24629847.39906   5802502.41006   4521421.86509  24629716.40806  24629722.51106
  24887126.70406   -770003.89306   -600004.38409  24886995.64806  24887001.48706
  25348286.84106   -100716.84106    -78480.15109  25348155.10606  25348167.59306
 92  8 20 19 35 30.0000000  0  7 20 16 24 03 12 13 17
  21124045.84806  -6367093.34506  -4961370.93209  21123914.57306  21123917.52206
  21786054.76106  -6406907.79506  -4992388.57209  21785923.18506  21785927.16106
  21502685.53906   4669957.58706   3638925.93409  21502554.05806  21502557.12006
  24116203.86206  -5661540.60206  -4411582.13709  24116072.80906  24116078.91006
  23185920.70906   7567499.68206   5896744.86409  23185789.75406  23185796.34206
  24642782.90606   5870478.99806   4574390.49609  24642652.05806  24642658.92006
  25329147.06606   -201298.94006   -156855.46509  25329015.46706  25329027.58206
 92  8 20 19 36  0.0000000  0  6 20 16 24 12 03 13
  21113429.75406  -6422881.38806  -5004842.12709  21113298.51706  21113301.38006
  21775260.95406  -6463629.59406  -5036587.31209  21775129.33806  21775133.25506
  21515553.22906   4737577.76006   3691616.94109  21515421.84106  21515424.87206
  23205240.95206   7669028.02106   5975857.71709  23205109.90906  23205116.73806
  24104530.79306  -5722880.80906  -4459379.61609  24104399.91506  24104406.03306
  24655715.14906   5938436.46206   4627344.31009  24655584.00806  24655590.25706
 92  8 20 19 36 30.0000000  0  6 20 16 24 12 03 25
  21102897.91006  -6478225.91206  -5047967.72409  21102766.79906  21102769.66606
  21764552.71406  -6519901.93106  -5080435.82009  21764420.98906  21764424.95106
  21528462.30306   4805415.38906   3744477.39609  21528330.96006  21528333.96206
  23224601.42806   7770766.25906   6055134.12909  23224470.28606  23224477.04506
  24092866.97906  -5784175.11306  -4507141.32509  24092735.82506  24092741.86606
  24864172.00516        -0.11516        -0.49819  24864041.02316  24864043.59016
 92  8 20 19 37  0.0000000  0  6 20 16 24 03 12 25
  21092450.40006  -6533128.35106  -5090748.84109  21092319.16806  21092322.04506
  21753928.23306  -6575733.83706  -5123941.14509  21753796.52106  21753800.39906
  21541409.86706   4873454.39606   3797494.76809  21541278.37006  21541281.35106
  24081210.42906  -5845428.09106  -4554870.83409  24081079.71006  24081085.74606
  23244000.36306   7872707.05606   6134568.37509  23243869.07106  23243875.80206
  24856710.40506    -39215.10906    -30557.65509  24856579.00706  24856584.37306
 92  8 20 19 37 30.0000000  0  6 20 16 24 12 03 25
  21082086.55806  -6587590.57106  -5133186.93009  21081955.36006  21081958.25706
  21743386.14906  -6631132.63406  -5167108.98309  21743254.46006  21743258.36806
  21554395.24406   4941692.62506   3850667.38109  21554263.82206  21554266.78606
  23263435.94106   7974842.81606   6214154.54009  23263305.10106  23263311.75106
  24069561.61706  -5906644.48106  -4602571.82309  24069430.69006  24069436.65606
  24849344.55406    -77918.92606    -60716.49409  24849213.33506  24849217.91506
 92  8 20 19 38  0.0000000  0  7 20 16 24 12 03 25 13
  21071809.24806  -6641597.59106  -5175270.31609  21071678.12706  21071681.08006
  21732929.04506  -6686084.95306  -5209928.91509  21732797.25506  21732801.26306
  21567421.06906   5010144.40906   3904006.40009  21567289.78706  21567292.72906
  23282910.75806   8077183.11506   6293900.08909  23282779.90206  23282786.61006
  24057921.93006  -5967811.87906  -4650234.64809  24057790.86106  24057796.55006
  24842078.01706   -116103.63106    -90470.83609  24841946.83106  24841951.60506
  24707394.23716        -0.01516        -0.35219  24707262.79816  24707269.77316
 92  8 20 19 38 30.0000000  0  7 20 16 24 12 03 25 13
  21061619.67306  -6695145.02106  -5216995.57509  21061488.39606  21061491.29806
  21722558.27406  -6740582.73306  -5252394.65709  21722426.54006  21722430.53006
  21580490.48306   5078824.61406   3957523.40909  21580359.12706  21580362.12506
  23302424.58806   8179726.53606   6373803.91509  23302293.38006  23302300.12506
  24046291.84806  -6028928.89906  -4697858.20809  24046160.73106  24046166.33606
  24834909.92806   -153775.79006   -119825.78809  24834778.44206  24834783.59306
  24720303.19306     67841.84306     52863.35609  24720172.60506  24720179.22406
 92  8 20 19 39  0.0000000  0  7 20 16 24 12 03 25 13
  21051518.42606  -6748226.74306  -5258357.94709  21051387.22806  21051390.19106
  21712276.15706  -6794615.44006  -5294498.00509  21712144.44106  21712148.39906
  21593603.86706   5147735.49706   4011220.16609  21593472.39906  21593475.44506
  23321976.66206   8282473.44106   6453866.29509  23321845.63506  23321852.27606
  24034671.66906  -6089992.30306  -4745440.00009  24034540.78606  24034546.44606
  24827838.08506   -190933.67606   -148780.00809  24827707.22206  24827712.47606
  24733211.37406    135672.00006    105717.90909  24733080.56506  24733087.38506
 92  8 20 19 39 30.0000000  0  7 20 16 24 12 03 25 13
  21041502.97606  -6800858.31006  -5299369.54409  21041371.77406  21041374.73506
  21702079.81106  -6848197.49606  -5336250.19909  21701948.05306  21701952.06506
  21606759.14306   5216866.78506   4065088.66409  21606627.67206  21606630.76706
  23341563.61806   8385402.93806   6534070.95709  23341432.52606  23341439.26506
  24023058.77206  -6151019.88306  -4792993.87909  24022927.48206  24022933.29406
  24820856.88806   -227621.31906   -177367.74309  24820725.87506  24820731.06506
  24746113.40506    203473.54806    158550.19909  24745982.86006  24745989.37506
 92  8 20 19 40  0.0000000  0  6 20 16 24 03 12 25
  21031566.55906  -6853075.16006  -5340057.98409  21031435.32306  21031438.22606
  21691962.16006  -6901366.25006  -5377680.34309  21691830.37006  21691834.37706
  21619948.86606   5286178.60006   4119097.83409  21619817.29606  21619820.40206
  24011444.66706  -6212049.96906  -4840549.72309  24011313.62506  24011319.76006
  23361177.42006   8488473.84306   6614385.80109  23361046.40806  23361053.08106
  24813955.30606   -263890.90806   -205629.84009  24813824.31006  24813829.00306
 92  8 20 19 40 30.0000000  0  6 20 16 24 03 12 25
  21021700.02106  -6904924.18506  -5380459.81409  21021568.76906  21021571.61806
  21681914.53906  -6954165.47506  -5418822.53809  21681782.98806  21681786.87306
  21633162.41506   5355616.41306   4173205.18109  21633030.95406  21633034.01606
  23999820.44906  -6273132.10206  -4888146.10309  23999689.82106  23999695.94106
  23380808.08806   8591633.76906   6694770.01009  23380677.13406  23380683.98706
  24807125.77206   -299782.58606   -233597.42909  24806994.42706  24806999.31706
 92  8 20 19 41  0.0000000  0  7 20 16 24 12 03 25 13
  21011904.81906  -6956398.08006  -5420569.33109  21011773.57906  21011776.40406
  21671938.83706  -7006588.28406  -5459671.41909  21671807.17106  21671810.98206
  21646397.07606   5425164.88906   4227398.76109  21646265.62006  21646268.72606
  23400456.16106   8694884.50006   6775224.97309  23400325.14706  23400332.15206
  23988187.93006  -6334261.91106  -4935779.64009  23988056.98806  23988063.42306
  24800368.56806   -335289.34606   -261265.02209  24800237.68506  24800243.01106
  24784718.52916        -0.46116        -0.35019  24784587.87516  24784594.59116
 92  8 20 19 41 30.0000000  0  7 20 16 24 03 12 25 13
  21002183.02306  -7007486.68806  -5460378.63109  21002051.77106  21002054.63306
  21662036.26406  -7058626.43506  -5500220.57709  21661904.56006  21661908.40206
  21659655.34006   5494836.93606   4281688.63409  21659523.82506  21659526.93506
  23976547.86306  -6395431.69606  -4983444.32009  23976416.77706  23976423.05106
  23420122.33306   8798230.53906   6855754.19409  23419991.33606  23419998.39506
  24793688.98406   -370394.39706   -288619.67609  24793557.60906  24793561.66206
  24797546.82906     67411.15306     52528.05009  24797416.00506  24797422.42506
 92  8 20 19 42  0.0000000  0  8 20 16 24 03 12 17 25 13
  20992530.51206  -7058210.48206  -5499903.65909  20992399.32106  20992402.15406
  21652202.97306  -7110300.40706  -5540485.96509  21652071.31706  21652075.16006
  21672932.28206   5564608.10706   4336055.74509  21672800.79306  21672803.92606
  23964896.13206  -6456664.60206  -5031158.19909  23964764.95606  23964770.48906
  23439801.88606   8901645.99006   6936337.50209  23439670.79306  23439677.80006
  25081970.69916         0.18016        -0.25419  25081838.36716  25081850.05016
  24787084.30806   -405099.10006   -315662.37609  24786953.25706  24786958.11306
  24810350.14906    134700.05506    104960.86009  24810220.40006  24810227.56606
 92  8 20 19 42 30.0000000  0  8 16 24 03 12 17 25 20 13
  21642439.32306  -7161608.23706  -5580466.05009  21642307.72006  21642311.57606
  21686230.58106   5634490.21406   4390509.30209  21686099.04106  21686102.17406
  23953233.04306  -6517955.68706  -5078917.42309  23953101.64306  23953107.20706
  23459494.59006   9005132.71706   7016976.34509  23459363.81906  23459370.84506
  25063027.41106    -99543.77106    -77566.57609  25062895.78906  25062907.35906
  24780560.57606   -439385.36306   -342378.97709  24780429.09406  24780434.28606
  20982949.04506  -7108561.82906  -5539138.46709  20982817.80206  20982820.60506
  24823133.66406    201871.86406    157302.41409  24823003.01606  24823010.56206
 92  8 20 19 43  0.0000000  0  8 16 24 03 12 17 25 20 13
  21632750.89906  -7212522.65406  -5620139.57609  21632619.05306  21632622.88006
  21699557.08706   5704522.35006   4445079.76109  21699425.73606  21699428.84506
  23941563.71206  -6579276.90306  -5126700.11609  23941432.44906  23941437.94506
  23479205.99706   9108716.24206   7097690.61509  23479075.23606  23479082.27406
  25044087.39606   -199071.90106   -155120.52909  25043956.30706  25043966.87906
  24774121.83806   -473225.60406   -368748.00109  24773990.02806  24773995.25206
  20973444.22006  -7158509.85106  -5578058.99909  20973312.96906  20973315.86106
  24835898.79106    268955.63006    209575.33109  24835768.44706  24835775.23306
 92  8 20 19 43 30.0000000  0  8 16 24 03 12 17 25 20 13
  21623146.31606  -7262995.12406  -5659468.73109  21623014.52606  21623018.31106
  21712920.57606   5774747.45506   4499800.58709  21712789.16606  21712792.23306
  23929895.89406  -6640588.27106  -5174475.13909  23929765.05906  23929771.13906
  23498942.87906   9212433.17006   7178508.83409  23498812.10606  23498819.20506
  25025158.02206   -298542.27506   -232629.52009  25025026.98006  25025038.37306
  24767772.32106   -506576.54106   -394735.76609  24767642.17006  24767646.72806
  20964024.10906  -7208012.35806  -5616632.37409  20963892.90906  20963895.80206
  24848656.22906    335991.57906    261811.06909  24848525.17306  24848532.45106
 92  8 20 19 44  0.0000000  0  8 16 24 03 12 17 25 20 13
  21613630.69606  -7312999.21506  -5698432.91409  21613499.00706  21613502.77306
  21726321.46306   5845170.04506   4554675.29809  21726190.09806  21726193.22006
  23918234.29206  -6701871.34006  -5222228.09009  23918103.34406  23918109.29406
  23518708.32006   9316299.34506   7259443.34809  23518577.33806  23518584.43806
  25006246.40006   -397926.45006   -310071.32009  25006114.85906  25006125.39606
  24761525.44806   -539422.31106   -420329.91309  24761393.71906  24761397.90506
  20954693.02206  -7257047.85906  -5654841.84909  20954561.78306  20954564.67106
  24861407.73506    402999.97506    314025.26809  24861276.63506  24861283.50506
 92  8 20 19 44 30.0000000  0  8 16 24 03 12 17 25 20 13
  21604204.57006  -7362534.45106  -5737031.75409  21604072.75006  21604076.49906
  21739756.95906   5915773.96406   4609691.29909  21739625.58206  21739628.77306
  23906576.03706  -6763135.98706  -5269966.71109  23906444.99906  23906450.85206
  23538499.61306   9420301.89806   7340484.12909  23538368.51506  23538375.66206
  24987351.47506   -497218.59206   -387441.40709  24987219.72606  24987230.45606
  24755368.84406   -571766.89006   -445533.55609  24755237.88306  24755241.90306
  20945449.35306  -7305623.98306  -5692693.37009  20945318.04406  20945320.90006
  24874152.33006    469971.41706    366210.64609  24874021.15906  24874028.39506
 92  8 20 19 45  0.0000000  0  8 16 24 03 12 17 25 20 13
  21594866.24506  -7411606.76306  -5775269.88009  21594734.50306  21594738.19806
  21753221.31206   5986528.94206   4664825.00909  21753089.81706  21753093.06706
  23894918.94306  -6824394.46206  -5317700.51309  23894787.79706  23894793.57506
  23558313.70106   9524425.48006   7421619.21609  23558182.67506  23558189.83006
  24968475.70706   -596407.15506   -464730.81509  24968344.16606  24968355.09206
  24749306.75506   -603625.14106   -470358.18009  24749175.29006  24749180.35606
  20936291.14706  -7353750.43606  -5730194.49809  20936159.92706  20936162.75306
  24886886.45906    536893.89606    418358.00209  24886755.66006  24886763.49606
 92  8 20 19 45 30.0000000  0  7 16 24 03 12 17 25 20
  21585615.59506  -7460218.83306  -5813149.38209  21585483.92006  21585487.60606
  21766710.09706   6057412.83106   4720059.16809  21766578.61006  21766581.84006
  23883262.34706  -6885646.81606  -5365429.56709  23883131.70206  23883137.54406
  23578150.54606   9628667.64106   7502846.70409  23578019.36906  23578026.61506
  24949622.61006   -695482.73106   -541932.15709  24949490.65306  24949501.07806
  24743338.40606   -634987.42906   -494796.35909  24743207.26206  24743211.50606
  20927219.15606  -7401424.26006  -5767342.92809  20927087.87806  20927090.72106
 92  8 20 19 46  0.0000000  0  7 16 24 03 12 17 25 20
  21576456.95406  -7508347.60106  -5850652.28909  21576325.23406  21576328.93106
  21780230.38806   6128462.57906   4775422.57209  21780098.95806  21780102.07106
  23871614.80406  -6946857.95006  -5413126.48209  23871483.76006  23871489.78906
  23598015.74506   9733060.12106   7584191.31909  23597884.74706  23597892.03506
  24930799.85106   -794395.01606   -619006.25209  24930667.92906  24930678.41506
  24737472.44506   -665815.17106   -518818.05109  24737341.21106  24737346.23006
  20918240.35106  -7448608.19806  -5804109.62809  20918109.06006  20918111.89706
 92  8 20 19 46 30.0000000  0  7 16 24 03 12 17 25 20
  21567395.11106  -7555967.39706  -5887758.59409  21567263.42606  21567267.11006
  21793788.09306   6199709.16406   4830939.35509  21793656.80006  21793659.93906
  23859979.89706  -7007998.65006  -5460768.51509  23859848.83306  23859854.78606
  23617914.65006   9837629.45706   7665673.74209  23617783.72806  23617791.12806
  24912012.76106   -893116.91806   -695932.07709  24911881.36806  24911891.66306
  24731711.67006   -696087.36806   -542406.74709  24731580.63506  24731585.84006
  20909360.69906  -7495270.51706  -5840469.87309  20909229.49706  20909232.34706
 92  8 20 19 47  0.0000000  0  7 16 24 03 12 17 25 20
  21558429.23506  -7603083.37006  -5924472.30709  21558297.58606  21558301.31606
  21807381.99906   6271145.21306   4886603.77109  21807250.59306  21807253.78706
  23848357.95206  -7069073.39206  -5508359.15509  23848226.72706  23848232.53706
  23637846.11506   9942368.28206   7747288.23209  23637715.04406  23637722.31706
  24893260.06006   -991658.60206   -772717.36309  24893129.00806  24893139.12006
  24726053.72106   -725827.91406   -565581.26609  24725921.81006  24725926.25306
  20900580.18806  -7541413.00806  -5876425.05709  20900448.87606  20900451.75406
 92  8 20 19 47 30.0000000  0  7 16 24 03 12 17 20 25
  21549556.62806  -7649709.19306  -5960804.08909  21549424.88106  21549428.63506
  21821012.53606   6342773.28906   4942417.81609  21820881.06706  21820884.23506
  23836743.79406  -7130103.92606  -5555915.33909  23836612.83806  23836618.67506
  23657804.98106  10047251.62206   7829015.32609  23657673.74506  23657681.21106
  24874539.16706  -1090040.09206   -849377.89109  24874407.68906  24874417.64906
  20891894.73106  -7587055.14406  -5911990.35209  20891763.47706  20891766.33906
  24720489.65906   -755064.01906   -588362.69109  24720358.17106  24720362.38306
 92  8 20 19 48  0.0000000  0  7 16 24 03 12 17 25 20
  21540783.90906  -7695810.07806  -5996726.82809  21540652.15306  21540655.88106
  21834688.01906   6414638.17006   4998416.38009  21834556.48306  21834559.63906
  23825142.03406  -7191069.98406  -5603421.29609  23825011.28806  23825017.26406
  23677794.58206  10152297.03706   7910868.70709  23677663.40606  23677670.92806
  24855850.11706  -1188250.68806   -925905.24809  24855718.27106  24855728.44806
  24715021.80006   -783789.72106   -610746.42909  24714890.99306  24714896.43706
  20883308.87206  -7632174.11406  -5947147.98809  20883177.59906  20883180.50006
 92  8 20 19 48 30.0000000  0  7 16 24 03 12 17 25 20
  21532118.74406  -7741345.66306  -6032209.07309  21531987.13606  21531990.84206
  21848414.63106   6486772.34906   5054624.79109  21848283.15706  21848286.37406
  23813559.57806  -7251940.48506  -5650852.78609  23813428.20306  23813433.88506
  23697820.24306  10257532.66006   7992870.30209  23697689.21706  23697696.73406
  24837195.32506  -1286281.50706  -1002292.55009  24837063.40506  24837073.53306
  24709658.13806   -811976.55206   -632710.20809  24709526.96806  24709532.60506
  20874829.08706  -7676736.33506  -5981871.79309  20874697.74006  20874700.58206
 92  8 20 19 49  0.0000000  0  7 16 24 03 12 17 20 25
  21523563.29706  -7786305.68006  -6067242.82709  21523431.47906  21523435.20406
  21862196.08806   6559194.43806   5111057.55009  21862064.70906  21862067.87806
  23801994.87506  -7312711.29606  -5698206.60709  23801863.74606  23801869.40706
  23717882.64106  10362959.92306   8075021.21909  23717751.54206  23717759.05506
  24818575.50006  -1384122.98306  -1078532.26609  24818444.50006  24818454.55206
  20866456.26806  -7720734.92906  -6016156.40609  20866325.04806  20866327.92006
  24704402.08806   -839602.04206   -654236.60309  24704270.43806  24704275.32106
 92  8 20 19 49 30.0000000  0  7 16 24 03 12 17 25 20
  21515115.59506  -7830698.17706  -6101834.36209  21514983.92006  21514987.59206
  21876033.24306   6631908.26106   5167717.63509  21875901.75806  21875904.96706
  23790448.79906  -7373384.39706  -5745484.29209  23790317.95506  23790323.74106
  23737980.19006  10468573.73306   8157317.49109  23737849.26406  23737857.03406
  24799991.67106  -1481781.00006  -1154629.03809  24799860.53706  24799870.48806
  24699256.09106   -866639.90306   -675305.12909  24699125.03106  24699130.41706
  20858190.78206  -7764169.85506  -6050001.80009  20858059.62506  20858062.52206
 92  8 20 19 50  0.0000000  0  7 16 24 03 12 17 20 25
  21506771.29906  -7874547.49506  -6136002.63909  21506639.58306  21506643.23906
  21889917.66706   6704871.65706   5224572.19709  21889786.28106  21889789.49206
  23778919.78306  -7433971.83206  -5792695.22809  23778788.69706  23778794.26406
  23758110.59006  10574358.78106   8239747.19609  23757979.71106  23757987.41706
  24781438.39006  -1579281.54506  -1230603.11609  24781306.32006  24781316.63406
  20850030.75706  -7807051.17906  -6083415.81009  20849899.57606  20849902.51506
  24694225.67806   -893085.00606   -695911.69509  24694093.60906  24694098.55206
 92  8 20 19 50 30.0000000  0  8 16 24 03 12 17 20 25 13
  21498530.28906  -7917854.49306  -6169748.32609  21498398.53506  21498402.21206
  21903845.96706   6778064.51806   5281605.55809  21903714.42006  21903717.68406
  23767407.55106  -7494468.02506  -5839835.06109  23767276.48906  23767282.16806
  23778274.11206  10680318.14806   8322312.72909  23778143.20806  23778151.03706
  24762918.11806  -1676607.51606  -1306441.17409  24762785.80506  24762795.70206
  20841977.70106  -7849370.52606  -6116391.91909  20841846.46706  20841849.37906
  24689308.31706   -918922.46006   -716044.84609  24689176.52106  24689181.46706
  25027052.00116        -0.84916        -0.14319  25026920.95016  25026927.77816
 92  8 20 19 51  0.0000000  0  7 16 24 03 12 17 25 20
  21490388.89606  -7960638.08506  -6203086.16609  21490257.10406  21490260.80906
  21917814.73606   6851470.55206   5338805.02609  21917683.16806  21917686.37406
  23755910.35106  -7554886.66206  -5886914.47109  23755779.32006  23755784.85606
  23798467.82806  10786435.19906   8405001.13209  23798336.81606  23798344.60206
  24744430.03006  -1773759.14306  -1382143.41509  24744298.09706  24744308.25406
  24684501.76306   -944170.96506   -735719.03809  24684371.22506  24684376.88606
  20834029.48306  -7891138.93306  -6148938.72309  20833898.19406  20833901.11806
 92  8 20 19 51 30.0000000  4  1
 -2439737.0000 -4645851.0000  3615005.0000                  APPROX POSITION XYZ
 92  8 20 19 51 30.0000000  0  7 16 24 03 12 17 25 20
  21482340.50306  -8002931.50306  -6236042.05109  21482208.88206  21482212.55906
  21931811.62406   6925024.45506   5396119.71709  21931680.00906  21931683.23406
  23744421.52206  -7615260.68806  -5933959.10909  23744290.38006  23744296.03506
  23818684.80606  10892673.91106   8487784.33109  23818553.52206  23818561.44406
  24725967.50606  -1870777.08706  -1457741.46509  24725835.95206  24725845.73006
  24679801.27406   -968884.63306   -754976.46609  24679669.32706  24679674.29506
  20826180.17606  -7932387.19006  -6181080.21609  20826048.89606  20826051.80506
 92  8 20 19 52  0.0000000  0  7 16 24 03 12 17 20 25
  21474384.06006  -8044742.33206  -6268621.89009  21474252.51706  21474256.21506
  21945829.73606   6998689.87506   5453521.31009  21945698.10206  21945701.37306
  23732936.32006  -7675616.16706  -5980989.29409  23732805.14706  23732810.66606
  23838919.06206  10999005.29806   8570639.73809  23838787.84506  23838795.80606
  24707527.54706  -1967679.00506  -1533249.10909  24707396.06906  24707405.48906
  20818425.25806  -7973139.41506  -6212835.18909  20818294.00406  20818296.91806
  24675189.87006   -993112.45006   -773855.36109  24675059.03306  24675063.48106
 92  8 20 19 52 30.0000000  0  7 16 24 03 12 17 25 20
  21466523.46506  -8086051.46406  -6300810.79209  21466391.67706  21466395.33106
  21959872.87406   7072487.23606   5511025.71709  21959741.31306  21959744.52106
  23721454.95306  -7735949.21006  -6028001.99009  23721324.02006  23721329.51806
  23859171.18606  11105430.29806   8653568.09109  23859040.15006  23859047.95806
  24689113.63906  -2064441.04306  -1608647.75409  24688982.34706  24688992.03706
  24670671.67006  -1016858.83506   -792359.07209  24670540.51606  24670545.03006
  20810765.92506  -8013389.30306  -6244198.73709  20810634.70806  20810637.60006
 92  8 20 19 53  0.0000000  0  7 16 24 03 12 17 25 20
  21458757.24206  -8126862.84106  -6332611.83509  21458625.47606  21458629.15206
  21973941.84506   7146419.72906   5568635.42309  21973810.28406  21973813.42706
  23709976.39006  -7796268.86906  -6075004.25909  23709845.48106  23709851.03706
  23879438.84206  11211937.09806   8736560.18209  23879307.84706  23879315.73606
  24670725.28906  -2161073.82306  -1683945.69009  24670593.54506  24670603.13606
  24666243.03306  -1040133.32106   -810495.08109  24666111.13906  24666115.96806
  20803200.98606  -8053143.31606  -6275175.88609  20803069.75706  20803072.62606
 92  8 20 19 53 30.0000000  0  7 16 24 03 12 17 25 20
  21451089.90206  -8167154.08006  -6364007.57909  21450958.30506  21450961.87806
  21988037.56506   7220494.09806   5626355.67509  21987906.19706  21987909.41906
  23698502.56506  -7856564.52006  -6121987.82609  23698371.56306  23698377.07406
  23899723.70706  11318533.32406   8819621.94909  23899592.63006  23899600.54506
  24652362.03006  -2257569.89606  -1759137.09409  24652230.79006  24652240.28306
  24661907.11406  -1062911.35206   -828244.21509  24661776.14406  24661782.16906
  20795732.92006  -8092388.51306  -6305756.55809  20795601.68506  20795604.52806
 92  8 20 19 54  0.0000000  0  7 16 24 03 12 17 20 25
  21443528.81506  -8206889.35706  -6394970.10909  21443396.95606  21443400.57806
  22002173.76006   7294780.40006   5684241.06909  22002042.37406  22002045.68606
  23687038.95606  -7916805.79806  -6168929.02609  23686908.07906  23686913.50306
  23920030.77206  11425246.18606   8902774.60009  23919899.62406  23919907.54706
  24634033.02206  -2353889.91506  -1834191.36009  24633901.44406  24633910.83506
  20788367.79006  -8131092.58906  -6335915.57909  20788236.56406  20788239.36406
  24657675.91806  -1085145.26206   -845569.33909  24657545.17506  24657550.93206
 92  8 20 19 54 30.0000000  0  7 16 24 03 12 20 17 25
  21436073.32406  -8246067.18706  -6425498.26509  21435941.62606  21435945.25006
  22016352.53606   7369290.53006   5742300.87009  22016221.16106  22016224.49006
  23675586.76206  -7976989.29506  -6215825.20109  23675455.48506  23675460.87106
  23940360.20806  11532076.44106   8986018.72309  23940228.70906  23940236.92306
  20781106.68906  -8169249.73006  -6365648.41809  20780975.47006  20780978.32806
  24615738.04906  -2450030.11506  -1909105.47809  24615606.37206  24615615.69106
  24653552.82406  -1106827.78506   -862464.84509  24653420.16506  24653424.96306
 92  8 20 19 55  0.0000000  0  7 16 24 03 12 17 25 20
  21428719.23606  -8284712.55406  -6455611.51109  21428587.62606  21428591.29906
  22030567.60806   7443989.31106   5800507.67809  22030435.86006  22030439.22306
  23664140.03306  -8037139.45306  -6262695.39009  23664009.12106  23664014.71906
  23960706.68506  11638996.45406   9069332.78709  23960575.30106  23960583.36706
  24597470.31006  -2546026.83806  -1983907.83409  24597338.57006  24597347.77406
  24649524.71106  -1127988.68106   -878953.87409  24649393.06506  24649398.02506
  20773945.46506  -8206882.38706  -6394972.56509  20773814.20406  20773817.05406
 92  8 20 19 55 30.0000000  0  7 16 24 03 12 17 20 25
  21421466.23806  -8322826.86006  -6485310.94609  21421334.54406  21421338.27806
  22044817.28006   7518872.78406   5858858.39709  22044685.72906  22044689.14106
  23652699.85406  -8097258.21706  -6309541.12809  23652568.89106  23652574.41806
  23981069.17506  11746001.58806   9152713.17309  23980937.90506  23980945.94106
  24579230.36706  -2641876.75006  -2058595.79309  24579098.65506  24579107.84906
  20766884.03306  -8243990.10906  -6423887.67309  20766752.84606  20766755.70206
  24645598.21406  -1148619.85406   -895030.19609  24645466.81606  24645471.75806
 92  8 20 19 56  0.0000000  0  7 16 24 03 12 17 25 20
  21414314.68906  -8360408.53706  -6514595.34309  21414182.99606  21414186.70406
  22059100.15306   7593929.47706   5917344.09809  22058968.59506  22058971.94006
  23641265.85306  -8157345.61906  -6356362.42109  23641134.72706  23641140.18306
  24001447.09806  11853088.55606   9236157.32109  24001315.96606  24001324.15006
  24561020.29006  -2737570.05006  -2133161.73609  24560888.82606  24560897.67706
  24641772.71906  -1168726.15206   -910697.42809  24641640.66306  24641645.88706
  20759922.98906  -8280570.90506  -6452392.18809  20759791.78006  20759794.60606
 92  8 20 19 56 30.0000000  0  7 16 24 03 12 17 25 20
  21407260.67106  -8397477.27706  -6543480.05009  21407129.09706  21407132.78106
  22073404.90206   7669102.29906   5975920.28809  22073273.55506  22073276.97506
  23629835.23706  -8217413.83006  -6403168.76409  23629703.92606  23629709.51906
  24021837.89006  11960242.45006   9319653.61109  24021706.84606  24021715.20006
  24542837.16606  -2833120.77506  -2207616.57209  24542705.91506  24542714.66106
  24638042.88406  -1188323.68406   -925968.25609  24637911.67506  24637916.73506
  20753060.37106  -8316634.74806  -6480493.88609  20752929.08306  20752931.90206
 92  8 20 19 57  0.0000000  0  7 16 24 03 12 17 25 20
  21400306.88406  -8434020.47706  -6571955.24809  21400175.11106  21400178.77206
  22087734.57606   7744404.65806   6034597.41109  22087603.11806  22087606.56106
  23618411.77206  -8277442.06106  -6449943.94809  23618280.93306  23618286.38706
  24042245.03706  12067480.99006   9403215.85809  24042113.90206  24042122.28806
  24524686.76106  -2928502.51906  -2281939.74809  24524555.23706  24524564.03206
  24634416.29106  -1207381.82206   -940818.81009  24634285.14906  24634289.97206
  20746300.33606  -8352158.88806  -6508175.03509  20746169.05006  20746171.86306
 92  8 20 19 57 30.0000000  0  7 16 24 03 12 17 20 25
  21393458.47906  -8470009.06906  -6599998.28409  21393326.74706  21393330.39906
  22102092.91306   7819858.03706   6093392.21309  22101961.41506  22101964.88506
  23607000.25006  -8337411.43306  -6496673.27709  23606869.10006  23606874.44206
  24062671.35106  12174820.22406   9486856.56509  24062540.00506  24062548.48506
  24506574.14006  -3023685.41506  -2356107.97809  24506442.30206  24506450.90006
  20739647.09306  -8387122.02806  -6535419.04409  20739515.80406  20739518.63106
  24630897.63306  -1225880.17206   -955233.13809  24630765.36406  24630770.09706
 92  8 20 19 58  0.0000000  0  7 16 24 03 12 17 25 20
  21386714.86206  -8505446.54906  -6627611.88009  21386583.18706  21386586.84906
  22116476.14606   7895442.89306   6152289.46409  22116344.79006  22116348.26606
  23595596.60006  -8397339.18206  -6543370.16209  23595465.31006  23595470.43806
  24083112.99306  12282240.05006   9570560.07209  24082981.50306  24082990.04106
  24488495.90906  -3118686.03206  -2430134.16209  24488363.83006  24488372.74406
  24627478.05006  -1243849.45606   -969235.22409  24627346.09406  24627350.33506
  20733097.72906  -8421539.40706  -6562237.78509  20732966.41506  20732969.22806
 92  8 20 19 58 30.0000000  0  7 16 24 03 12 17 25 20
  21380074.93706  -8540339.13406  -6654800.88309  21379943.31906  21379946.97506
  22130885.67706   7971165.06506   6211293.71809  22130754.29906  22130757.84706
  23584198.86106  -8457231.84906  -6590039.72109  23584067.82906  23584073.28206
  24103568.00206  12389730.74706   9654318.79409  24103436.48906  24103445.14506
  24470448.37206  -3213524.00606  -2504033.63909  24470316.80406  24470325.37006
  24624155.41206  -1261300.33406   -982833.37309  24624024.91006  24624029.58606
  20726651.16706  -8455415.73506  -6588634.92509  20726519.90706  20726522.82306
 92  8 20 19 59  0.0000000  0  7 16 24 03 12 17 25 20
  21373541.48806  -8574672.95406  -6681554.48309  21373409.75106  21373413.38606
  22145326.52506   8047052.75606   6270426.94709  22145195.24706  22145198.74906
  23572810.34006  -8517078.28606  -6636673.24409  23572679.47006  23572684.66606
  24124037.74006  12497300.80406   9738139.36109  24123906.58406  24123915.19306
  24452435.06306  -3308181.80906  -2577792.72109  24452303.82906  24452312.25406
  24620936.05106  -1278226.74106   -996022.81009  24620804.06106  24620808.63006
  20720310.19706  -8488737.58406  -6614600.00109  20720178.96506  20720181.87006
 92  8 20 19 59 30.0000000  0  7 16 24 03 12 17 25 20
  21367115.29906  -8608442.21706  -6707868.17409  21366983.66806  21366987.29206
  22159798.53106   8123102.64606   6329686.56309  22159667.08706  22159670.53406
  23561431.26706  -8576877.04706  -6683269.61909  23561300.15906  23561305.61006
  24144522.84306  12604948.52106   9822020.43109  24144391.47806  24144400.27806
  24434454.43706  -3402669.38406  -2651419.16609  24434323.38006  24434331.65606
  24617811.07506  -1294636.88006  -1008809.96209  24617681.05306  24617686.28706
  20714075.44706  -8521501.88206  -6640130.62709  20713944.12306  20713947.03806
 92  8 20 20  0  0.0000000  0  7 16 24 03 12 20 17 25
  21360791.89006  -8641672.46806  -6733761.85109  21360660.18306  21360663.81806
  22174298.32806   8199299.91006   6389061.01509  22174166.91606  22174170.52506
  23550059.60206  -8636635.54206  -6729834.62009  23549928.43006  23549933.96306
  24165020.28006  12712663.51006   9905953.92209  24164889.19606  24164897.90806
  20707945.68106  -8553713.86006  -6665230.87209  20707814.38406  20707817.29206
  24416502.53806  -3497008.09006  -2724929.60609  24416370.86806  24416379.22206
  24614785.74406  -1310544.16306  -1021205.28609  24614654.04206  24614659.23806
 92  8 20 20  0 30.0000000  0  7 16 24 03 12 17 25 20
  21354566.22906  -8674388.84406  -6759255.10809  21354434.44506  21354438.04006
  22188822.90406   8275626.45906   6448536.20509  22188691.45406  22188694.92906
  23538692.54106  -8696370.72506  -6776381.46009  23538561.32206  23538566.64306
  24185526.69806  12820425.91106   9989924.34909  24185395.92706  24185404.75106
  24398575.10506  -3591217.56306  -2798339.36909  24398443.08506  24398451.63806
  24611851.94406  -1325965.37306  -1033221.86209  24611719.85206  24611724.78606
  20701918.14906  -8585388.62706  -6689912.51009  20701786.87906  20701789.78006
 92  8 20 20  1  0.0000000  0  7 16 24 03 12 17 25 20
  21348439.28306  -8706585.54606  -6784343.42709  21348307.59106  21348311.19106
  22203370.76406   8352075.62606   6508106.94509  22203239.34506  22203242.84206
  23527329.77206  -8756080.53106  -6822908.53209  23527198.75206  23527204.03606
  24206042.69706  12928234.66806  10073930.89309  24205911.53506  24205920.33406
  24380672.94306  -3685291.82006  -2871643.76209  24380541.28206  24380549.61206
  24609010.36606  -1340894.19706  -1044854.74409  24608878.75906  24608883.58406
  20695993.67806  -8616522.13206  -6714172.38709  20695862.38106  20695865.29906
 92  8 20 20  1 30.0000000  0  7 16 24 03 12 17 25 20
  21342414.19506  -8738247.70406  -6809015.21609  21342282.46006  21342286.08106
  22217944.22206   8428660.66706   6567783.56009  22217812.98806  22217816.52606
  23515972.92606  -8815760.95606  -6869412.69909  23515841.77106  23515847.10206
  24226566.98606  13036090.90306  10157974.42909  24226435.96506  24226444.94006
  24362795.52306  -3779235.84706  -2944846.69009  24362664.28406  24362672.53006
  24606267.37406  -1355304.23306  -1056083.37609  24606136.03706  24606141.51206
  20690173.22706  -8647108.71906  -6738006.09709  20690041.92106  20690044.85306
 92  8 20 20  2  0.0000000  0  7 16 24 03 12 17 20 25
  21336491.22206  -8769372.84506  -6833268.54909  21336359.48806  21336363.09606
  22232545.94206   8505391.98306   6627574.15809  22232414.47506  22232417.96006
  23504621.18806  -8875414.94206  -6915896.26309  23504490.03006  23504495.32006
  24247099.55206  13143988.99806  10242050.57409  24246968.47706  24246977.63306
  24344945.97406  -3873036.25006  -3017937.71909  24344814.57406  24344822.52606
  20684456.81006  -8677149.04806  -6761414.15109  20684325.48606  20684328.35506
  24603627.99506  -1369181.64106  -1066896.98009  24603495.60806  24603500.53706
 92  8 20 20  2 30.0000000  0  7 16 24 03 12 17 25 20
  21330669.46606  -8799965.45206  -6857106.92509  21330537.82806  21330541.46206
  22247173.17306   8582259.04506   6687470.52909  22247041.83306  22247045.34606
  23493271.55706  -8935055.42706  -6962369.30709  23493140.73306  23493146.03406
  24267637.14606  13251912.75506  10326146.70909  24267505.98206  24267515.17606
  24327123.21806  -3966692.62806  -3090916.51309  24326992.15406  24327000.45606
  24601088.78206  -1382513.24806  -1077285.30809  24600958.81806  24600963.74706
  20678842.12906  -8706654.14506  -6784405.14509  20678710.84506  20678713.75406
 92  8 20 20  3  0.0000000  0  7 16 24 03 12 17 25 20
  21324949.16106  -8830026.13006  -6880530.80709  21324817.50306  21324821.15406
  22261825.19406   8659255.27206   6747467.54809  22261693.81206  22261697.26406
  23481924.71006  -8994682.94006  -7008832.24009  23481793.91206  23481799.29306
  24288178.57706  13359858.76206  10410260.17609  24288047.52906  24288056.98106
  24309329.90806  -4060199.31206  -3163778.66309  24309198.17506  24309206.43406
  24598659.83106  -1395284.87506  -1087237.26409  24598528.65006  24598534.08406
  20673329.50706  -8735623.01706  -6806978.29909  20673198.22206  20673201.18106
 92  8 20 20  3 30.0000000  0  7 16 24 03 12 17 25 20
  21319330.84506  -8859550.56406  -6903536.83709  21319199.18206  21319202.76706
  22276502.66406   8736384.76506   6807568.41309  22276371.11806  22276374.55706
  23470580.79906  -9054296.22406  -7055284.09409  23470449.82706  23470455.10806
  24308724.16606  13467825.20606  10494389.57309  24308593.17006  24308602.41706
  24291567.57706  -4153540.32806  -3236511.71409  24291435.96406  24291444.04306
  24596335.73006  -1407503.71606  -1096758.45309  24596203.57506  24596209.25406
  20667919.51106  -8764052.60806  -6829131.23309  20667788.25306  20667791.20906
 92  8 20 20  4  0.0000000  0  7 16 24 03 12 17 20 25
  21313811.30906  -8888555.74706  -6926138.25709  21313679.64706  21313683.25506
  22291198.40106   8813611.27706   6867744.87209  22291066.96206  22291070.37706
  23459237.07906  -9113910.25206  -7101736.52109  23459105.81206  23459111.04606
  24329270.53206  13575794.49206  10578521.17709  24329139.25706  24329148.60506
  24273836.38606  -4246715.21406  -3309115.32109  24273705.26406  24273713.31306
  20662609.64906  -8791956.04706  -6850874.17909  20662478.41006  20662481.36106
  24594107.09006  -1419215.73206  -1105884.73009  24593974.97706  24593980.10206
 92  8 20 20  4 30.0000000  0  7 16 24 03 12 17 25 20
  21308390.46406  -8917042.67706  -6948335.84509  21308258.75806  21308262.33106
  22305909.03406   8890916.26506   6927982.47709  22305777.59806  22305781.11506
  23447892.62406  -9173524.05906  -7148188.77709  23447761.55806  23447766.87406
  24349816.54406  13683764.17706  10662653.09009  24349685.52306  24349694.94206
  24256138.62306  -4339718.80306  -3381585.45109  24256006.85806  24256015.00306
  24591971.59106  -1430433.53006  -1114625.94109  24591840.34806  24591845.12206
  20657400.49406  -8819330.72306  -6872205.10109  20657269.18306  20657272.14706
 92  8 20 20  5  0.0000000  0  7 16 24 03 12 17 25 20
  21303071.08806  -8944996.99006  -6970118.40609  21302939.28006  21302942.89106
  22320636.52706   8968310.19506   6988289.38709  22320505.19506  22320508.80406
  23436549.26106  -9233133.49306  -7194637.61609  23436418.06106  23436423.53106
  24370362.86006  13791735.72106  10746786.45009  24370232.00306  24370241.43406
  24238475.53506  -4432537.58106  -3453911.57809  24238343.98706  24238352.22106
  24589927.31606  -1441174.58606  -1122995.65309  24589796.22906  24589801.22806
  20652292.97806  -8846170.53106  -6893119.24009  20652161.74406  20652164.69906
 92  8 20 20  5 30.0000000  0  7 16 24 03 12 17 25 20
  21297861.67406  -8972372.11806  -6991449.66009  21297729.95206  21297733.51106
  22335391.11506   9045844.84906   7048705.95109  22335259.63606  22335263.16606
  23425215.20006  -9292693.11406  -7241047.64909  23425084.26406  23425089.68106
  24390917.69506  13899751.56306  10830954.32409  24390787.00506  24390796.53406
  24220857.82006  -4525120.67506  -3526054.06609  24220726.13306  24220734.03706
  24587979.42506  -1451409.53006  -1130970.96009  24587848.69806  24587853.85506
  20647296.46406  -8872428.34706  -6913579.87709  20647165.08806  20647168.00606
 92  8 20 20  6  0.0000000  0  7 16 24 03 12 17 25 20
  21292770.87106  -8999125.00106  -7012296.04209  21292639.00906  21292642.57806
  22350181.52106   9123569.44106   7109270.51809  22350050.09506  22350053.67206
  23413899.55006  -9352158.51506  -7287384.27909  23413768.42806  23413773.67606
  24411488.96406  14007853.05406  10915188.93009  24411358.22706  24411367.93006
  24203290.80006  -4617434.84506  -3597987.00009  24203158.99806  24203166.92006
  24586138.68206  -1461086.94106  -1138511.81209  24586007.17006  24586012.36406
  20642419.10906  -8898058.52806  -6933551.44909  20642287.78906  20642290.76206
 92  8 20 20  6 30.0000000  0  7 16 24 03 12 17 20 25
  21287798.24506  -9025256.12906  -7032657.93809  21287666.41006  21287669.99306
  22365008.70906   9201486.45706   7169985.02709  22364877.23506  22364880.79806
  23402600.37006  -9411536.59306  -7333652.86109  23402469.24306  23402474.29806
  24432074.61706  14116030.49706  10999482.71409  24431944.08606  24431953.84206
  24185770.66606  -4709501.85806  -3669727.34209  24185639.27206  24185647.05806
  20637660.18506  -8923066.27106  -6953038.00309  20637528.95306  20637531.95406
  24584405.05006  -1470200.49506  -1145613.31409  24584272.84506  24584277.89806
 92  8 20 20  7  0.0000000  0  7 16 24 03 12 17 25 20
  21282933.58906  -9050819.73406  -7052577.61009  21282801.78706  21282805.37306
  22379860.81406   9279534.64506   7230801.74709  22379729.41206  22379732.89806
  23391305.96506  -9470889.48206  -7379901.81609  23391174.68106  23391179.80706
  24452662.60706  14224218.74106  11083784.91409  24452531.72706  24452541.67206
  24168281.24406  -4801407.64306  -3741342.05309  24168149.90606  24168157.75706
  24582764.59206  -1478816.18006  -1152326.87909  24582633.34906  24582638.37106
  20633008.41006  -8947511.75906  -6972086.43709  20632877.14806  20632880.12506
 92  8 20 20  7 30.0000000  0  7 16 24 03 12 17 25 20
  21278167.85906  -9075863.81806  -7072092.46409  21278035.98406  21278039.63006
  22394726.76206   9357655.03306   7291674.72109  22394595.27606  22394598.80706
  23380008.25906  -9530256.85006  -7426162.06009  23379877.30706  23379882.52406
  24473244.45406  14332375.05206  11168062.22909  24473113.50306  24473123.37306
  24150813.16406  -4893202.65506  -3812870.44209  24150681.77106  24150689.41806
  24581212.76206  -1486967.88506  -1158678.91409  24581081.91006  24581087.21806
  20628456.19306  -8971433.50506  -6990726.76509  20628324.94606  20628327.98706
 92  8 20 20  8  0.0000000  0  7 16 24 03 12 17 25 20
  21273497.97106  -9100403.93906  -7091214.61809  21273366.21406  21273369.79006
  22409599.76206   9435814.37206   7352578.05309  22409468.56406  22409472.02706
  23368703.31406  -9589664.26006  -7472453.49909  23368572.36906  23368577.57006
  24493814.60606  14440470.88406  11252292.41009  24493683.67506  24493693.71206
  24133360.17706  -4984918.76906  -3884337.35809  24133228.59706  24133236.37706
  24579746.88606  -1494675.24806  -1164684.69609  24579614.89306  24579620.62306
  20623999.27306  -8994855.35106  -7008977.55909  20623867.97406  20623870.94206
 92  8 20 20  8 30.0000000  0  7 16 24 03 12 17 25 20
  21268920.11106  -9124460.61606  -7109960.06109  21268788.34906  21268791.93806
  22424473.79606   9513976.02106   7413483.18109  22424342.31406  22424345.83006
  23357387.66606  -9649128.79606  -7518789.46709  23357256.71906  23357261.72806
  24514369.60406  14548485.86206  11336459.59009  24514238.41906  24514248.63506
  24115920.04506  -5076565.49506  -3955750.19609  24115788.71706  24115796.19306
  24578363.05806  -1501951.74506  -1170354.74209  24578230.66206  24578235.93806
  20619634.25206  -9017793.00506  -7026851.06309  20619503.06306  20619506.06506
 92  8 20 20  9  0.0000000  0  7 16 03 24 12 17 20 25
  21264434.82006  -9148031.46006  -7128326.93809  21264303.01106  21264306.53106
  23346061.28906  -9708648.49306  -7565168.40409  23345930.32106  23345935.60306
  22439350.90306   9592155.16306   7474401.94409  22439219.23006  22439222.84306
  24534908.62106  14656419.59606  11420563.45409  24534777.79006  24534788.10606
  24098497.35306  -5168122.95206  -4027093.49009  24098365.70506  24098373.26906
  20615362.36706  -9040242.36906  -7044344.08109  20615231.12606  20615234.11206
  24577060.08106  -1508787.70706  -1175681.51009  24576929.62406  24576934.96806
 92  8 20 20  9 30.0000000  0  7 16 24 03 17 12 25 20
  21260045.16406  -9171098.84706  -7146301.51109  21259913.37906  21259916.92706
  22454237.35606   9670384.58506   7535359.88409  22454105.79506  22454109.37706
  23334727.98406  -9768206.14306  -7611576.91809  23334596.96406  23334602.02506
  24081100.10106  -5259545.51106  -4098331.67109  24080968.44406  24080975.69106
  24555434.74406  14764286.29706  11504615.08509  24555304.36906  24555314.76806
  24575847.47006  -1515156.78406  -1180644.43409  24575717.43906  24575723.31206
  20611186.92906  -9062184.92706  -7061442.18709  20611055.61406  20611058.57706
 92  8 20 20 10  0.0000000  0  7 16 24 03 17 12 25 20
  21255756.27206  -9193637.40006  -7163864.00609  21255624.41106  21255627.98406
  22469139.37406   9748695.25806   7596381.13509  22469007.87706  22469011.48106
  23323390.67006  -9827783.63806  -7658000.90309  23323259.70806  23323264.81106
  24063732.45006  -5350810.74806  -4169447.26509  24063600.90606  24063608.43406
  24575951.71406  14872100.46006  11588625.77109  24575821.05006  24575831.55606
  24574730.04906  -1521035.67206  -1185225.39009  24574599.11406  24574604.96806
  20607111.38306  -9083601.67206  -7078130.56809  20606980.13506  20606983.08006
 92  8 20 20 10 30.0000000  0  7 16 24 03 17 12 25 20
  21251570.63206  -9215632.55706  -7181003.08009  21251438.92306  21251442.49306
  22484061.89106   9827113.37306   7657486.10909  22483930.41206  22483933.97806
  23312053.97506  -9887360.11506  -7704424.08509  23311922.55106  23311927.78906
  24046398.78706  -5441899.04306  -4240424.98209  24046267.27606  24046274.71206
  24596462.02006  14979880.67106  11672609.99209  24596331.14406  24596341.66006
  24573709.89906  -1526394.26706  -1189400.96409  24573579.39006  24573584.90106
  20603140.53006  -9104469.44106  -7094391.17609  20603009.14806  20603012.12606
 92  8 20 20 11  0.0000000  0  7 16 24 03 12 17 25 20
  21247495.96306  -9237044.65206  -7197687.82209  21247364.27906  21247367.88306
  22499014.11206   9905687.29206   7718712.49209  22498882.61406  22498886.18206
  23300723.83906  -9946898.43106  -7750817.53409  23300592.77406  23300597.85006
  24616972.22406  15087660.74406  11756594.10709  24616841.25906  24616851.90506
  24029105.65806  -5532773.76506  -4311236.27609  24028974.27306  24028981.56206
  24572796.25806  -1531201.56406  -1193146.96009  24572664.67806  24572670.01106
  20599281.09706  -9124750.29006  -7110194.44709  20599149.82406  20599152.82106
 92  8 20 20 11 30.0000000  0  7 16 03 24 12 17 25 20
  21243534.20006  -9257864.02506  -7213910.69709  21243402.44006  21243406.07306
  23289404.44206 -10006382.40106  -7797168.62809  23289273.30006  23289278.37006
  22513993.59306   9984404.81806   7780050.78309  22513862.08106  22513865.61306
  24637484.89206  15195453.83606  11840588.36409  24637353.90906  24637364.62106
  24011854.84406  -5623428.27306  -4381875.99509  24011723.15206  24011730.42306
  24571987.47306  -1535450.15206  -1196457.57709  24571856.53806  24571861.58206
  20595536.70606  -9144426.82206  -7125526.82209  20595405.49706  20595408.54506
 92  8 20 20 12  0.0000000  0  7 16 24 03 12 17 25 20
  21239684.81206  -9278092.42906  -7229673.07609  21239553.08906  21239556.55706
  22528997.68406  10063251.39406   7841489.63009  22528866.13106  22528869.63606
  23278097.61506 -10065800.12406  -7843468.10309  23277966.45106  23277971.43606
  24658001.60406  15303268.90206  11924599.74509  24657870.69006  24657881.34006
  23994643.15106  -5713875.15706  -4452353.91909  23994511.44506  23994518.85906
  24571286.48706  -1539137.47906  -1199330.86109  24571155.02806  24571160.05106
  20591909.96006  -9163485.87206  -7140378.04009  20591778.71306  20591781.72506
 92  8 20 20 12 30.0000000  0  7 16 24 03 12 17 25 20
  21235944.46806  -9297747.93006  -7244989.04109  21235812.74506  21235816.23306
  22544019.73906  10142193.05006   7903002.56509  22543888.27306  22543891.86506
  23266799.53006 -10125171.89206  -7889731.77309  23266668.41406  23266673.30406
  24678518.00006  15411082.87706  12008610.26309  24678387.35206  24678398.20406
  23977466.75406  -5804136.59906  -4522687.34409  23977335.30406  23977342.76606
  24570685.25306  -1542296.10906  -1201792.15409  24570553.65906  24570559.09506
  20588397.15906  -9181946.03306  -7154762.59509  20588265.87706  20588268.86006
 92  8 20 20 13  0.0000000  0  7 16 24 03 12 17 25 20
  21232317.60206  -9316807.53106  -7259840.67009  21232185.88906  21232189.34006
  22559060.92906  10221234.99106   7964593.64509  22558929.50006  22558933.04206
  23255513.43306 -10184480.96206  -7935946.58109  23255382.28006  23255387.24506
  24699037.27506  15518909.35306  12092630.53409  24698906.22406  24698917.31406
  23960330.52206  -5894188.89706  -4592857.80809  23960198.97806  23960206.13106
  24570185.98906  -1544915.26406  -1203833.07109  24570055.14606  24570060.97806
  20585001.78206  -9199789.22806  -7168666.39609  20584870.48006  20584873.43906
 92  8 20 20 13 30.0000000  0  7 16 24 03 12 17 25 20
  21228808.77806  -9335246.34206  -7274208.56209  21228677.06606  21228680.53406
  22574123.88906  10300392.32806   8026274.64409  22573992.61306  22573996.20906
  23244242.91606 -10243707.47506  -7982097.06609  23244111.92806  23244116.72406
  24719562.00606  15626765.28106  12176673.73909  24719430.97506  24719441.84406
  23943236.14906  -5984020.42506  -4662856.22709  23943104.39306  23943111.54206
  24569792.93406  -1546976.82906  -1205439.52509  24569662.88906  24569668.53906
  20581727.68306  -9216994.43506  -7182073.05909  20581596.46306  20581599.38306
 92  8 20 20 14  0.0000000  0  7 16 24 03 12 17 25 20
  21225420.97806  -9353049.31406  -7288080.98709  21225289.26406  21225292.78606
  22589213.84006  10379689.83806   8088064.86809  22589082.50806  22589086.06606
  23232989.34206 -10302844.69806  -8028177.97409  23232858.34106  23232863.24406
  24740092.81106  15734654.30006  12260742.73509  24739961.85206  24739972.81906
  23926186.96006  -6073612.51106  -4732668.07509  23926055.69806  23926062.65306
  24569509.84906  -1548473.07006  -1206605.46709  24569378.01006  24569383.91306
  20578576.46506  -9233554.31206  -7194976.86509  20578445.18906  20578448.15106
 92  8 20 20 14 30.0000000  0  7 16 24 03 12 17 25 20
  21222153.74006  -9370218.57606  -7301459.61509  21222022.00306  21222025.53906
  22604330.95006  10459130.04806   8149966.28509  22604199.54106  22604203.08406
  23221749.41806 -10361910.98106  -8074203.60009  23221618.37106  23221623.26506
  24760626.21506  15842555.39406  12344821.13509  24760495.10706  24760506.21406
  23909184.76806  -6162958.94406  -4802288.51509  23909053.44506  23909060.38606
  24569330.85206  -1549413.77606  -1207338.52309  24569199.10006  24569205.23006
  20575544.98006  -9249485.37106  -7207390.68109  20575413.62106  20575416.59406
 92  8 20 20 15  0.0000000  0  7 16 03 24 12 17 25 20
  21219002.11906  -9386780.78306  -7314365.21609  21218870.38006  21218873.90306
  23210518.73406 -10420927.46806  -8120190.42409  23210387.70006  23210392.82706
  22619474.68006  10538711.18906   8211977.51709  22619343.28706  22619346.99306
  24781156.60606  15950444.07806  12428889.86009  24781025.88506  24781036.98806
  23892225.46306  -6252080.67706  -4871733.86409  23892094.06906  23892101.05106
  24569255.43606  -1549810.99606  -1207648.10309  24569123.33206  24569129.65806
  20572628.94106  -9264808.09806  -7219330.47009  20572497.77506  20572500.78506
 92  8 20 20 15 30.0000000  0  7 16 03 24 12 17 25 20
  21215966.03106  -9402735.08506  -7326797.12509  21215834.36506  21215837.87806
  23199298.05006 -10479891.98806  -8166136.75509  23199167.07006  23199172.18906
  22634647.38106  10618442.98606   8274106.14009  22634515.75606  22634519.48906
  24801685.39006  16058320.08906  12512948.70709  24801554.24206  24801565.70106
  23875309.36806  -6340975.15506  -4941002.13109  23875177.84806  23875184.84206
  24569282.35306  -1549670.65906  -1207538.79709  24569150.19806  24569156.24806
  20569829.83906  -9279518.45806  -7230793.09209  20569698.54206  20569701.49506
 92  8 20 20 16  0.0000000  0  7 16 03 24 12 17 25 20
  21213046.75706  -9418075.77506  -7338750.88709  21212915.13206  21212918.60906
  23188088.34806 -10538799.95706  -8212039.02509  23187957.33506  23187962.32106
  22649847.43306  10698320.08106   8336347.98509  22649715.94206  22649719.63706
  24822211.37306  16166184.16206  12596998.26009  24822080.46206  24822091.77606
  23858439.50706  -6429626.11006  -5010080.64009  23858307.96506  23858314.93206
  24569412.86006  -1548985.55506  -1207004.98809  24569280.83406  24569286.70806
  20567148.10406  -9293611.51306  -7241774.69809  20567016.74206  20567019.68206
 92  8 20 20 16 30.0000000  0  7 16 03 24 12 17 25 20
  21210245.65606  -9432795.90906  -7350221.09209  21210114.07306  21210117.49306
  23176891.21606 -10597641.17506  -8257889.27709  23176760.17606  23176765.20906
  22665075.29906  10778342.39906   8398702.99209  22664943.74906  22664947.47206
  24842736.71006  16274044.26006  12681044.68909  24842605.76006  24842617.25506
  23841614.91206  -6518038.18706  -5078973.01409  23841483.31106  23841490.54006
  24569648.88206  -1547746.24606  -1206039.34309  24569517.36206  24569522.74606
  20564585.81606  -9307075.63806  -7252266.22909  20564454.59206  20564457.55106
 92  8 20 20 17  0.0000000  0  7 16 03 24 12 17 25 20
  21207559.36206  -9446912.90706  -7361221.32609  21207427.59606  21207431.10806
  23165705.23706 -10656424.57706  -8303694.47609  23165574.10506  23165579.01706
  22680326.24506  10858486.77306   8461153.10509  22680194.78306  22680198.49806
  24863259.11406  16381887.89206  12765078.30509  24863128.02806  24863139.64706
  23824832.44606  -6606230.90706  -5147694.46309  23824700.79306  23824707.76906
  24569986.14206  -1545974.92206  -1204659.15209  24569854.56906  24569859.66906
  20562141.81806  -9319919.22906  -7262274.22909  20562010.51106  20562013.48806
 92  8 20 20 17 30.0000000  0  7 16 03 24 12 17 20 25
  21204989.95206  -9460414.69706  -7371742.17509  21204858.17406  21204861.73306
  23154530.17406 -10715148.79006  -8349453.54909  23154399.13406  23154404.06306
  22695595.53406  10938727.97006   8523678.66309  22695464.16006  22695467.85906
  24883778.01206  16489713.78706  12849098.08809  24883646.86806  24883658.66806
  23808094.16506  -6694190.60306  -5216234.34509  23807962.55606  23807969.48806
  20559816.38006  -9332139.36606  -7271796.41909  20559685.12106  20559688.07706
  24570421.50206  -1543684.69606  -1202874.60709  24570290.42506  24570295.80706
 92  8 20 20 18  0.0000000  0  7 16 03 24 12 17 25 20
  21202534.99606  -9473314.88406  -7381794.24409  21202403.33406  21202406.83406
  23143363.64006 -10773829.33906  -8395178.60409  23143232.64406  23143237.49006
  22710881.10606  11019053.09806   8586269.62609  22710749.56006  22710753.28606
  24904289.65206  16597503.40506  12933089.59609  24904158.85706  24904170.73006
  23791396.61206  -6781937.29506  -5284608.24909  23791264.80306  23791271.65906
  24570954.26906  -1540884.76906  -1200692.89809  24570822.69206  24570828.81806
  20557606.88606  -9343750.83906  -7280844.32609  20557475.56806  20557478.51106
 92  8 20 20 18 30.0000000  0  7 16 03 24 12 17 25 20
  21200189.99906  -9485638.86606  -7391397.32409  21200058.15306  21200061.67706
  23132201.54506 -10832486.33006  -8440885.30109  23132070.66406  23132075.50706
  22726181.33906  11099456.18306   8648921.33309  22726049.77806  22726053.47806
  24924790.08606  16705233.83906  13017034.99009  24924659.69506  24924671.51606
  23774735.59606  -6869491.58206  -5352832.23309  23774603.88506  23774610.53106
  24571579.38206  -1537593.05106  -1198127.97409  24571448.58506  24571455.00506
  20555509.43706  -9354772.63206  -7289432.74509  20555378.13906  20555381.10906
 92  8 20 20 19  0.0000000  0  7 16 03 24 12 17 25 20
  21197950.84106  -9497405.03806  -7400565.74309  21197819.11906  21197822.59606
  23121038.00806 -10891151.03806  -8486598.01709  23120907.02006  23120911.84006
  22741491.00706  11179908.22106   8711611.18509  22741359.37206  22741363.15206
  24945273.12206  16812870.36806  13100907.20009  24945142.57706  24945154.50206
  23758107.21906  -6956872.09906  -5420920.82409  23757975.74406  23757982.33606
  24572293.64706  -1533836.72106  -1195201.00909  24572162.97806  24572169.72706
  20553518.40806  -9365235.46606  -7297585.61009  20553387.11106  20553390.11706
 92  8 20 20 19 30.0000000  0  7 16 03 24 12 17 25 20
  21195816.58106  -9508619.85506  -7409304.53709  21195684.99506  21195688.47306
  23109870.50706 -10949836.07306  -8532326.57409  23109739.47706  23109744.42206
  22756808.32406  11260401.69406   8774333.32009  22756676.77306  22756680.54406
  24965735.07606  16920397.48706  13184694.18609  24965604.52306  24965616.56506
  23741509.76406  -7044092.05106  -5488884.29409  23741378.22006  23741384.82806
  24573096.93606  -1529616.20106  -1191912.32709  24572966.59706  24572972.57206
  20551631.50706  -9375151.16806  -7305312.14109  20551500.24006  20551503.22906
 92  8 20 20 20  0.0000000  0  7 16 03 24 12 17 25 20
  21193785.60806  -9519293.13806  -7417621.35609  21193653.92906  21193657.38206
  23098700.78306 -11008533.88706  -8578065.08909  23098569.63706  23098574.38006
  22772137.68106  11340957.42906   8837103.97709  22772005.99506  22772009.73106
  24986177.89606  17027820.04206  13268399.66809  24986046.72706  24986058.88606
  23724941.10806  -7131161.20106  -5556730.25709  23724809.39606  23724816.18606
  24573991.27006  -1524912.35606  -1188247.05809  24573861.64206  24573867.95806
  20549850.46406  -9384510.87206  -7312605.42609  20549719.16906  20549722.10206
 92  8 20 20 20 30.0000000  0  7 16 03 24 12 17 25 20
  21191859.40006  -9529414.99206  -7425508.49009  21191727.83006  21191731.26106
  23087530.18106 -11067235.93506  -8623806.90209  23087399.00106  23087403.82606
  22787476.28606  11421563.33406   8899913.73009  22787344.85406  22787348.63106
  25006601.58506  17135143.50106  13352027.93509  25006469.99606  25006482.22506
  23708402.35506  -7218071.75206  -5624452.63309  23708270.53606  23708277.48506
  24574979.95506  -1519728.75006  -1184207.93609  24574848.38306  24574854.56806
  20548176.97306  -9393305.56006  -7319458.43909  20548045.63606  20548048.56706
 92  8 20 20 21  0.0000000  0  7 16 03 24 12 17 25 20
  21190038.48506  -9538984.65706  -7432965.35109  21189906.79406  21189910.20406
  23076357.35206 -11125949.02706  -8669557.31809  23076226.22606  23076231.02106
  22802821.02506  11502199.36706   8962746.95609  22802689.42906  22802693.24006
  25027003.79706  17242358.15206  13435571.42409  25026872.54006  25026884.85606
  23691892.78206  -7304827.26406  -5692054.19909  23691761.51306  23691768.29306
  24576053.13906  -1514088.01806  -1179812.60609  24575922.02006  24575927.76506
  20546609.83006  -9401541.01006  -7325875.68109  20546478.48006  20546481.41706
 92  8 20 20 21 30.0000000  4  1
 -2439737.0000 -4645851.0000  3615005.0000                  APPROX POSITION XYZ
 92  8 20 20 21 30.0000000  0  7 16 03 24 12 17 25 20
  21188319.77906  -9548016.58706  -7440003.20109  21188188.01206  21188191.40706
  23065182.32806 -11184674.75906  -8715317.59009  23065051.20906  23065055.91706
  22818169.27706  11582854.45606   9025595.02609  22818037.66706  22818041.41906
  25047384.68806  17349459.36106  13519026.50709  25047253.52106  25047266.02306
  23675411.24106  -7391438.03706  -5759542.98709  23675280.00606  23675286.67806
  24577213.61706  -1507991.84506  -1175062.40409  24577082.02206  24577088.05606
  20545148.85506  -9409217.97206  -7331857.74109  20545017.58306  20545020.56606
 92  8 20 20 22  0.0000000  0  7 16 03 24 12 17 25 20
  21186696.20806  -9556548.39506  -7446651.35109  21186564.47706  21186567.86106
  23053998.26106 -11243447.25906  -8761114.30409  23053867.20306  23053871.98106
  22833513.87706  11663491.39206   9088428.94609  22833382.33606  22833386.15106
  25067737.31206  17456409.75906  13602364.07709  25067605.83106  25067618.53506
  23658953.56906  -7477925.17406  -5826935.43509  23658821.85606  23658828.45606
  24578451.71706  -1501486.26906  -1169993.16609  24578319.98606  24578325.88906
  20543787.77506  -9416370.48206  -7337431.13609  20543656.48506  20543659.48706
 92  8 20 20 22 30.0000000  0  7 16 03 24 12 17 20 25
  21185170.69606  -9564565.20806  -7452898.20509  21185038.88006  21185042.31706
  23042806.31306 -11302261.49406  -8806943.53409  23042675.17706  23042679.98506
  22848857.50606  11744123.42106   9151259.04409  22848726.06606  22848729.97206
  25088061.64406  17563211.66706  13685585.93009  25087929.95906  25087942.46206
  23642525.41806  -7564257.07306  -5894206.92309  23642393.44806  23642400.01006
  20542527.66706  -9422992.30906  -7342591.01009  20542396.41106  20542399.42306
  24579769.53606  -1494558.08006  -1164594.62209  24579638.19706  24579644.31006
 92  8 20 20 23  0.0000000  0  7 16 03 24 12 17 25 20
  21183748.38906  -9572039.25406  -7458722.12809  21183616.69706  21183620.11406
  23031613.33506 -11361081.57606  -8852777.32009  23031482.03306  23031486.82206
  22864210.94706  11824804.48806   9214127.35509  22864079.35406  22864083.24006
  25108363.32306  17669897.82606  13768717.59009  25108231.96106  25108244.73006
  23626136.18706  -7650382.10606  -5961317.22109  23626004.45506  23626010.97206
  24581178.07706  -1487158.88006  -1158829.07709  24581046.32906  24581052.21606
  20541375.48806  -9429047.41706  -7347309.28609  20541244.23006  20541247.15606
 92  8 20 20 23 30.0000000  0  7 16 03 24 12 17 25 20
  21182429.56006  -9578969.48106  -7464122.29009  21182297.83906  21182301.30706
  23020421.40006 -11419893.75106  -8898604.94509  23020290.32106  23020295.17106
  22879575.99306  11905548.04106   9277044.35709  22879444.39106  22879448.23506
  25128645.15206  17776479.04206  13851767.46709  25128514.03406  25128526.87306
  23609788.83106  -7736286.34506  -6028255.47109  23609657.28206  23609663.72906
  24582680.38106  -1479263.63306  -1152676.98909  24582549.09006  24582554.87006
  20540333.87906  -9434521.25306  -7351574.62309  20540202.58506  20540205.53606
 92  8 20 20 24  0.0000000  0  7 16 03 24 12 17 25 20
  21181215.31806  -9585350.11906  -7469094.20209  21181083.60606  21181087.05806
  23009230.59406 -11478700.44106  -8944428.29609  23009099.66206  23009104.59406
  22894954.59906  11986363.86906   9340017.67609  22894823.11206  22894827.04206
  25148905.78606  17882949.87806  13934731.31809  25148774.95106  25148787.97906
  23593485.55506  -7821959.60206  -6095013.72209  23593354.00206  23593360.62706
  24584274.91806  -1470879.88806  -1146144.23709  24584144.54606  24584150.72306
  20539402.50506  -9439415.62106  -7355388.42509  20539271.22006  20539274.20406
 92  8 20 20 24 30.0000000  0  6 16 03 24 17 25 20
  21180105.99206  -9591180.75306  -7473637.54509  21179974.15406  21179977.47606
  22998038.14906 -11537516.05906  -8990258.60609  22997907.27106  22997912.20006
  22910340.91206  12067218.83706   9403021.49209  22910209.33106  22910213.31006
  23577219.36806  -7907438.57606  -6161620.58709  23577087.73206  23577094.37606
  24585961.19106  -1462022.19906  -1139242.21609  24585830.00006  24585836.11506
  20538578.83906  -9443744.05206  -7358761.24109  20538447.52006  20538450.53906
 92  8 20 20 25  0.0000000  0  6 16 03 24 17 25 20
  21179103.26606  -9596449.57906  -7477743.11609  21178971.45906  21178974.87006
  22986845.90506 -11596333.48006  -9036090.32709  22986714.73706  22986719.53906
  22925731.74906  12148098.44206   9466044.50609  22925600.27006  22925604.19806
  23560988.38306  -7992732.32006  -6228083.11909  23560856.87506  23560863.44706
  24587734.86706  -1452701.80006  -1131979.65009  24587604.03406  24587609.85406
  20537864.16006  -9447499.15806  -7361687.31009  20537732.96606  20537735.99706
 92  8 20 20 25 30.0000000  0  6 16 03 24 17 25 20
  21178212.58406  -9601130.03706  -7481390.21909  21178080.80806  21178084.25306
  22975656.01006 -11655137.33806  -9081911.47709  22975524.88406  22975529.55006
  22941129.59006  12229014.14606   9529095.65109  22940998.05506  22941002.01106
  23544793.88106  -8077835.65206  -6294397.27809  23544662.20506  23544668.72206
  24589601.89906  -1442897.23106  -1124339.80309  24589469.99306  24589475.67006
  20537261.73506  -9450665.18706  -7364154.36009  20537130.47906  20537133.55306
 92  8 20 20 26  0.0000000  0  6 16 03 24 17 25 20
  21177437.44206  -9605202.78106  -7484563.77509  21177305.70706  21177309.13606
  22964469.38806 -11713924.24506  -9127719.42609  22964338.12706  22964342.74806
  22956536.52106  12309978.41106   9592184.63209  22956405.15406  22956409.08006
  23528635.17906  -8162749.54306  -6360563.82609  23528503.39806  23528510.01706
  24591560.58506  -1432605.19406  -1116320.09409  24591428.40806  24591433.58806
  20536772.16306  -9453238.29306  -7366159.39009  20536640.85806  20536643.92306
 92  8 20 20 26 30.0000000  0  6 16 03 24 17 25 20
  21176776.42306  -9608676.63906  -7487270.66409  21176644.66306  21176648.13606
  22953285.07906 -11772695.93006  -9173515.50409  22953154.09406  22953158.85106
  22971950.67206  12390980.00006   9655302.69509  22971819.23606  22971823.20806
  23512511.67806  -8247476.77606  -6426584.92409  23512380.31006  23512386.80506
  24593611.19306  -1421824.71506  -1107919.76409  24593479.86806  24593484.94106
  20536395.12706  -9455219.71806  -7367703.36909  20536263.81406  20536266.88506
 92  8 20 20 27  0.0000000  0  6 16 03 24 17 25 20
  21176232.82306  -9611533.45706  -7489496.73909  21176101.05006  21176104.50606
  22942110.23406 -11831421.45306  -9219275.61109  22941978.90306  22941983.69906
  22987382.09706  12472071.63406   9718490.92909  22987250.47406  22987254.41906
  23496433.02106  -8331970.28606  -6492423.91009  23496301.71106  23496307.94006
  24595763.83006  -1410515.37606  -1099107.35009  24595632.13006  24595636.50506
  20536136.52906  -9456578.58406  -7368762.23509  20536005.23306  20536008.31306
 92  8 20 20 27 30.0000000  0  6 16 03 24 17 25 20
  21175811.54306  -9613747.18206  -7491221.70809  21175679.78406  21175683.21406
  22930948.18806 -11890076.44106  -9264980.75309  22930817.22206  22930821.89006
  23002836.07706  12553283.53106   9781772.87209  23002704.61006  23002708.61906
  23480402.86306  -8416210.60606  -6558065.60809  23480271.06506  23480277.47306
  24598021.35506  -1398650.18506  -1089861.79709  24597890.06806  24597894.60806
  20536001.10206  -9457289.94906  -7369316.55609  20535869.86606  20535872.93306
 92  8 20 20 28  0.0000000  0  6 16 03 24 17 25 20
  21175511.59806  -9615323.64506  -7492450.11109  21175379.73206  21175383.15506
  22919800.30606 -11948659.09306  -9310629.52509  22919669.30006  22919673.90506
  23018310.31706  12634602.01406   9845137.86609  23018179.01706  23018183.07206
  23464418.82306  -8500207.74706  -6623517.81009  23464286.95706  23464293.16406
  24600381.97806  -1386246.79306  -1080196.84409  24600250.36706  24600255.16606
  20535989.44906  -9457351.38606  -7369364.43909  20535858.18906  20535861.21406
 92  8 20 20 28 30.0000000  0  6 16 03 24 17 25 20
  21175327.27606  -9616293.10906  -7493205.52709  21175195.33706  21175198.78506
  22908662.84906 -12007187.72206  -9356236.20209  22908531.61606  22908536.22506
  23033799.00106  12715994.91606   9908560.85209  23033667.61806  23033671.59706
  23448476.29806  -8583983.90006  -6688797.81109  23448344.73106  23448351.11906
  24602839.18206  -1373336.17406  -1070136.68109  24602707.32606  24602712.54406
  20536097.96006  -9456781.55006  -7368920.42009  20535966.59006  20535969.64406
 92  8 20 20 29  0.0000000  0  6 16 03 24 17 25 20
  21175255.22006  -9616670.76606  -7493499.79409  21175123.45006  21175126.89306
  22897533.10106 -12065674.62806  -9401810.36809  22897401.95606  22897406.43306
  23049298.99406  12797446.63706   9972029.68109  23049167.51906  23049171.44006
  23432574.05606  -8667549.34206  -6753913.61909  23432442.81806  23432448.93606
  24605390.25606  -1359932.75006  -1059692.50309  24605257.58306  24605263.21106
  20536324.22206  -9455592.12906  -7367993.61009  20536192.98306  20536196.01306
 92  8 20 20 29 30.0000000  0  6 16 03 24 17 25 20
  21175296.60606  -9616452.76506  -7493329.91509  21175164.80206  21175168.23106
  22886411.13406 -12124120.29906  -9447352.40309  22886280.02306  22886284.64806
  23064807.48506  12878945.32706  10035535.10409  23064676.18906  23064680.14606
  23416712.30606  -8750904.02506  -6818865.20009  23416580.73606  23416587.03306
  24608029.56706  -1346051.18806  -1048875.77609  24607899.06406  24607905.23506
  20536668.40906  -9453783.64606  -7366584.41709  20536537.12406  20536540.20206
 92  8 20 20 30  0.0000000  0  6 16 03 24 17 25 20
  21175449.67206  -9615648.50406  -7492703.20309  21175317.92806  21175321.33406
  22875296.71006 -12182527.19506  -9492864.22509  22875165.55506  22875170.14206
  23080325.45706  12960490.90206  10099077.05909  23080193.88706  23080197.79706
  23400891.58006  -8834042.18206  -6883648.06209  23400759.91806  23400766.09206
  24610762.36106  -1331701.15906  -1037694.03409  24610629.96706  24610636.23306
  20537129.95606  -9451358.14806  -7364694.43509  20536998.70106  20537001.75906
 92  8 20 20 30 30.0000000  0  5 16 03 24 17 20
  21175711.21306  -9614273.99406  -7491632.14509  21175579.48206  21175582.93306
  22864186.86806 -12240909.93706  -9538357.22309  22864055.60806  22864060.36006
  23095852.33106  13042084.72006  10162656.61209  23095720.60106  23095724.64606
  23385113.28906  -8916957.05106  -6948256.93109  23384981.82306  23384987.92306
  20537706.11806  -9448330.38706  -7362335.15409  20537574.84706  20537577.93806
 92  8 20 20 31  0.0000000  0  5 16 03 24 17 20
  21176084.46106  -9612312.47506  -7490103.68009  21175952.75206  21175956.17406
  22853082.88906 -12299260.97106  -9583825.51709  22852951.74106  22852956.48006
  23111390.01206  13123736.92306  10226281.65809  23111258.50206  23111262.55106
  23369381.13706  -8999630.84506  -7012677.95209  23369249.39906  23369255.52506
  20538398.32306  -9444692.59906  -7359500.52809  20538267.09206  20538270.19806
 92  8 20 20 31 30.0000000  0  6 16 03 24 17 20 12
  21176578.87206  -9609714.67406  -7488079.41009  21176447.03806  21176450.50306
  22841992.58706 -12357541.32206  -9629238.73809  22841861.38306  22841866.04506
  23126948.65506  13205498.81906  10289992.17709  23126817.24806  23126821.44506
  23353699.97206  -9082035.54006  -7076889.28809  23353568.15806  23353574.15306
  20539214.24606  -9440405.57706  -7356160.00409  20539082.93706  20539086.01506
  25450410.25816        -0.92616        -0.75419  25450279.68616  25450293.93616
 92  8 20 20 32  0.0000000  0  7 16 03 24 17 26 20 12
  21177201.95006  -9606440.35806  -7485527.98409  21177070.17006  21177073.58506
  22830922.26706 -12415715.26806  -9674569.05109  22830791.19106  22830795.86306
  23142535.78106  13287408.82706  10353818.10609  23142404.28806  23142408.41506
  23338077.99606  -9164128.02306  -7140857.34609  23337946.34506  23337952.38306
  25600745.33016        -0.32116        -0.02219  25600613.62316  25600626.44616
  20540160.38806  -9435433.70506  -7352285.83209  20540029.02306  20540032.13706
  25470361.84806    104842.13706     81694.59309  25470230.94206  25470245.40806
 92  8 20 20 32 30.0000000  0  6 16 03 24 17 12 20
  21177956.37306  -9602475.50306  -7482438.48109  21177824.61606  21177828.01006
  22819872.71306 -12473781.28706  -9719815.26609  22819741.60706  22819746.28206
  23158151.55306  13369467.92406  10417760.20409  23158019.76506  23158023.80506
  23322517.52206  -9245897.95406  -7204574.07309  23322385.96706  23322392.02706
  25490302.97806    209626.69506    163344.34909  25490171.10406  25490186.39206
  20541237.07706  -9429775.42106  -7347876.79609  20541105.75406  20541108.87006
 92  8 20 20 33  0.0000000  0  6 16 03 24 17 12 20
  21178847.35306  -9597793.21406  -7478789.94509  21178715.60506  21178719.07806
  22808847.77006 -12531717.69106  -9764960.49109  22808716.63406  22808721.35906
  23173799.08706  13451695.73006  10481833.75609  23173667.37106  23173671.31306
  23307019.48706  -9327339.90706  -7268035.24509  23306887.96706  23306894.05306
  25510235.39106    314371.12506    244962.87809  25510103.82706  25510118.73906
  20542448.51806  -9423409.54006  -7342916.39109  20542317.16806  20542320.29206
 92  8 20 20 33 30.0000000  0  6 16 03 24 17 20 12
  21179873.96106  -9592398.35906  -7474586.16609  21179742.20506  21179745.66206
  22797847.66306 -12589523.01806  -9810003.58409  22797716.47206  22797721.33406
  23189478.71506  13534094.09006  10546040.18809  23189347.14706  23189351.23306
  23291582.30006  -9408463.53006  -7331248.38409  23291450.70206  23291456.66606
  20543794.88906  -9416334.16306  -7337403.14509  20543663.61206  20543666.72306
  25530160.04506    419073.91706    326548.82009  25530028.69106  25530043.42706
 92  8 20 20 34  0.0000000  0  6 16 03 24 17 12 20
  21181028.70906  -9586330.61806  -7469858.06309  21180896.85406  21180900.26806
  22786867.98906 -12647220.40706  -9854962.56909  22786736.99506  22786741.80906
  23205182.42806  13616616.74606  10610343.47309  23205050.75406  23205055.00306
  23276201.34006  -9489290.00906  -7394229.98009  23276069.78806  23276075.79506
  25550071.94606    523708.55206    408081.67609  25549940.27006  25549955.94206
  20545271.78606  -9408573.08806  -7331355.58509  20545140.54206  20545143.67706
 92  8 20 20 34 30.0000000  0  6 16 03 24 17 12 20
  21182301.25806  -9579643.05006  -7464646.97709  21182169.53706  21182172.98406
  22775901.78706 -12704849.95606  -9899868.69109  22775770.58906  22775775.25606
  23220899.87206  13699211.84906  10674703.21009  23220768.16106  23220772.44906
  23260865.79106  -9569879.85306  -7457027.17809  23260734.04106  23260739.97006
  25569962.75506    628232.84606    489528.56809  25569831.18706  25569846.39806
  20546871.76206  -9400166.07506  -7324804.69709  20546740.35406  20546743.51306
 92  8 20 20 35  0.0000000  0  6 16 03 24 17 12 20
  21183681.02106  -9572392.75506  -7458997.39409  21183549.24606  21183552.66206
  22764938.47006 -12762461.69406  -9944760.93009  22764807.43506  22764812.08706
  23236618.54506  13781815.13506  10739069.32909  23236487.06806  23236491.33206
  23245565.42406  -9650282.37606  -7519678.40809  23245433.99406  23245439.75806
  25589822.07406    732593.10106    570847.58209  25589690.66606  25589706.33506
  20548584.78706  -9391163.77206  -7317789.94409  20548453.48106  20548456.61206
 92  8 20 20 35 30.0000000  0  6 16 03 24 17 12 20
  21185159.06106  -9564624.66006  -7452944.32609  21185027.42506  21185030.89106
  22753969.46906 -12820105.12106  -9989677.84709  22753838.23806  22753842.84006
  23252324.74806  13864352.10106  10803383.77709  23252193.41306  23252197.64106
  23230294.33306  -9730530.97206  -7582209.68409  23230163.16006  23230168.99106
  25609640.77106    836737.10706    651998.19609  25609508.98406  25609525.04606
  20550401.85006  -9381615.41306  -7310349.68609  20550270.50606  20550273.61306
 92  8 20 20 36  0.0000000  0  6 16 03 24 17 12 20
  21186729.02206  -9556374.20506  -7446515.38809  21186597.39706  21186600.86606
  22742985.23606 -12877827.65406 -10034656.39909  22742854.08006  22742858.56906
  23268009.57006  13946775.85606  10867610.01609  23267878.13006  23267882.41906
  23215046.06506  -9810661.20306  -7644648.71009  23214914.74806  23214920.70106
  25629407.57206    940614.06206    732940.64509  25629276.67906  25629292.43906
  20552313.61806  -9371568.96706  -7302521.30309  20552182.28906  20552185.41606
 92  8 20 20 36 30.0000000  0  6 16 03 24 17 20 12
  21188401.41606  -9547586.28306  -7439667.64109  21188269.66206  21188273.10406
  22731992.63906 -12935593.22606 -10079668.49209  22731861.55906  22731866.11806
  23283682.16706  14029133.16406  10931784.48609  23283550.42006  23283554.58806
  23199830.55806  -9890619.55506  -7706953.80909  23199699.05006  23199704.86206
  20554327.01506  -9360988.37206  -7294276.69809  20554195.70006  20554198.86106
  25649130.84506   1044257.46406    813701.14009  25648999.76706  25649016.20306
 92  8 20 20 37  0.0000000  0  5 16 03 24 17 20
  21190187.27206  -9538201.45806  -7432354.77209  21190055.55906  21190058.97506
  22721002.50506 -12993346.53306 -10124671.02309  22720871.48506  22720876.04206
  23299352.75506  14111483.00406  10995953.13609  23299220.99606  23299225.29206
  23184661.10306  -9970335.65006  -7769070.14109  23184529.36406  23184535.18106
  20556452.45806  -9349818.98006  -7285573.28909  20556321.16506  20556324.31806
 92  8 20 20 37 30.0000000  0  5 16 03 24 17 20
  21192089.52206  -9528204.83806  -7424565.18109  21191957.80706  21191961.20906
  22710019.50506 -13051063.65606 -10169645.36209  22709888.23006  22709892.81906
  23315029.43506  14193865.02706  11060146.86509  23314897.77806  23314902.16706
  23169539.74806 -10049798.04406  -7830988.77709  23169408.17706  23169414.02806
  20558694.47106  -9338037.22706  -7276392.71409  20558563.17206  20558566.34306
 92  8 20 20 38  0.0000000  0  5 16 03 24 17 20
  21194105.44606  -9517611.70206  -7416310.77109  21193973.66906  21193977.02906
  22699044.25306 -13108737.92106 -10214586.29909  22698913.18606  22698917.63606
  23330718.41906  14276312.34906  11124391.48509  23330586.90906  23330591.45706
  23154466.38106 -10129009.56106  -7892711.92009  23154334.66406  23154340.44106
  20561054.33006  -9325636.80506  -7266730.05809  20560922.91306  20560926.07606
 92  8 20 20 38 30.0000000  0  6 16 03 24 17 12 20
  21196235.61706  -9506417.27606  -7407587.82209  21196103.88506  21196107.23006
  22688081.68906 -13166346.14506 -10259475.77609  22687950.55206  22687955.15506
  23346423.85906  14358845.80006  11188703.21909  23346292.64206  23346297.11406
  23139443.19706 -10207956.28006  -7954228.73609  23139311.51106  23139317.25206
  25727708.21916         0.26016        -0.31519  25727576.80816  25727593.20516
  20563535.98806  -9312595.54606  -7256568.04909  20563404.63106  20563407.75806
 92  8 20 20 39  0.0000000  0  5 16 03 24 17 20
  21198485.31606  -9494594.77206  -7398375.46409  21198353.63806  21198356.95706
  22677138.59506 -13223853.12906 -10304286.36509  22677007.34406  22677011.94606
  23362154.47506  14441510.55106  11253117.26209  23362023.18806  23362027.72306
  23124472.88306 -10286625.48506  -8015529.31009  23124341.30706  23124346.87706
  20566146.39106  -9298878.09706  -7245879.14209  20566014.97606  20566018.13506
 92  8 20 20 39 30.0000000  0  5 16 03 24 17 20
  21200857.51706  -9482129.16806  -7388661.99409  21200725.80306  21200729.12006
  22666215.12206 -13281254.85006 -10349014.93509  22666084.13106  22666088.66706
  23377911.15406  14524311.61006  11317637.51009  23377779.87606  23377784.33506
  23109556.27706 -10365012.60706  -8076610.08809  23109424.72706  23109430.23006
  20568885.83706  -9284481.25606  -7234660.84309  20568754.59406  20568757.80106
 92  8 20 20 40  0.0000000  0  5 16 03 24 17 20
  21203347.24506  -9469045.30506  -7378466.76109  21203215.43406  21203218.84606
  22655305.84406 -13338583.71506 -10393686.72909  22655174.70806  22655179.28206
  23393684.69106  14607200.72206  11382226.36909  23393553.10706  23393557.59106
  23094687.99506 -10443145.04306  -8137492.40909  23094556.44606  23094562.04406
  20571748.53606  -9269438.21506  -7222939.01309  20571617.18606  20571620.38906
 92  8 20 20 40 30.0000000  0  6 16 03 24 17 12 20
  21205948.92306  -9455373.47206  -7367813.37109  21205817.08106  21205820.48506
  22644401.88906 -13395884.68206 -10438336.78709  22644270.71606  22644275.09506
  23409462.82106  14690114.33806  11446834.33209  23409331.25906  23409335.55506
  23079861.33506 -10521058.29706  -8198203.93409  23079730.00006  23079735.56206
  25805890.20316        -0.76816        -0.40419  25805759.31316  25805776.59716
  20574725.56306  -9253794.13406  -7210748.83809  20574594.19906  20574597.35506
 92  8 20 20 41  0.0000000  0  6 16 03 24 17 12 20
  21208659.13706  -9441131.32506  -7356715.58609  21208527.29306  21208530.67806
  22633498.87306 -13453179.75206 -10482982.25109  22633367.73306  22633372.26906
  23425240.84906  14773027.16806  11511441.68009  23425109.02106  23425113.29006
  23065074.81906 -10598762.85706  -8258752.84709  23064943.27006  23064948.73506
  25825351.05606    102264.04806     79686.25109  25825219.62706  25825237.06406
  20577812.63706  -9237571.69406  -7198107.99509  20577681.24906  20577684.40906
 92  8 20 20 41 30.0000000  0  5 16 03 24 17 20
  21211477.77606  -9426319.12306  -7345173.60709  21211345.96506  21211349.38106
  22622598.78406 -13510459.73306 -10527615.95109  22622467.68406  22622472.32906
  23441016.91506  14855930.92706  11576041.95909  23440885.33606  23440889.43806
  23050331.48406 -10676239.64906  -8319124.28309  23050199.79506  23050205.31906
  20581011.41806  -9220762.27606  -7185009.76809  20580880.00406  20580883.14706
 92  8 20 20 42  0.0000000  0  6 16 03 24 17 12 20
  21214404.45806  -9410939.13006  -7333189.19509  21214272.72506  21214276.12106
  22611705.17506 -13567706.54106 -10572223.81109  22611574.09206  22611578.50806
  23456794.64906  14938844.11306  11640649.58209  23456663.09306  23456667.52406
  23035633.65506 -10753478.59806  -8379310.39009  23035501.71606  23035507.24506
  25864157.40916         0.36016         0.13619  25864026.58416  25864043.65916
  20584325.07406  -9203348.63206  -7171440.71509  20584193.71506  20584196.88706
 92  8 20 20 42 30.0000000  0  5 16 03 24 17 20
  21217434.14306  -9395017.99306  -7320783.11109  21217302.41606  21217305.82106
  22600812.17806 -13624948.62306 -10616827.98209  22600681.12406  22600685.64706
  23472569.24006  15021740.11606  11705243.81409  23472437.78406  23472442.16806
  23020974.12806 -10830512.74406  -8439336.91209  23020842.48706  23020847.97606
  20587748.18806  -9185359.89006  -7157423.53309  20587616.87906  20587620.03706
 92  8 20 20 43  0.0000000  0  6 16 03 24 17 12 20
  21220566.83206  -9378555.17006  -7307954.93509  21220435.15306  21220438.54906
  22589918.15406 -13682196.79306 -10661436.89309  22589787.04206  22589791.65406
  23488339.39506  15104611.67106  11769818.99909  23488207.74606  23488212.13406
  23006348.56706 -10907370.58206  -8499226.05009  23006216.82006  23006222.29306
  25902798.67816        -0.11716        -0.03519  25902667.78516  25902684.72516
  20591278.68606  -9166807.69606  -7142967.29609  20591147.27406  20591150.43306
 92  8 20 20 43 30.0000000  0  5 16 03 24 17 20
  21223807.50406  -9361526.34606  -7294685.71509  21223675.67706  21223679.07406
  22579025.28706 -13739439.01606 -10706041.17209  22578894.22506  22578898.70006
  23504106.71306  15187469.36106  11834383.37909  23503974.96306  23503979.42006
  22991756.26606 -10984053.01206  -8558978.50309  22991624.66806  22991630.08906
  20594918.32206  -9147681.30506  -7128063.63509  20594786.95606  20594790.08306
 92  8 20 20 44  0.0000000  0  5 16 03 24 17 20
  21227156.26506  -9343928.81806  -7280973.35109  21227024.35206  21227027.74506
  22568132.30206 -13796681.49406 -10750645.65509  22568001.27106  22568005.71506
  23519870.61306  15270310.15706  11898934.59609  23519738.99706  23519743.53406
  22977197.73806 -11060557.71406  -8618592.46409  22977066.05206  22977071.59006
  20598665.97006  -9127987.28106  -7112717.66309  20598534.57906  20598537.76206
 92  8 20 20 44 30.0000000  0  5 16 03 24 17 20
  21230610.23606  -9325777.64906  -7266829.57509  21230478.38606  21230481.84206
  22557235.41706 -13853945.81206 -10795267.15509  22557104.23206  22557108.64906
  23535627.82706  15353113.96506  11963456.98709  23535496.08706  23535500.63406
  22962672.22406 -11136889.29506  -8678071.52609  22962540.56706  22962546.09706
  20602517.38006  -9107747.92606  -7096946.75809  20602386.02006  20602389.18306
 92  8 20 20 45  0.0000000  0  5 16 03 24 17 20
  21234165.20206  -9307095.78306  -7252272.27009  21234033.43306  21234036.80106
  22546333.00706 -13911238.45106 -10839910.72809  22546201.86606  22546206.25106
  23551377.46906  15435879.66106  12027949.68409  23551245.89106  23551250.45306
  22948181.69406 -11213037.36806  -8737407.60109  22948050.21206  22948055.53506
  20606471.15606  -9086970.49106  -7080756.57009  20606339.83806  20606343.02606
 92  8 20 20 45 30.0000000  0  5 16 03 24 17 20
  21237812.53606  -9287929.03106  -7237337.13109  21237680.71406  21237684.02306
  22535421.97506 -13968576.38806 -10884589.60109  22535290.85206  22535295.11806
  23567116.55706  15518589.23306  12092398.65009  23566985.02606  23566989.67206
  22933727.64906 -11288993.91006  -8796594.43209  22933596.05706  22933601.42706
  20610523.89906  -9065673.48806  -7064161.52509  20610392.52406  20610395.75206
 92  8 20 20 46  0.0000000  0  5 16 03 24 17 20
  21241540.14506  -9268340.48106  -7222073.32009  21241408.35806  21241411.63206
  22524493.24206 -14026005.87606 -10929339.81109  22524362.25006  22524366.75406
  23582836.08106  15601195.75006  12156767.31509  23582704.65206  23582709.23406
  22919302.58706 -11364799.07006  -8855663.29909  22919170.77606  22919176.14906
  20614666.53206  -9043904.04806  -7047198.34509  20614535.17306  20614538.34106
 92  8 20 20 46 30.0000000  0  5 16 03 24 17 20
  21245353.22506  -9248302.02206  -7206458.93109  21245221.51106  21245224.74806
  22513553.42906 -14083495.14306 -10974136.60409  22513422.32706  22513426.78506
  23598542.94706  15683734.86606  12221083.45909  23598411.27806  23598415.87906
  22904908.55206 -11440438.74606  -8914603.22109  22904776.91006  22904782.23506
  20618904.89606  -9021631.54006  -7029843.16309  20618773.50006  20618776.69806
 92  8 20 20 47  0.0000000  0  5 16 03 24 17 20
  21249259.13106  -9227776.86306  -7190465.29109  21249127.33206  21249130.65706
  22502607.86106 -14141014.59206 -11018956.91609  22502476.74806  22502481.11606
  23614239.11506  15766219.18206  12285356.90709  23614107.70106  23614112.23906
  22890546.83706 -11515909.46606  -8973411.48709  22890415.25106  22890420.61206
  20623244.32406  -8998827.47006  -7012073.77809  20623112.97906  20623116.16106
 92  8 20 20 47 30.0000000  0  5 16 03 24 17 20
  21253257.53006  -9206764.87506  -7174092.30009  21253125.81406  21253129.10706
  22491653.80106 -14198578.27906 -11063811.70209  22491522.70206  22491527.08706
  23629920.78906  15848626.01006  12349569.97609  23629789.17906  23629793.72506
  22876209.02306 -11591255.11006  -9032122.28809  22876077.37506  22876082.71006
  20627682.05406  -8975507.10906  -6993902.08909  20627550.68106  20627553.93906
 92  8 20 20 48  0.0000000  0  5 16 03 24 17 20
  21257354.20306  -9185236.35706  -7157316.81509  21257222.48106  21257225.78206
  22480695.75206 -14256162.79906 -11108682.71909  22480564.70806  22480569.05406
  23645591.79406  15930976.75006  12413739.34209  23645460.13906  23645464.57506
  22861896.07506 -11666468.77806  -9090730.25409  22861764.61406  22861770.00006
  20632222.33306  -8951647.73706  -6975310.39409  20632090.95606  20632094.22206
 92  8 20 20 48 30.0000000  0  6 16 03 24 17 26 20
  21261556.57006  -9163153.07506  -7140109.04909  21261424.78306  21261428.05706
  22469740.35806 -14313734.30106 -11153543.59409  22469609.17506  22469613.53706
  23661255.88406  16013292.71906  12477881.60309  23661124.26906  23661128.84806
  22847615.86806 -11741512.19706  -9149205.55409  22847484.22106  22847489.55906
  25158429.43416        -0.83116        -0.40919  25158297.70816  25158308.00716
  20636871.46406  -8927216.73506  -6956273.27409  20636740.08106  20636743.34306
 92  8 20 20 49  0.0000000  0  5 16 03 24 17 20
  21265871.75706  -9140476.78206  -7122439.20009  21265739.98106  21265743.24506
  22458795.03706 -14371252.65706 -11198363.05409  22458663.80306  22458668.11506
  23676920.02206  16095607.69806  12542023.09509  23676788.32806  23676792.88606
  22833379.03306 -11816328.48506  -9207503.87109  22833247.12206  22833252.41406
  20641636.74706  -8902175.15306  -6936760.37609  20641505.34306  20641508.57006
 92  8 20 20 49 30.0000000  0  6 16 03 24 17 26 20
  21270301.69306  -9117197.83406  -7104299.75309  21270169.83506  21270173.04506
  22447861.99306 -14428706.34406 -11243132.12509  22447730.72806  22447735.05506
  23692589.49306  16177950.68806  12606186.41009  23692457.68506  23692462.27406
  22819192.84506 -11890877.05906  -9265593.58309  22819060.99206  22819066.19106
  25130574.28216        -0.78316        -0.08019  25130443.19016  25130453.73916
  20646520.12506  -8876513.13406  -6916764.02309  20646388.71106  20646391.94206
 92  8 20 20 50  0.0000000  0  6 16 03 24 26 17 20
  21274842.12806  -9093337.85306  -7085707.55109  21274710.16106  21274713.40806
  22436937.20806 -14486116.73006 -11287867.44809  22436805.89506  22436810.12806
  23708260.50006  16260302.78006  12670356.82109  23708128.93406  23708133.47306
  25116620.17506    -73330.95906    -57140.24709  25116488.74106  25116500.12706
  22805058.31206 -11965151.97106  -9323470.04809  22804926.81806  22804932.03806
  20651517.19206  -8850253.19906  -6896301.75609  20651385.83306  20651389.05506
 92  8 20 20 50 30.0000000  0  6 16 03 24 17 26 20
  21279486.85906  -9068928.63906  -7066687.37209  21279355.09406  21279358.33506
  22426011.61706 -14543531.14306 -11332605.90609  22425880.29906  22425884.55006
  23723925.84506  16342623.91306  12734503.10709  23723794.10306  23723798.62306
  22790967.02706 -12039201.39806  -9381170.81609  22790835.65406  22790840.76306
  25102639.45306   -146800.18206   -114388.82609  25102508.06406  25102518.44906
  20656618.75106  -8823444.05206  -6875411.53309  20656487.42006  20656490.67706
 92  8 20 20 51  0.0000000  0  6 16 03 24 17 26 20
  21284232.63206  -9043989.05306  -7047253.91509  21284100.85706  21284104.15306
  22415082.99106 -14600960.80906 -11377356.25009  22414951.78006  22414955.90106
  23739586.11406  16424919.05006  12798629.13609  23739454.28206  23739458.89806
  22776916.36006 -12113038.37906  -9438706.04309  22776784.76406  22776789.94806
  25088631.06906   -220410.25506   -171747.12409  25088499.59406  25088511.60306
  20661822.52106  -8796098.49306  -6854103.32609  20661691.16706  20661694.40406
 92  8 20 20 51 30.0000000  4  1
 -2439737.0000 -4645851.0000  3615005.0000                  APPROX POSITION XYZ
 92  8 20 20 51 30.0000000  0  7 16 03 24 17 26 23 20
  21289085.71206  -9018485.96906  -7027381.37109  21288953.95406  21288957.26506
  22404157.57806 -14658374.15806 -11422093.87809  22404026.32006  22404030.46006
  23755246.76706  16507215.84406  12862756.44809  23755115.00206  23755119.53906
  22762910.49706 -12186639.38706  -9496057.39409  22762778.83306  22762784.13006
  25074605.17306   -294119.03306   -229182.50009  25074473.87506  25074484.32406
  25584153.70816        -0.69416        -0.22419  25584021.29716  25584036.76816
  20667134.04206  -8768186.07606  -6832353.41209  20667002.74806  20667005.98306
 92  8 20 20 52  0.0000000  0  7 16 03 24 17 26 23 20
  21294045.68706  -8992421.73906  -7007071.57409  21293913.88206  21293917.12806
  22393237.88106 -14715757.36306 -11466808.01609  22393106.63906  22393110.82706
  23770909.18206  16589521.15506  12926890.40409  23770777.37906  23770781.78906
  22748947.22706 -12260016.08306  -9553233.95709  22748815.76606  22748820.94706
  25060562.29806   -367912.05206   -286683.22809  25060430.88406  25060442.20006
  25563539.35706   -108328.37606    -84411.04009  25563407.14206  25563422.60706
  20672555.82706  -8739694.50606  -6810152.21009  20672424.50606  20672427.75406
 92  8 20 20 52 30.0000000  0  7 16 03 24 17 26 23 20
  21299106.55206  -8965826.22906  -6986347.79309  21298974.72606  21298978.00806
  22382321.77806 -14773121.44006 -11511507.24909  22382190.58606  22382194.71206
  23786569.96606  16671819.62706  12991019.03209  23786438.30706  23786442.72806
  22735023.80506 -12333184.89906  -9610248.53109  22734892.12806  22734897.32306
  25046502.18806   -441798.10106   -344256.67009  25046370.81506  25046382.00006
  25542907.41806   -216749.18406   -168894.15609  25542774.78806  25542790.24206
  20678085.57906  -8710636.12906  -6787509.33809  20677954.13806  20677957.41206
 92  8 20 20 53  0.0000000  0  7 16 03 24 17 26 23 20
  21304267.87306  -8938703.50806  -6965213.20009  21304136.09606  21304139.32606
  22371410.25906 -14830461.35906 -11556187.65709  22371279.09406  22371283.22206
  23802229.05706  16754108.06906  13055139.84409  23802097.22606  23802101.74006
  22721141.40306 -12406137.90606  -9667094.95209  22721009.73306  22721014.75006
  25032424.65306   -515781.17706   -401905.62009  25032292.95406  25032302.80706
  25522258.96906   -325252.14806   -253441.54709  25522126.73206  25522142.24706
  20683723.75206  -8681007.46406  -6764422.08809  20683592.28106  20683595.54906
 92  8 20 20 53 30.0000000  0  7 16 03 24 17 26 23 20
  21309532.81006  -8911035.49306  -6943653.70409  21309401.10306  21309404.28606
  22360505.06006 -14887767.86606 -11600842.03409  22360373.97506  22360378.16706
  23817885.87206  16836385.67806  13119252.21309  23817754.21206  23817758.67306
  22707301.94006 -12478864.58406  -9723765.01309  22707170.21206  22707175.22206
  25018327.72506   -589853.65406   -459624.18709  25018196.80706  25018207.72106
  25501598.97206   -433821.52406   -338040.37809  25501466.63606  25501481.49406
  20689471.69406  -8650801.03606  -6740884.63509  20689340.43606  20689343.67206
 92  8 20 20 54  0.0000000  0  6 16 03 24 17 26 20
  21314902.49406  -8882818.04206  -6921666.07309  21314770.65306  21314773.98806
  22349608.16406 -14945031.41906 -11645462.94209  22349477.09406  22349481.26206
  23833542.63106  16918661.29406  13183363.03509  23833410.73106  23833415.24506
  22693508.37506 -12551350.56606  -9780247.51709  22693376.45706  22693381.50806
  25004217.05706   -664006.55006   -517405.69409  25004085.63606  25004097.30406
  20695331.40606  -8620008.71006  -6716890.63809  20695200.00706  20695203.27806
 92  8 20 20 54 30.0000000  0  7 16 03 17 24 26 23 20
  21320383.57906  -8854015.01606  -6899222.15309  21320251.80106  21320255.08506
  22338724.07106 -15002227.61106 -11690031.36309  22338592.94506  22338597.09506
  22679766.83506 -12623561.43906  -9836515.65009  22679635.13206  22679640.16406
  23849202.23506  17000953.97206  13247487.14609  23849070.61906  23849075.01806
  24990096.84906   -738211.30406   -575227.34109  24989965.20306  24989975.02306
  25460266.53416        -0.05616         0.12419  25460133.89016  25460148.80116
  20701306.81606  -8588607.76506  -6692422.39509  20701175.44406  20701178.72706
 92  8 20 20 55  0.0000000  0  7 16 03 17 24 26 23 20
  21325978.78106  -8824611.90106  -6876310.63109  21325846.99206  21325850.30506
  22327852.77206 -15059357.16306 -11734547.85709  22327721.59606  22327725.65106
  22666077.17406 -12695499.95406  -9892571.54809  22665945.54306  22665950.60806
  23864865.82506  17083265.63306  13311626.05409  23864734.16706  23864738.42006
  24975966.99206   -812460.97406   -633084.09909  24975835.51906  24975846.69906
  25439603.69906   -108581.42806    -84608.26609  25439471.48906  25439486.33306
  20707397.67606  -8556600.15606  -6667481.42709  20707266.30706  20707269.57906
 92  8 20 20 55 30.0000000  0  7 16 03 17 24 26 23 20
  21331684.05406  -8794630.29506  -6852948.33809  21331552.23406  21331555.51506
  22316990.86906 -15116435.83606 -11779024.70709  22316859.85306  22316863.97106
  22652436.48606 -12767182.90306  -9948428.30909  22652304.72706  22652309.70806
  23880527.13606  17165568.35306  13375757.99009  23880395.68006  23880400.31906
  24961828.19406   -886758.08006   -690977.77709  24961697.22506  24961707.27906
  25418942.27006   -217155.32306   -169210.77609  25418810.20206  25418824.55206
  20713600.62006  -8524004.01006  -6642081.86109  20713469.17606  20713472.47206
 92  8 20 20 56  0.0000000  0  7 16 03 17 24 26 23 20
  21337500.06806  -8764066.88006  -6829132.68909  21337368.22506  21337371.53506
  22306140.99006 -15173452.74406 -11823453.42609  22306009.86806  22306013.89306
  22638844.17906 -12838610.58206 -10004086.15809  22638712.56106  22638717.48506
  23896188.74206  17247869.41406  13439888.63509  23896057.15206  23896061.76206
  24947683.82606   -961087.71306   -748896.81809  24947552.53306  24947563.61806
  25398284.38406   -325711.18406   -253799.29609  25398152.47206  25398166.63306
  20719917.29206  -8490809.88206  -6616216.33309  20719785.87706  20719789.11906
 92  8 20 20 56 30.0000000  0  6 16 03 17 24 26 20
  21343429.55706  -8732907.05706  -6804852.30609  21343297.71306  21343301.02406
  22295305.32906 -15230393.99306 -11867823.19109  22295174.24106  22295178.26106
  22625302.11106 -12909775.28706 -10059539.08609  22625170.38406  22625175.21706
  23911851.84206  17330180.83806  13504027.35409  23911720.32006  23911725.06906
  24933538.05406  -1035425.19406   -806821.99009  24933406.48906  24933416.42506
  20726350.03206  -8457005.88106  -6589875.58009  20726218.59006  20726221.85306
 92  8 20 20 57  0.0000000  0  6 16 03 17 24 26 20
  21349464.11106  -8701196.20006  -6780142.54309  21349332.15206  21349335.45806
  22284475.66706 -15287304.26106 -11912168.80909  22284344.57106  22284348.57106
  22611800.48806 -12980724.86506 -10114824.38309  22611668.99806  22611673.81506
  23927508.29406  17412455.47906  13568137.40809  23927376.76506  23927381.62006
  24919381.95506  -1109811.99506   -864785.59709  24919250.90806  24919261.64906
  20732889.90806  -8422638.44106  -6563095.78309  20732758.49006  20732761.76606
 92  8 20 20 57 30.0000000  0  6 16 03 17 24 26 20
  21355585.35906  -8669028.16306  -6755076.53409  21355453.49306  21355456.78506
  22273635.87906 -15344268.90606 -11956556.79909  22273504.59506  22273508.49306
  22598322.38006 -13051552.90906 -10170014.98009  22598190.65106  22598195.49206
  23943139.20706  17494596.89306  13632143.64709  23943007.81106  23943012.66906
  24905201.26306  -1184335.33106   -922855.60509  24905069.83406  24905080.22506
  20739520.46206  -8387794.71906  -6535944.85709  20739389.03406  20739392.32106
 92  8 20 20 58  0.0000000  0  7 16 03 17 24 26 23 20
  21361787.64006  -8636434.62106  -6729678.96609  21361655.83306  21361659.16106
  22262780.59306 -15401313.22706 -12001006.87209  22262649.38106  22262653.31006
  22584861.59306 -13122289.46506 -10225134.28209  22584729.81306  22584734.69006
  23958742.16206  17576590.39306  13696034.63409  23958610.76806  23958615.51606
  24890989.47106  -1259015.75106   -981047.95909  24890858.40006  24890868.67706
  25315584.62116         0.00916         0.13919  25315453.03316  25315466.91816
  20746236.55006  -8352501.59406  -6508443.74809  20746105.11506  20746108.39306
 92  8 20 20 58 30.0000000  0  7 16 03 17 24 26 23 20
  21368076.52506  -8603386.70006  -6703927.33609  21367944.60706  21367948.04606
  22251916.64006 -15458402.67606 -12045492.11109  22251785.48206  22251789.49406
  22571426.18506 -13192890.94606 -10280148.32909  22571294.64906  22571299.49506
  23974324.46506  17658475.74606  13759841.34609  23974193.09406  23974197.79506
  24876754.38806  -1333821.29606  -1039337.88509  24876623.04306  24876633.70906
  25294851.42606   -108952.77106    -84897.56609  25294719.58706  25294733.33506
  20753044.24306  -8316726.87406  -6480567.37109  20752912.84406  20752916.13206
 92  8 20 20 59  0.0000000  0  6 16 03 17 24 26 20
  21374458.38406  -8569849.07906  -6677794.12609  21374326.63606  21374329.92406
  22241051.50306 -15515499.22606 -12089982.88209  22240920.35606  22240924.33406
  22558026.09006 -13263309.33006 -10335019.70609  22557894.49306  22557899.39806
  23989893.49106  17740289.41106  13823592.20609  23989761.72406  23989766.61906
  24862500.90406  -1408725.38706  -1097704.59609  24862369.35006  24862379.39106
  20759950.58806  -8280433.97006  -6452287.21609  20759819.18506  20759822.48906
 92  8 20 20 59 30.0000000  0  6 16 03 17 24 26 20
  21380936.82406  -8535804.46406  -6651265.85509  21380805.06006  21380808.42806
  22230192.14906 -15572564.64806 -12134449.40409  22230061.05006  22230065.12306
  22544667.84306 -13333508.25806 -10389720.08509  22544536.10806  22544540.84706
  24005455.97406  17822071.44106  13887318.41409  24005324.43606  24005329.31906
  24848233.91206  -1483699.57906  -1156125.85609  24848102.40106  24848112.39406
  20766962.28506  -8243587.27006  -6423575.53109  20766830.93406  20766834.20506
 92  8 20 21  0  0.0000000  0  7 16 03 17 24 26 23 20
  21387522.38006  -8501198.14906  -6624299.89309  21387390.50706  21387393.83706
  22219350.61406 -15629537.73606 -12178843.97709  22219219.39306  22219223.56706
  22531364.57106 -13403417.15506 -10444194.46609  22531232.83206  22531237.58306
  24021026.94906  17903898.09906  13951079.40009  24020895.36306  24020900.28306
  24833963.22306  -1558690.88106  -1214560.50209  24833831.75206  24833842.15406
  25232566.82316        -0.48316         0.44519  25232434.85416  25232448.51816
  20774090.78106  -8206127.24006  -6394385.92709  20773959.34206  20773962.59706
 92  8 20 21  0 30.0000000  0  7 16 03 17 24 26 23 20
  21394222.34506  -8465988.78506  -6596864.01909  21394090.49606  21394093.82306
  22208533.26906 -15686383.31406 -12223139.19409  22208402.08506  22208406.14206
  22518124.12406 -13472995.75806 -10498411.47409  22517992.43206  22517997.15306
  24036613.60706  17985806.49706  14014904.07709  24036482.17206  24036487.07006
  24819694.35506  -1633670.68306  -1272986.13109  24819563.22206  24819573.13806
  25211812.13206   -109067.24006    -84986.10509  25211680.01606  25211693.27306
  20781342.16706  -8168020.75606  -6364692.59309  20781210.78106  20781214.07206
 92  8 20 21  1  0.0000000  0  7 16 03 17 24 26 23 20
  21401040.16006  -8430160.79606  -6568946.10109  21400908.39906  21400911.72606
  22197741.82006 -15743092.09706 -12267327.82109  22197610.61206  22197614.71706
  22504946.33706 -13542244.64106 -10552371.55409  22504814.61006  22504819.36206
  24052217.78206  18067806.93006  14078800.46709  24052086.23106  24052091.26906
  24805431.48406  -1708623.12806  -1331390.46609  24805300.05806  24805310.65006
  25191070.61406   -218061.42006   -169916.11009  25190938.52506  25190951.87106
  20788717.96206  -8129260.83106  -6334490.08409  20788586.59206  20788589.89906
 92  8 20 21  1 30.0000000  0  6 16 03 17 24 26 20
  21407975.12806  -8393717.38606  -6540548.63109  21407843.39606  21407846.70406
  22186978.14106 -15799655.52706 -12311403.18609  22186846.93406  22186851.00906
  22491831.25806 -13611163.53606 -10606074.50709  22491699.69906  22491704.39206
  24067842.74106  18149916.45706  14142781.85509  24067711.24806  24067716.34606
  24791176.72506  -1783530.17206  -1389759.40309  24791045.68206  24791055.72706
  20796219.35906  -8089840.96206  -6303773.33109  20796087.95306  20796091.24506
 92  8 20 21  2  0.0000000  0  5 16 03 17 24 20
  21415030.54606  -8356640.76106  -6511657.74909  21414898.84606  21414902.15806
  22176242.82606 -15856069.96606 -12355362.45409  22176111.64506  22176115.74806
  22478780.87406 -13679744.17406 -10659513.88409  22478649.22606  22478653.92506
  24083488.98906  18232137.05906  14206849.78609  24083357.25206  24083362.28306
  20803846.66406  -8049759.39106  -6272540.96809  20803715.25906  20803718.54906
 92  8 20 21  2 30.0000000  0  6 16 03 17 24 23 20
  21422208.47206  -8318920.63906  -6482265.44009  21422076.61806  21422079.96006
  22165537.66406 -15912325.80506 -12399198.13409  22165406.49506  22165410.60406
  22465795.11706 -13747985.42606 -10712688.79909  22465663.23806  22465667.94306
  24099154.34106  18314459.77906  14270997.30709  24099022.83506  24099027.83106
  25128976.81916        -0.69016        -0.23119  25128844.45316  25128857.29416
  20811601.19906  -8009009.18906  -6240787.59009  20811469.76606  20811473.10706
 92  8 20 21  3  0.0000000  0  7 16 03 17 24 26 23 20
  21429507.35506  -8280564.34606  -6452377.41309  21429375.58706  21429378.94206
  22154863.25306 -15968419.57106 -12442907.51909  22154732.15206  22154736.33506
  22452874.02306 -13815884.98006 -10765597.45709  22452742.33606  22452746.96306
  24114837.53206  18396874.94406  14335216.85909  24114706.05206  24114710.96906
  24748489.28316        -0.50816        -0.09419  24748357.83616  24748367.95216
  25108327.56906   -108509.97506    -84552.43709  25108195.32006  25108208.03206
  20819483.26206  -7967588.72006  -6208511.92809  20819351.87606  20819355.18106
 92  8 20 21  3 30.0000000  0  6 16 03 17 24 26 20
  21436916.68506  -8241628.07106  -6422037.45209  21436784.97306  21436788.29106
  22144210.37306 -16024401.07906 -12486529.42809  22144079.24206  22144083.27506
  22440010.02006 -13883484.75406 -10818272.52309  22439878.52006  22439883.18406
  24130525.22106  18479314.85306  14399455.69309  24130393.98206  24130398.82906
  24734277.92806    -74679.75206    -58191.49809  24734146.61806  24734156.86506
  20827482.96106  -7925550.20006  -6175754.67109  20827351.48806  20827354.93106
 92  8 20 21  4  0.0000000  0  7 16 03 17 24 26 23 20
  21444425.28606  -8202170.72006  -6391291.45809  21444293.41006  21444296.73006
  22133565.19506 -16080342.18106 -12530119.86109  22133434.03606  22133437.99506
  22427189.91106 -13950855.99106 -10870769.51709  22427058.18906  22427062.76606
  24146200.46506  18561687.79306  14463642.34209  24146069.02006  24146073.89306
  24720056.98006   -149411.54206   -116423.80509  24719925.48406  24719935.40206
  25067057.52016        -0.01516        -0.88219  25066925.25216  25066937.89716
  20835586.11206  -7882967.69606  -6142573.53409  20835454.68406  20835458.12306
 92  8 20 21  4 30.0000000  0  7 03 16 17 24 26 23 20
  22122919.18906 -16136286.68906 -12573712.94809  22122788.03106  22122791.99306
  21452024.84106  -8162234.30106  -6360172.16409  21451893.08606  21451896.36606
  22414404.95806 -14018041.02706 -10923121.42009  22414273.21506  22414277.81206
  24161855.27106  18643951.60406  14527743.95109  24161723.45406  24161728.25206
  24705819.90206   -224229.12906   -174722.95909  24705688.28406  24705698.03606
  25046412.60706   -108488.00906    -84536.53709  25046280.53406  25046292.71306
  20843783.91006  -7839887.57206  -6109004.64109  20843652.58006  20843656.02706
 92  8 20 21  5  0.0000000  0  7 03 16 17 24 26 23 20
  22112271.35506 -16192241.50106 -12617314.07009  22112140.19806  22112144.11306
  21459715.41606  -8121820.25506  -6328680.69609  21459583.66106  21459586.94306
  22401656.75906 -14085032.33906 -10975322.36909  22401525.05906  22401529.62206
  24177489.02906  18726107.75906  14591761.67609  24177357.20206  24177362.13106
  24691566.45006   -299128.58406   -233085.83209  24691434.74806  24691444.54006
  25025757.23106   -217031.37806   -169115.33809  25025625.12306  25025637.21506
  20852074.83206  -7796318.92806  -6075055.08209  20851943.47606  20851946.89006
 92  8 20 21  5 30.0000000  0  7 03 16 17 24 26 23 20
  22101627.43406 -16248175.90706 -12660899.29309  22101496.17906  22101500.09506
  21467504.13506  -8080890.18606  -6296787.12909  21467372.34606  21467375.61906
  22388952.73406 -14151792.11806 -11027342.91009  22388821.09106  22388825.68206
  24193110.11606  18808196.08006  14655726.52509  24192978.24106  24192983.13506
  24677306.41006   -374064.94306   -291477.46709  24677174.54806  24677184.41506
  25005097.07306   -325599.64906   -253713.51809  25004965.14506  25004976.90306
  20860464.16606  -7752233.69706  -6040702.99009  20860332.65106  20860336.02806
 92  8 20 21  6  0.0000000  0  6 03 16 17 24 23 20
  22090995.48406 -16304046.34106 -12704434.66209  22090864.34706  22090868.35806
  21475399.79806  -8039397.77406  -6264455.37509  21475268.09306  21475271.40706
  22376299.88306 -14218282.58506 -11079153.59409  22376168.32206  22376172.80406
  24208728.43806  18890272.78506  14719682.32909  24208596.87506  24208601.83306
  24984443.20206   -434133.19006   -338284.69809  24984311.46206  24984323.16806
  20868959.44106  -7707590.46606  -6005916.08909  20868828.02606  20868831.38706
 92  8 20 21  6 30.0000000  0  6 03 16 17 24 23 20
  22080379.36806 -16359834.70206 -12747906.08009  22080248.20906  22080252.12106
  21483403.16606  -7997340.29706  -6231683.31109  21483271.34406  21483274.62306
  22363701.45906 -14284487.93806 -11130742.11309  22363569.76506  22363574.26806
  24224350.72606  18972370.17806  14783654.25609  24224219.48706  24224224.56006
  24963799.40806   -542616.47806   -422816.69409  24963667.40006  24963679.06406
  20877563.85506  -7662373.88806  -5970682.43009  20877432.48406  20877435.90106
 92  8 20 21  7  0.0000000  0  7 03 16 17 24 26 23 20
  22069776.19306 -16415554.69506 -12791324.23509  22069644.99606  22069648.96706
  21491506.56606  -7954756.09406  -6198500.81409  21491374.81906  21491378.07506
  22351151.92906 -14350435.28006 -11182129.58309  22351020.40206  22351024.91506
  24239972.95006  19054466.17406  14847625.09309  24239841.76006  24239846.74506
  24634561.23516        -0.08216        -0.75919  24634429.96816  24634439.19816
  24943158.89306   -651081.86906   -507334.81609  24943026.78606  24943038.35406
  20886274.37306  -7616599.86606  -5935014.40009  20886142.96406  20886146.45406
 92  8 20 21  7 30.0000000  0  7 03 16 17 24 26 23 20
  22059175.89406 -16471258.57606 -12834729.82909  22059044.89106  22059048.86406
  21499696.86806  -7911716.50606  -6164963.47209  21499565.11006  21499568.38806
  22338638.64606 -14416192.58606 -11233368.96609  22338507.03006  22338511.58406
  24255583.30606  19136497.99606  14911545.92409  24255452.09806  24255457.22206
  24620311.38106    -74881.29306    -58349.44509  24620180.14106  24620189.34406
  24922512.60006   -759576.23606   -591875.47409  24922380.59006  24922392.08506
  20895080.40906  -7570323.30206  -5898954.77909  20894949.11106  20894952.64306
 92  8 20 21  8  0.0000000  0  7 03 16 17 24 26 23 20
  22048575.08306 -16526967.38306 -12878139.25809  22048443.91906  22048447.79906
  21507968.02306  -7868250.72206  -6131094.02909  21507836.27106  21507839.50306
  22326154.44406 -14481797.17206 -11284489.34909  22326022.80306  22326027.45706
  24271176.88906  19218440.27806  14975396.98609  24271045.16706  24271050.12806
  24606051.29906   -149818.19606   -116741.52209  24605919.84706  24605929.43506
  24901856.51606   -868124.53606   -676458.19109  24901724.37706  24901735.91106
  20903977.79606  -7523568.12906  -5862522.21609  20903846.36706  20903849.87406
 92  8 20 21  8 30.0000000  0  7 03 16 17 24 26 23 20
  22037980.38606 -16582642.65906 -12921522.55809  22037849.21306  22037853.05906
  21516326.58906  -7824326.45206  -6096867.32309  21516194.81406  21516198.07806
  22313707.88106 -14547203.72506 -11335455.41909  22313576.22706  22313580.86906
  24286758.94106  19300323.72906  15039202.21109  24286627.12606  24286632.14406
  24591787.91106   -224774.43906   -175148.68609  24591656.17106  24591665.34206
  24881194.21506   -976704.07806   -761065.30309  24881062.07006  24881073.56306
  20912973.03806  -7476298.24906  -5825688.58009  20912841.56106  20912845.09606
 92  8 20 21  9  0.0000000  0  7 03 16 17 24 26 23 20
  22027393.23406 -16638278.36806 -12964875.02409  22027262.06106  22027265.94206
  21524776.28406  -7779923.09006  -6062267.30209  21524644.53406  21524647.81806
  22301300.64506 -14612405.19306 -11386261.68309  22301168.98206  22301173.47706
  24302328.39006  19382141.73306  15102956.43809  24302196.75906  24302201.88506
  24577521.86206   -299734.97106   -233559.18409  24577391.08606  24577400.24706
  24860530.90706  -1085289.23206   -845676.75309  24860398.70606  24860409.96006
  20922066.76206  -7428510.14006  -5788451.13009  20921935.39506  20921938.88106
 92  8 20 21  9 30.0000000  0  7 03 16 17 24 26 23 20
  22016811.84606 -16693884.12606 -13008204.15009  22016680.58606  22016684.46606
  21533319.97506  -7735025.78906  -6027282.39309  21533188.16806  21533191.45806
  22288930.95906 -14677407.15006 -11436912.49209  22288799.37706  22288803.86906
  24317884.12206  19463887.84106  15166654.63409  24317752.48706  24317757.65206
  24563257.37206   -374701.07006   -291974.03209  24563125.48206  24563134.45906
  24839867.33006  -1193873.19706   -930287.31309  24839735.28206  24839747.20906
  20931256.78306  -7380216.65306  -5750819.88009  20931125.36406  20931128.88306
 92  8 20 21 10  0.0000000  0  7 03 16 17 24 26 23 20
  22006236.19906 -16749458.61306 -13051508.91109  22006105.04106  22006108.97006
  21541960.18106  -7689621.00206  -5991902.04109  21541828.37606  21541831.66106
  22276600.38106 -14742205.41106 -11487404.58009  22276468.68006  22276473.06506
  24333428.09306  19545570.50306  15230303.39409  24333296.25206  24333301.29706
  24548988.75006   -449683.07506   -350401.28009  24548856.71706  24548865.72806
  24819203.83306  -1302461.63606  -1014901.38109  24819071.69506  24819082.92106
  20940542.59106  -7331418.54806  -5712795.42009  20940411.33706  20940414.83506
 92  8 20 21 10 30.0000000  0  7 03 16 17 24 26 23 20
  21995671.64706 -16804975.99006 -13094769.17009  21995540.36806  21995544.24206
  21550700.13306  -7643692.82106  -5956113.85309  21550568.27006  21550571.53006
  22264314.75106 -14806766.88706 -11537712.15709  22264182.98206  22264187.42206
  24348962.91106  19627207.21906  15293916.35209  24348831.30206  24348836.33106
  24534719.11306   -524668.16306   -408830.92909  24534587.12606  24534596.08806
  24798546.29006  -1411015.39706  -1099488.42909  24798414.39106  24798425.62706
  20949929.00306  -7282093.03606  -5674359.99509  20949797.67006  20949801.25606
 92  8 20 21 11  0.0000000  0  7 03 16 17 24 26 23 20
  21985123.59206 -16860405.92506 -13137961.29609  21984992.44906  21984996.26506
  21559544.07906  -7597217.46206  -5919899.29909  21559412.32106  21559415.48806
  22252078.21606 -14871069.20706 -11587817.79409  22251946.54806  22251951.02306
  24364495.35606  19708832.00506  15357520.02109  24364364.03406  24364369.12406
  24520452.12306   -599637.93306   -467248.64609  24520320.71206  24520329.52506
  24777903.33706  -1519494.60706  -1184017.40009  24777771.14006  24777782.51606
  20959420.97906  -7232212.71806  -5635492.25609  20959289.63106  20959293.17006
 92  8 20 21 11 30.0000000  0  7 03 16 17 24 26 20 23
  21974592.51006 -16915745.28406 -13181082.84409  21974461.55306  21974465.50206
  21568489.44206  -7550209.15306  -5883269.46109  21568357.64906  21568360.87206
  22239891.63106 -14935109.05106 -11637718.90609  22239760.08206  22239764.51106
  24380026.54806  19790448.92706  15421117.54809  24379895.44406  24379900.33506
  24506186.43906   -674602.85006   -525662.64309  24506055.15706  24506064.26306
  20969018.68206  -7181777.09006  -5596191.81009  20968887.27906  20968890.80806
  24757273.35906  -1627904.44806  -1268492.30909  24757141.22406  24757152.42906
 92  8 20 21 12  0.0000000  0  7 03 16 17 24 26 23 20
  21964081.19706 -16970983.23706 -13224125.37209  21963950.10706  21963954.03506
  21577535.31706  -7502672.95506  -5846228.27909  21577403.50006  21577406.69806
  22227758.13806 -14998870.44006 -11687403.03409  22227626.64806  22227631.16006
  24395556.63606  19872057.42506  15484708.51609  24395424.88806  24395429.84606
  24491923.72106   -749553.76506   -584065.72609  24491792.24606  24491801.00306
  24736658.65906  -1736235.68206  -1352906.00309  24736526.31006  24736537.44306
  20978723.40306  -7130778.32706  -5556452.55609  20978592.05906  20978595.59506
 92  8 20 21 12 30.0000000  0  7 03 20 16 17 24 26 23
  21953590.73706 -17026110.99906 -13267082.03409  21953459.62606  21953463.53506
  20988536.49906  -7079210.11806  -5516269.57809  20988405.19206  20988408.73206
  21586683.17806  -7454601.06206  -5808769.66809  21586551.18106  21586554.44306
  22215679.93706 -15062341.80006 -11736861.16209  22215548.36106  22215552.81906
  24411084.41806  19953657.60406  15548293.00009  24410952.99906  24410958.04006
  24477669.64606   -824456.46006   -642431.24309  24477538.60206  24477547.49306
  24716061.17306  -1844473.84006  -1437247.13909  24715929.07406  24715940.02206
 92  8 20 21 13  0.0000000  0  7 03 20 16 17 24 26 23
  21943125.51906 -17081106.92406 -13309935.96609  21942994.31306  21942998.13506
  20998461.50506  -7027054.06906  -5475628.54409  20998330.17306  20998333.71706
  21595938.78706  -7405961.89406  -5770869.02309  21595807.05306  21595810.24106
  22203659.96106 -15125508.33106 -11786081.76509  22203528.20106  22203532.49606
  24426615.73606  20035275.53206  15611891.33309  24426484.25606  24426489.44406
  24463432.48606   -899274.93906   -700731.13109  24463300.79806  24463309.67206
  24695484.14606  -1952604.94906  -1521504.86909  24695352.28406  24695363.19306
 92  8 20 21 13 30.0000000  0  7 03 20 16 17 24 26 23
  21932687.60206 -17135958.87506 -13352677.70609  21932556.41806  21932560.13406
  21008500.21506  -6974300.68906  -5434522.05909  21008368.83806  21008372.39606
  21605305.84306  -7356737.57306  -5732512.41809  21605174.11706  21605177.38706
  22191700.01206 -15188358.17506 -11835055.60309  22191568.29706  22191572.52906
  24442153.42306  20116924.46106  15675513.81409  24442021.70006  24442026.94706
  24449218.29806   -973971.57306   -758936.09609  24449086.68706  24449095.12706
  24674928.50306  -2060625.43006  -1605676.38309  24674796.43606  24674807.38706
 92  8 20 21 14  0.0000000  0  7 03 20 16 17 24 26 23
  21922276.30206 -17190670.14306 -13395309.82309  21922145.09006  21922148.90206
  21018651.22806  -6920956.50306  -5392955.20409  21018519.93506  21018523.51406
  21614784.53606  -7306927.00106  -5693698.99709  21614652.68406  21614655.97006
  22179798.41506 -15250900.72106 -11883789.99309  22179666.77006  22179671.02006
  24457698.82906  20198615.77206  15739169.31309  24457567.13106  24457572.34406
  24435028.99006  -1048534.57106   -817036.93809  24434897.85906  24434905.95306
  24654393.40006  -2168534.95206  -1689761.46009  24654261.69906  24654272.48506
 92  8 20 21 14 30.0000000  0  7 03 20 16 17 24 26 23
  21911892.73906 -17245235.81206 -13437828.48509  21911761.51206  21911765.29706
  21028915.25706  -6867019.55806  -5350926.46309  21028783.84006  21028787.39706
  21624373.02906  -7256538.76206  -5654435.45009  21624241.30206  21624244.60506
  22167954.97006 -15313138.11606 -11932286.60309  22167823.31706  22167827.62406
  24473257.03606  20280374.90806  15802877.66109  24473125.47006  24473130.56606
  24420867.56006  -1122954.36906   -875026.21809  24420735.92706  24420744.33506
  24633881.13006  -2276326.38406  -1773754.51409  24633749.69506  24633760.32106
 92  8 20 21 15  0.0000000  0  7 03 20 16 17 24 26 23
  21901541.52106 -17299631.59906 -13480214.77409  21901410.29306  21901414.08006
  21039296.02006  -6812468.58706  -5308419.25909  21039164.59106  21039168.18906
  21634072.93206  -7205565.04806  -5614715.68509  21633941.20006  21633944.54806
  22156174.03906 -15375046.52006 -11980526.85109  22156042.51006  22156046.73706
  24488835.10706  20362238.81206  15866667.64609  24488703.61406  24488708.91106
  24406736.39606  -1197213.41206   -932890.26209  24406604.69706  24406613.09106
  24613396.45806  -2383973.52306  -1857635.11009  24613264.85306  24613275.44006
 92  8 20 21 15 30.0000000  0  8 03 20 16 17 24 26 25 23
  21891226.71106 -17353835.65006 -13522451.65509  21891095.62306  21891099.34706
  21049797.03106  -6757284.98106  -5265419.09309  21049665.69806  21049669.33306
  21643884.45706  -7154005.41206  -5574539.35809  21643752.74606  21643756.02006
  22144462.12406 -15436593.20306 -12028485.24209  22144330.52406  22144334.77406
  24504437.10606  20444226.39706  15930553.99909  24504305.38306  24504310.63606
  24392637.88606  -1271297.29306   -990617.82109  24392506.79806  24392515.21906
  25194066.92116        -0.45616        -0.25719  25193935.45316  25193943.66616
  24592943.77706  -2491450.39806  -1941383.06809  24592812.36106  24592822.94206
 92  8 20 21 16  0.0000000  0  8 03 20 16 17 24 26 25 23
  21880946.24306 -17407859.74806 -13564548.31509  21880815.11506  21880818.90806
  21060415.79706  -6701483.22006  -5221937.24909  21060284.45406  21060288.11406
  21653802.23206  -7101887.32506  -5533927.87209  21653670.53706  21653673.77106
  22132817.49906 -15497786.66006 -12076168.39209  22132685.74306  22132689.91106
  24520058.44506  20526315.90606  15994519.78409  24519926.56406  24519931.85306
  24378569.50806  -1345229.31206  -1048227.02809  24378437.92506  24378446.20406
  25203635.28806     50276.57006     39176.55009  25203503.54206  25203512.14106
  24572524.78506  -2598752.99406  -2024995.20609  24572393.21406  24572403.62406
 92  8 20 21 16 30.0000000  0  8 03 20 16 17 24 26 25 23
  21870691.06306 -17461751.23406 -13606541.64309  21870559.88306  21870563.63606
  21071142.41206  -6645114.29106  -5178013.45809  21071011.12406  21071014.77106
  21663815.32306  -7049268.43106  -5492926.14609  21663683.55006  21663686.81606
  22121231.74106 -15558670.07806 -12123609.96009  22121099.97106  22121104.10806
  24535684.18706  20608429.37906  16058504.23809  24535552.43606  24535557.68906
  24364519.74206  -1419059.01006  -1105756.49309  24364388.51706  24364396.97606
  25213260.99206    100859.50606     78591.67009  25213129.36906  25213137.61906
  24552128.66206  -2705935.35306  -2108513.64709  24551996.91506  24552007.17206
 92  8 20 21 17  0.0000000  0  8 03 20 16 17 24 26 25 23
  21860454.06006 -17515546.25606 -13648459.80609  21860322.99306  21860326.77406
  21081969.69606  -6588217.09106  -5133678.02509  21081838.29906  21081841.98306
  21673920.28806  -6996166.47106  -5451548.00309  21673788.49906  21673791.72306
  22109697.73006 -15619280.53106 -12170838.82709  22109566.09606  22109570.29006
  24551303.44006  20690510.73206  16122463.66009  24551172.00606  24551177.36706
  24350482.94506  -1492824.97806  -1163236.33909  24350351.19106  24350359.51306
  25222939.08706    151719.69706    118222.81009  25222807.59406  25222816.19006
  24531747.12706  -2813040.06306  -2191971.59509  24531615.34706  24531625.56806
 92  8 20 21 17 30.0000000  0  8 03 20 16 17 24 26 25 23
  21850234.17206 -17569252.53606 -13690308.82109  21850103.04106  21850106.78906
  21092895.31806  -6530802.74706  -5088939.62809  21092763.94506  21092767.62906
  21684117.37206  -6942580.94006  -5409793.05309  21683985.51806  21683988.76506
  22098213.60706 -15679628.53306 -12217863.18209  22098082.19506  22098086.40306
  24566913.84106  20772542.02206  16186384.06109  24566781.93806  24566787.55906
  24336456.95406  -1566531.28106  -1220669.69409  24336325.43806  24336333.53706
  25232668.55506    202849.28006    158063.83109  25232537.47906  25232545.84106
  24511377.34206  -2920082.03406  -2275380.65209  24511245.68006  24511255.94706
 92  8 20 21 18  0.0000000  0  8 03 20 16 17 24 26 25 23
  21840033.57406 -17622857.65106 -13732079.00409  21839902.35306  21839906.01406
  21103921.18206  -6472862.03606  -5043791.07309  21103789.73006  21103793.44306
  21694411.89606  -6888482.51806  -5367638.44509  21694280.13006  21694283.39306
  22086781.48306 -15739705.22806 -12264676.12809  22086649.91206  22086654.13706
  24582516.52006  20854535.00906  16250274.63809  24582384.72006  24582390.34206
  24322444.95906  -1640162.96106  -1278044.90209  24322313.53706  24322321.72306
  25242450.32406    254246.96406    198113.87509  25242318.49306  25242325.86106
  24491021.30006  -3027052.84606  -2358734.25009  24490889.66006  24490899.70906
 92  8 20 21 18 30.0000000  0  8 03 20 16 17 24 26 25 23
  21829855.45106 -17676343.21806 -13773756.03709  21829724.32406  21829728.01706
  21115050.00106  -6414379.97806  -4998220.68909  21114918.61306  21114922.25106
  21704807.85306  -6833851.04206  -5325068.46909  21704676.12806  21704679.40306
  22075402.88406 -15799500.06506 -12311269.44509  22075271.31706  22075275.50506
  24598116.54406  20936513.90206  16314154.22309  24597984.86806  24597990.40206
  24308451.54506  -1713701.82306  -1335347.76509  24308319.47506  24308327.63206
  25252286.04406    305937.41606    238392.02009  25252154.60006  25252162.67306
  24470680.84206  -3133943.30406  -2442025.22609  24470548.74006  24470559.06706
 92  8 20 21 19  0.0000000  0  8 03 20 16 17 24 26 25 23
  21819699.78806 -17729711.62406 -13815341.77709  21819568.61706  21819572.34606
  21126280.86206  -6355361.83606  -4952232.57609  21126149.42106  21126153.03206
  21715303.94306  -6778693.96806  -5282088.93409  21715172.16106  21715175.46206
  22064077.16906 -15859017.15706 -12357646.33409  22063945.57106  22063949.68406
  24613715.63306  21018486.02206  16378028.53909  24613583.82606  24613588.96506
  24294473.34906  -1787154.40006  -1392583.37909  24294341.81506  24294349.90006
  25262179.44906    357930.31306    278905.84209  25262048.42806  25262056.72906
  24450356.09606  -3240747.80606  -2525249.21709  24450224.32206  24450234.34306
 92  8 20 21 19 30.0000000  0  8 03 20 16 17 24 26 25 23
  21809563.09206 -17782980.65506 -13856850.07909  21809431.85306  21809435.57906
  21137609.51306  -6295828.90706  -4905843.32809  21137478.22406  21137481.85306
  21725893.73206  -6723044.53706  -5238725.74309  21725761.95406  21725765.21006
  22052801.16006 -15918273.40206 -12403819.96409  22052669.47506  22052673.49506
  24629308.75906  21100427.60006  16441879.04609  24629176.76206  24629182.12606
  24280508.34306  -1860539.63706  -1449766.49609  24280376.73106  24280384.68106
  25272128.30206    410205.38206    319639.51909  25271996.56606  25272003.95206
  24430047.35306  -3347470.74006  -2608409.65709  24429915.27506  24429925.37806
 92  8 20 21 20  0.0000000  0  8 03 20 16 17 24 26 25 23
  21799443.39806 -17836159.53806 -13898288.14009  21799312.22606  21799315.97906
  21149033.86106  -6235794.23606  -4859063.11309  21148902.43906  21148906.14506
  21736573.99606  -6666919.58106  -5194992.01309  21736442.22706  21736445.44906
  22041571.72306 -15977284.09706 -12449802.25309  22041440.02506  22041444.04606
  24644891.48906  21182316.43206  16505688.47109  24644759.63106  24644765.02806
  24266554.22806  -1933866.71506  -1506904.27209  24266422.93106  24266430.88106
  25282125.01206    462740.67006    360576.11109  25281993.36606  25282001.21406
  24409754.83106  -3454106.62806  -2691502.25909  24409622.87406  24409632.94906
 92  8 20 21 20 30.0000000  0  7 03 20 16 17 24 26 23
  21789342.43406 -17889239.73506 -13939649.29909  21789211.37406  21789215.13006
  21160554.63606  -6175251.79806  -4811887.23409  21160423.31906  21160427.06206
  21747345.08106  -6610316.66306  -5150885.84609  21747213.43406  21747216.61706
  22030388.58406 -16036050.77906 -12495594.40009  22030256.99806  22030260.98506
  24660464.01706  21264151.63706  16569456.09709  24660332.30706  24660338.03706
  24252615.06106  -2007119.06606  -1563983.82909  24252483.46606  24252491.38506
  24389484.54406  -3560628.29106  -2774505.85009  24389352.34406  24389362.29006
 92  8 20 21 21  0.0000000  0  7 03 20 16 17 24 26 23
  21779263.77106 -17942204.14306 -13980920.23609  21779132.55806  21779136.23406
  21172174.75706  -6114188.31306  -4764305.34809  21172043.32106  21172047.07106
  21758210.64006  -6553217.76906  -5106393.20709  21758078.90006  21758082.27106
  22019257.24606 -16094547.82506 -12541176.44209  22019125.37406  22019129.39706
  24676029.33806  21345947.98806  16633193.46209  24675897.66506  24675903.33106
  24238693.39806  -2080276.30306  -1620989.26009  24238561.95706  24238569.74206
  24369240.26706  -3667011.44806  -2857401.52809  24369108.04106  24369118.05506
 92  8 20 21 21 30.0000000  4  1
 -2439737.0000 -4645851.0000  3615005.0000                  APPROX POSITION XYZ
 92  8 20 21 21 30.0000000  0  7 03 20 16 24 26 17 23
  21769205.92206 -17995058.09906 -14022105.10409  21769074.72106  21769078.43406
  21183892.15806  -6052613.10706  -4716324.71809  21183760.73806  21183764.49906
  21769169.41706  -6495629.03206  -5061518.87509  21769037.67306  21769041.02306
  24691589.04706  21427715.76606  16696908.55409  24691457.73206  24691463.35306
  24224792.00006  -2153329.12206  -1677913.30909  24224660.21306  24224668.02206
  22008173.25706 -16152792.32606 -12586561.69109  22008041.76906  22008045.71506
  24349022.16606  -3773256.76306  -2940189.79609  24348890.13706  24348899.86606
 92  8 20 21 22  0.0000000  0  7 03 20 16 24 26 17 23
  21759161.23306 -18047843.57206 -14063236.60809  21759029.98506  21759033.62706
  21195698.41806  -5990571.03406  -4667980.29409  21195567.03206  21195570.76106
  21780213.54806  -6437592.41806  -5016295.54709  21780081.68106  21780085.00306
  24707138.36406  21509426.47706  16760579.18209  24707006.75206  24707012.45006
  24210904.22206  -2226307.36406  -1734779.25609  24210772.91206  24210780.67706
  21997127.92506 -16210836.19606 -12631790.60909  21996996.28006  21997000.22006
  24328821.94406  -3879408.52006  -3022905.16009  24328690.03106  24328699.59206
 92  8 20 21 22 30.0000000  0  7 03 20 16 24 26 17 23
  21749119.21806 -18100614.55606 -14104356.82509  21748988.00606  21748991.67806
  21207582.55106  -5928119.83106  -4619317.06909  21207451.12606  21207454.84106
  21791330.42006  -6379171.93506  -4970773.10309  21791198.74206  21791202.03406
  24722668.91406  21591038.98906  16824173.26009  24722537.33506  24722542.84706
  24197020.78106  -2299265.18606  -1791629.30209  24196889.32006  24196897.08006
  21986109.70106 -16268736.51706 -12676907.66909  21985978.17506  21985982.05406
  24308625.95406  -3985538.07806  -3105603.24309  24308494.00206  24308503.58806
 92  8 20 21 23  0.0000000  0  7 03 20 16 24 26 17 23
  21739076.89506 -18153386.24606 -14145477.58709  21738945.78406  21738949.52106
  21219541.13906  -5865277.56806  -4570349.12009  21219409.70906  21219413.40306
  21802514.53806  -6320399.71806  -4924976.57909  21802382.73006  21802386.01806
  24738179.97406  21672553.29006  16887690.84509  24738048.79106  24738054.52406
  24183138.14406  -2372216.09206  -1848473.96009  24183007.02706  24183014.82606
  21975117.33206 -16326502.05606 -12721919.70809  21974985.76306  21974989.66306
  24288426.88606  -4091683.23606  -3188313.47909  24288294.91606  24288304.46806
 92  8 20 21 23 30.0000000  0  7 03 20 16 24 26 17 23
  21729036.01506 -18206151.14706 -14186593.05809  21728904.94006  21728908.69406
  21231574.64506  -5802040.85106  -4521073.81109  21231443.25306  21231446.98906
  21813765.94306  -6261272.70106  -4878903.59109  21813634.23406  21813637.50506
  24753672.64206  21753963.76806  16951127.51909  24753540.84506  24753546.41806
  24169261.75006  -2445140.71606  -1905298.11609  24169129.75006  24169137.40306
  21964150.95106 -16384131.24206 -12766825.49709  21964019.17306  21964023.13906
  24268225.37006  -4197840.76906  -3271033.36009  24268093.66606  24268103.08706
 92  8 20 21 24  0.0000000  0  7 03 20 16 24 26 17 23
  21719003.08406 -18258875.80706 -14227677.17309  21718871.78706  21718875.44806
  21243688.95906  -5738379.61806  -4471467.70709  21243557.62306  21243561.37706
  21825091.01706  -6201758.81606  -4832529.14509  21824959.30506  21824962.57706
  24769145.93106  21835278.55906  17014489.62009  24769014.49806  24769020.14706
  24155393.58706  -2518014.95606  -1962083.02109  24155261.99306  24155269.65706
  21953220.36706 -16441571.73206 -12811584.24809  21953088.58806  21953092.52006
  24248026.31606  -4303984.69306  -3353742.63909  24247894.97206  24247904.32706
 92  8 20 21 24 30.0000000  0  7 03 20 16 24 26 17 23
  21708988.15306 -18311504.09806 -14268686.19909  21708856.94206  21708860.61306
  21255894.13206  -5674241.11606  -4421489.70809  21255762.78506  21255766.58006
  21836499.10406  -6141809.91106  -4785815.72609  21836367.20606  21836370.59506
  24784611.23806  21916547.55206  17077816.02809  24784479.64406  24784485.27106
  24141545.59706  -2590787.22506  -2018788.45009  24141413.70506  24141421.27806
  21942340.47006 -16498744.66706 -12856134.51509  21942208.87606  21942212.80106
  24227840.21506  -4410062.98306  -3436400.77209  24227708.76606  24227718.01006
 92  8 20 21 25  0.0000000  0  7 03 20 16 24 26 17 23
  21698994.73206 -18364019.26806 -14309607.07909  21698863.55406  21698867.27006
  21268192.55606  -5609612.96706  -4371130.16609  21268061.15806  21268064.98806
  21847995.86206  -6081393.40806  -4738737.94609  21847864.16806  21847867.49406
  24800068.51506  21997777.04206  17141111.66309  24799937.01606  24799942.52006
  24127721.03606  -2663433.97206  -2075396.08109  24127589.11906  24127596.91506
  21931516.74206 -16555623.84206 -12900455.87709  21931385.13906  21931389.05706
  24207672.97406  -4516041.56806  -3518981.20609  24207541.44006  24207550.50606
 92  8 20 21 25 30.0000000  0  7 03 20 16 24 26 17 23
  21689020.42306 -18416434.47306 -14350450.06809  21688889.31106  21688892.99506
  21280580.96706  -5544511.57906  -4320401.86809  21280449.56906  21280453.42106
  21859582.38806  -6020506.12606  -4691293.32509  21859450.63406  21859453.95006
  24815513.96206  22078944.20706  17204358.73609  24815382.67106  24815388.49906
  24113916.08806  -2735974.40706  -2131920.87409  24113785.15506  24113792.81606
  21920745.86506 -16612224.77206 -12944560.43109  21920614.27306  21920618.10106
  24187525.91906  -4621914.08306  -3601478.98909  24187394.30306  24187403.42906
 92  8 20 21 26  0.0000000  0  7 03 20 16 24 26 17 23
  21679059.03206 -18468782.02306 -14391240.33909  21678927.83606  21678931.53206
  21293052.55806  -5478973.26506  -4269333.10709  21292921.18406  21292924.96606
  21871251.82706  -5959182.97806  -4643509.06509  21871120.00906  21871123.35306
  24830942.57606  22160021.13406  17267535.49709  24830811.30106  24830816.82706
  24100123.16006  -2808456.59306  -2188400.27909  24099992.14006  24099999.53806
  21910020.95806 -16668584.62406 -12988477.13809  21909889.32606  21909893.07006
  24167393.07106  -4727711.84006  -3683918.51309  24167261.49506  24167270.45406
 92  8 20 21 26 30.0000000  0  7 03 20 16 24 26 17 23
  21669100.12306 -18521116.25206 -14432020.23209  21668968.95806  21668972.56906
  21305596.47806  -5413055.91306  -4217968.99409  21305464.87806  21305468.69806
  21882993.80206  -5897478.69406  -4595427.81609  21882861.99206  21882865.30406
  24846346.67306  22240967.61806  17330610.59309  24846215.06406  24846220.72706
  24086331.65006  -2880931.76206  -2244874.22609  24086200.36706  24086207.78506
  21899328.61606 -16724772.70106 -13032260.00109  21899196.96606  21899200.76206
  24147265.24906  -4833484.55406  -3766338.52609  24147133.48406  24147142.43406
 92  8 20 21 27  0.0000000  0  7 03 20 16 24 26 17 23
  21659142.83606 -18573441.60306 -14472793.20809  21659011.69906  21659015.40606
  21318210.61506  -5346767.40006  -4166315.66309  21318079.28906  21318083.04206
  21894806.41506  -5835402.38706  -4547056.68209  21894674.68006  21894677.97106
  24861725.02906  22321780.88006  17393581.86809  24861593.47006  24861599.05206
  24072540.79006  -2953406.55706  -2301347.86809  24072408.67606  24072416.12006
  21888662.68206 -16780820.44706 -13075933.50809  21888531.28506  21888535.27606
  24127142.35806  -4939230.15406  -3848737.40809  24127010.50406  24127019.18406
 92  8 20 21 27 30.0000000  0  7 03 20 16 24 26 17 23
  21649193.38606 -18625726.03906 -14513534.29809  21649062.34006  21649065.91006
  21330900.91706  -5280079.81806  -4114351.36909  21330769.52606  21330773.29806
  21906691.24506  -5772947.63706  -4498390.65809  21906559.49806  21906562.77306
  24877083.66606  22402493.57906  17456474.80509  24876952.40306  24876958.39606
  24058754.20606  -3025854.09106  -2357800.25109  24058622.39906  24058629.61806
  21878026.11306 -16836716.35506 -13119488.69209  21877894.54706  21877898.59306
  24107029.42306  -5044921.96806  -3931094.38909  24106897.90306  24106906.53606
 92  8 20 21 28  0.0000000  0  7 03 20 16 24 26 17 23
  21639258.93406 -18677932.60306 -14554214.71209  21639127.74406  21639131.34806
  21343673.42706  -5212959.98206  -4062050.25209  21343542.02006  21343545.87106
  21918650.58306  -5710101.53806  -4449419.68709  21918518.74206  21918522.06006
  24892433.06406  22483152.09806  17519325.53309  24892301.29106  24892306.74506
  24044982.36606  -3098225.14906  -2414193.02809  24044850.45706  24044857.65006
  21867423.83006 -16892432.40806 -13162903.72809  21867292.17906  21867296.07406
  24086933.07206  -5150528.56606  -4013384.97109  24086801.41406  24086810.08406
 92  8 20 21 28 30.0000000  0  8 03 20 16 24 26 17 25 23
  21629350.48406 -18730001.53006 -14594787.87509  21629219.31306  21629222.94506
  21356538.96006  -5145351.47906  -4009368.35709  21356407.54106  21356411.41106
  21930694.09306  -5646812.15106  -4400103.29509  21930562.36306  21930565.68506
  24907785.03706  22563824.06606  17582186.71309  24907652.88406  24907658.87406
  24031237.43606  -3170446.84306  -2470469.40309  24031106.93606  24031113.96306
  21856865.64106 -16947916.86006 -13206138.29309  21856733.84706  21856737.71006
  25458139.32116        -0.31916        -0.34719  25458007.97416  25458015.07716
  24066864.09106  -5255991.58006  -4095563.66909  24066732.23006  24066740.95706
 92  8 20 21 29  0.0000000  0  7 03 20 16 24 26 17 23
  21619472.27406 -18781911.99106 -14635237.55909  21619341.08906  21619344.69006
  21369500.57006  -5077237.78306  -3956292.80709  21369369.14206  21369373.05706
  21942825.61606  -5583060.69306  -4350426.85009  21942693.82006  21942697.13406
  24923138.92206  22644514.23106  17645062.08609  24923007.66006  24923013.31606
  24017528.82806  -3242485.65506  -2526603.27709  24017397.94206  24017405.05406
  21846354.70506 -17003151.52006 -13249178.21709  21846222.99906  21846226.75806
  24046824.62206  -5361297.39906  -4177619.88009  24046692.88006  24046701.64506
 92  8 20 21 29 30.0000000  0  8 03 20 16 24 26 17 25 23
  21609618.72906 -18833692.10706 -14675585.67909  21609487.62206  21609491.23506
  21382552.26606  -5008650.22706  -3902848.01609  21382420.94006  21382424.90206
  21955040.87906  -5518869.51706  -4300407.76109  21954909.01406  21954912.30106
  24938491.70206  22725192.01706  17707927.83009  24938360.31906  24938366.06906
  24003850.86206  -3314363.63606  -2582611.83009  24003719.87106  24003726.88506
  21835888.55606 -17058150.53706 -13292034.52309  21835756.92706  21835760.66806
  25479530.16816        -0.94316        -0.55919  25479398.54416  25479408.48816
  24026811.20906  -5466468.35606  -4259571.00109  24026679.33906  24026688.06406
 92  8 20 21 30  0.0000000  0  8 03 20 16 24 26 17 25 23
  21599787.01306 -18885358.83506 -14715845.44409  21599655.75506  21599659.37106
  21395690.30006  -4939610.60406  -3849050.96409  21395558.81906  21395562.78606
  21967337.38006  -5454249.82206  -4250054.75909  21967205.71306  21967209.05506
  24953838.00406  22805836.79706  17770767.82809  24953706.29706  24953712.00906
  23990201.19506  -3386097.87506  -2638508.37409  23990069.13206  23990076.06706
  21825468.89306 -17112905.62606 -13334700.75509  21825337.25706  21825341.12706
  25490276.16906     56468.14806     44001.25709  25490144.67806  25490151.89206
  24006819.30406  -5571524.99506  -4341433.04409  24006687.50506  24006696.07106
 92  8 20 21 30 30.0000000  0  7 03 20 16 24 26 17 23
  21589973.83806 -18936927.20206 -14756028.56109  21589842.66506  21589846.27306
  21408910.44206  -4870138.06806  -3794916.57709  21408779.03906  21408782.98306
  21979714.03006  -5389209.95406  -4199374.35209  21979582.41006  21979585.74306
  24969171.44306  22886415.64906  17833556.47909  24969039.99306  24969046.17606
  23976574.66706  -3457702.96006  -2694304.28209  23976442.78306  23976449.79506
  21815097.24606 -17167408.92606 -13377170.78609  21814965.60606  21814969.50606
  23986846.53906  -5676481.14906  -4423216.78509  23986714.78106  23986723.35706
 92  8 20 21 31  0.0000000  0  7 03 20 16 24 26 17 23
  21580178.98806 -18988399.63006 -14796136.91909  21580047.75706  21580051.33706
  21422211.95806  -4800238.30406  -3740449.28309  21422080.58106  21422084.57106
  21992168.73606  -5323760.29206  -4148374.62509  21992037.03006  21992040.41806
  24984489.72206  22966912.24106  17896281.01609  24984358.20706  24984363.65906
  23962970.81506  -3529187.44806  -2750006.22509  23962839.49606  23962846.50606
  21804776.21106 -17221645.64906 -13419433.10009  21804644.59506  21804648.43906
  23966895.03406  -5781325.24806  -4504913.21309  23966763.37506  23966771.90206
 92  8 20 21 31 30.0000000  0  8 03 20 16 24 26 17 25 23
  21570404.42006 -19039764.06306 -14836161.12209  21570273.35806  21570276.99106
  21435596.28106  -4729903.33706  -3685642.86909  21435464.85506  21435468.90706
  22004699.68606  -5257909.42506  -4097062.26709  22004568.02106  22004571.37106
  24999793.55406  23047333.17406  17958946.62309  24999661.76206  24999668.00406
  23949389.93606  -3600555.63106  -2805617.54509  23949258.51506  23949265.28306
  21794510.19206 -17275594.12606 -13461470.81309  21794378.53706  21794382.39306
  25522712.04816        -0.44216        -0.20019  25522580.62416  25522589.67816
  23946969.86706  -5886032.35606  -4586502.89409  23946838.12206  23946846.51906
 92  8 20 21 32  0.0000000  0  8 03 20 16 24 26 17 25 23
  21560654.46406 -19091000.51906 -14876085.60409  21560523.35006  21560526.94806
  21449066.46206  -4659116.97806  -3630484.72309  21448935.12906  21448939.15106
  22017310.09806  -5191641.87006  -4045425.21609  22017178.30306  22017181.65306
  25015087.41706  23127698.08406  18021568.55109  25014955.11006  25014960.70806
  23935836.42106  -3671778.19206  -2861115.41109  23935705.29606  23935712.01306
  21784301.43406 -17329241.24306 -13503273.69909  21784169.85706  21784173.63206
  25533600.52906     57216.17006     44583.97909  25533468.76506  25533478.30506
  23927072.82306  -5990592.16006  -4667977.79609  23926940.91906  23926949.23806
 92  8 20 21 32 30.0000000  0  7 03 20 16 24 26 17 23
  21550934.75206 -19142078.27806 -14915886.42709  21550803.55706  21550807.18406
  21462627.55106  -4587852.91006  -3574954.33809  21462496.20106  21462500.26106
  22030005.07806  -5124929.26306  -3993441.37209  22029873.30406  22029876.72606
  25030373.06306  23208030.01506  18084164.76609  25030241.57906  25030247.64906
  23922316.91206  -3742821.59006  -2916473.66209  23922186.06606  23922192.66206
  21774151.40406 -17382580.73206 -13544836.87709  21774019.71506  21774023.39606
  23907209.31806  -6094974.08006  -4749314.08509  23907077.34506  23907085.65506
 92  8 20 21 33  0.0000000  0  7 03 20 16 24 26 17 23
  21541255.71706 -19192942.39606 -14955520.77409  21541124.44006  21541128.08006
  21476289.30106  -4516060.04906  -3519011.90409  21476157.93906  21476162.10006
  22042795.71706  -5057714.51206  -3941066.25209  22042663.92306  22042667.26706
  25045663.26306  23288381.18706  18146776.00409  25045532.18506  25045537.52106
  23908843.32706  -3813629.21506  -2971648.19009  23908711.59206  23908718.15806
  21764064.60906 -17435586.04506 -13586139.66209  21763933.09606  21763936.71406
  23887389.59406  -6199125.63106  -4830470.86509  23887257.76106  23887265.99806
 92  8 20 21 33 30.0000000  0  8 03 20 16 24 26 17 25 23
  21531623.49306 -19243559.73006 -14994962.82409  21531492.30606  21531495.88106
  21490057.30406  -4443709.53606  -3462634.93709  21489925.87906  21489929.97006
  22055690.56106  -4989952.07006  -3888264.35709  22055558.68906  22055562.05306
  25060966.06106  23368795.18606  18209436.14209  25060834.23306  25060840.29406
  23895422.51106  -3884155.07406  -3026603.16109  23895290.80206  23895297.26606
  21754044.81906 -17488240.31806 -13627168.90909  21753913.19306  21753916.88306
  25566560.27716         0.43716        -0.32719  25566428.77816  25566437.94616
  23867619.26606  -6303018.32406  -4911425.93809  23867487.51906  23867495.56806
 92  8 20 21 34  0.0000000  0  7 03 20 16 24 26 17 23
  21522044.41706 -19293898.01706 -15034187.43709  21521913.23106  21521916.84106
  21503936.69206  -4370772.84506  -3405801.20909  21503805.32706  21503809.46006
  22068696.91606  -4921603.06406  -3835005.40009  22068565.07706  22068568.44606
  25076288.95006  23449317.01606  18272180.38409  25076157.08106  25076162.84106
  23882064.01306  -3954353.91206  -3081303.30609  23881932.24406  23881938.69406
  21744093.88306 -17540531.72706 -13667915.40709  21743962.32106  21743966.09206
  23847901.81106  -6406633.12506  -4992164.47109  23847770.14606  23847778.14106
 92  8 20 21 34 30.0000000  0  7 03 20 16 24 26 17 23
  21512520.03906 -19343948.94206 -15073188.13409  21512388.80106  21512392.39306
  21517928.35706  -4297246.30406  -3348507.85909  21517797.03406  21517801.12306
  22081814.07206  -4852671.63806  -3781292.61309  22081682.27006  22081685.67506
  25091632.61406  23529948.75506  18335010.21109  25091500.65306  25091507.01506
  23868768.39606  -4024219.67106  -3135743.90709  23868637.10906  23868643.38506
  21734212.99906 -17592456.21406 -13708375.99509  21734081.35906  21734085.04806
  23828240.30106  -6509953.61106  -5072673.67209  23828108.57106  23828116.59706
 92  8 20 21 35  0.0000000  0  7 03 20 16 24 26 17 23
  21503044.74006 -19393741.09806 -15111987.19109  21502913.64406  21502917.20306
  21532026.22206  -4223162.31106  -3290780.13009  21531894.80806  21531898.88906
  22095034.47506  -4783199.02306  -3727158.11809  22094902.54606  22094905.95206
  25106993.87306  23610671.13206  18397910.72109  25106862.03706  25106867.89706
  23855530.64706  -4093782.78806  -3189948.67809  23855399.39206  23855405.76406
  21724397.41906 -17644037.57306 -13748569.21509  21724265.87706  21724269.54906
  23808630.61706  -6613001.17906  -5152970.20909  23808499.02506  23808507.05406
 92  8 20 21 35 30.0000000  0  7 03 20 16 24 26 17 23
  21493609.10206 -19443326.35706 -15150625.02809  21493477.86706  21493481.44806
  21546219.22706  -4148577.20806  -3232661.93009  21546087.92406  21546092.03806
  22108343.75806  -4713256.88006  -3672657.76209  22108212.09606  22108215.44706
  25122363.37106  23691438.03806  18460845.85809  25122231.32106  25122237.53206
  23842338.10906  -4163109.20006  -3243969.00009  23842206.67106  23842212.93306
  21714638.06806 -17695323.61606 -13788532.32109  21714506.43906  21714510.08506
  23789063.37106  -6715825.55806  -5233092.83409  23788932.13006  23788939.96506
 92  8 20 21 36  0.0000000  0  8 03 20 16 24 26 17 25 23
  21484201.89106 -19492761.14906 -15189145.61609  21484070.73506  21484074.20006
  21560496.17006  -4073551.56406  -3174200.45009  21560364.88406  21560368.97406
  22121727.98006  -4642922.03806  -3617851.40509  22121596.36106  22121599.77706
  25137728.40606  23772184.18406  18523764.90809  25137596.78306  25137602.34106
  23829179.74806  -4232256.19306  -3297849.52809  23829048.16606  23829054.49606
  21704924.77706 -17746367.24806 -13828306.53509  21704793.04706  21704796.71506
  25622620.64616        -0.51916        -0.91119  25622488.97716  25622498.50316
  23769527.79406  -6818485.63706  -5313087.43709  23769396.34906  23769404.07406
 92  8 20 21 36 30.0000000  0  7 03 20 16 24 26 17 23
  21474820.25706 -19542061.93606 -15227561.78209  21474689.05906  21474692.61306
  21574853.07106  -3998106.01306  -3115411.77109  21574721.73406  21574725.82906
  22135185.36206  -4572202.98106  -3562745.66709  22135053.71506  22135057.18206
  25153086.25706  23852884.45806  18586648.14009  25152954.09706  25152959.86606
  23816051.51206  -4301244.86306  -3351606.69209  23815919.89306  23815926.19706
  21695257.96606 -17797166.24506 -13867890.12009  21695126.28806  21695130.00106
  23750023.71006  -6920980.73706  -5392953.49309  23749891.95906  23749899.71906
 92  8 20 21 37  0.0000000  0  7 03 20 16 24 26 17 23
  21465460.23106 -19591248.61306 -15265889.02709  21465329.14506  21465332.57306
  21589285.22306  -3922264.69206  -3056314.70009  21589153.90006  21589158.00306
  22148713.91906  -4501110.96206  -3507349.31309  22148582.06606  22148585.52306
  25168428.61506  23933514.02906  18649476.26209  25168296.73506  25168302.88106
  23802948.32406  -4370099.20206  -3405259.18609  23802817.26706  23802823.37606
  21685635.60506 -17847731.56606 -13907291.61909  21685503.91606  21685507.62006
  23730545.48306  -7023339.75206  -5472713.51209  23730413.62706  23730421.15206
 92  8 20 21 37 30.0000000  0  8 03 20 16 24 26 17 25 23
  21456120.35206 -19640330.30206 -15304134.46209  21455989.13006  21455992.60606
  21603790.25206  -3846040.93006  -2996919.62209  21603658.83206  21603662.97406
  22162313.17906  -4429645.90206  -3451662.27409  22162181.45006  22162184.92106
  25183756.33306  24014059.91406  18712239.23709  25183624.75906  25183630.62306
  23789873.31206  -4438808.88906  -3458798.96509  23789742.23506  23789748.20206
  21676056.72706 -17898068.77506 -13946515.37009  21675925.13806  21675928.66206
  25656692.07416        -0.13316         0.41719  25656560.85216  25656570.35416
  23711091.60206  -7125569.46506  -5552372.77309  23710959.73906  23710967.30306
 92  8 20 21 38  0.0000000  0  7 03 20 16 24 26 17 23
  21446802.11306 -19689297.89406 -15342290.99309  21446670.91706  21446674.35006
  21618369.03906  -3769429.75606  -2937222.66409  21618237.55606  21618241.59706
  22175987.81706  -4357785.29106  -3395667.01609  22175856.07506  22175859.51906
  25199068.92406  24094533.06706  18774945.45909  25198937.84406  25198943.82706
  23776830.66706  -4507349.80306  -3512207.24209  23776699.07106  23776705.00106
  21666525.07006 -17948158.01806 -13985545.90509  21666393.48706  21666396.96806
  23691662.71306  -7227668.23706  -5631930.01109  23691530.63906  23691538.28606
 92  8 20 21 38 30.0000000  0  5 03 20 16 26 17
  21437510.82206 -19738124.16406 -15380337.40309  21437379.58006  21437382.96306
  21633025.69306  -3692408.65706  -2877206.28409  21632894.28406  21632898.29206
  22189741.67406  -4285508.97406  -3339347.83309  22189609.90706  22189613.25306
  23763822.05206  -4575708.73906  -3565473.72509  23763690.68206  23763696.55606
  21657044.25706 -17997980.68106 -14024368.71209  21656912.49206  21656915.96406
 92  8 20 21 39  0.0000000  0  5 03 20 16 26 17
  21428249.31606 -19786793.59806 -15418261.60609  21428118.08406  21428121.46606
  21647762.49106  -3614966.16806  -2816861.54909  21647631.08706  21647635.18106
  22203573.59606  -4212821.67206  -3282708.40509  22203441.79906  22203445.18206
  23750853.04406  -4643860.53806  -3618578.81009  23750721.62906  23750727.52606
  21647612.39206 -18047544.81506 -14062990.06509  21647480.66006  21647484.12506
 92  8 20 21 39 30.0000000  0  5 03 20 16 26 17
  21419007.34806 -19835360.15706 -15456105.64709  21418876.19306  21418879.50506
  21662568.42706  -3537160.40306  -2756233.74409  21662437.08106  21662441.22906
  22217469.80606  -4139796.17806  -3225805.44909  22217338.15506  22217341.55006
  23737912.58906  -4711859.60206  -3671564.87909  23737781.70306  23737787.51006
  21638216.90506 -18096919.27806 -14101463.62209  21638085.13206  21638088.57606
 92  8 20 21 40  0.0000000  0  5 03 20 16 26 17
  21409778.59206 -19883857.27406 -15493895.58409  21409647.41406  21409650.81906
  21677436.24906  -3459029.28706  -2695352.42409  21677304.96006  21677309.16506
  22231420.80006  -4066484.46606  -3168679.46909  22231288.99206  22231292.34006
  23724993.72906  -4779750.00606  -3724466.28009  23724862.35006  23724868.09806
  21628849.16806 -18146145.61406 -14139821.76009  21628717.51506  21628720.92206
 92  8 20 21 40 30.0000000  0  6 03 20 16 26 17 25
  21400559.41306 -19932304.60706 -15531646.73209  21400428.21206  21400431.54406
  21692361.43806  -3380597.15106  -2634236.54109  21692230.12706  21692234.41506
  22245420.58206  -3992915.09006  -3111352.71009  22245288.72106  22245292.09406
  23712092.14906  -4847548.91506  -3777296.38609  23711960.63806  23711966.29206
  21619504.04706 -18195253.28206 -14178087.42509  21619372.61406  21619376.06106
  25725491.05816        -0.17216        -0.22019  25725359.70416  25725369.82216
 92  8 20 21 41  0.0000000  0  5 03 20 16 26 17
  21391352.29506 -19980687.78706 -15569347.89009  21391221.16706  21391224.54806
  21707346.05906  -3301853.73706  -2572878.10209  21707214.56906  21707218.85106
  22259474.39606  -3919062.26206  -3053805.08309  22259342.49906  22259345.89506
  23699213.47706  -4915225.55106  -3830031.21809  23699081.91706  23699087.69706
  21610187.01106 -18244215.62806 -14216239.84809  21610055.37906  21610058.83006
 92  8 20 21 41 30.0000000  0  5 03 20 16 26 17
  21382161.65706 -20028985.17506 -15606982.19709  21382030.43906  21382033.86206
  21722392.97906  -3222782.07206  -2511263.88409  21722261.46606  21722265.74606
  22273587.21506  -3844898.58106  -2996015.23009  22273455.34406  22273458.73606
  23686361.82706  -4982760.41406  -3882655.57809  23686230.42206  23686236.07006
  21600905.33006 -18292991.93106 -14254247.29909  21600773.56606  21600776.95606
 92  8 20 21 42  0.0000000  0  5 03 20 16 26 17
  21372997.51006 -20077142.80206 -15644507.60409  21372866.36406  21372869.77506
  21737511.56806  -3143332.78606  -2449355.41509  21737380.21506  21737384.45706
  22287773.07906  -3770352.71306  -2937927.56509  22287641.17006  22287644.48406
  23673547.70706  -5050096.71506  -3935125.22309  23673416.60606  23673422.16206
  21591671.32206 -18341516.64806 -14292058.71309  21591539.55106  21591542.92906
 92  8 20 21 42 30.0000000  0  6 03 20 16 24 26 17
  21363865.15806 -20125133.50706 -15681902.93709  21363734.02206  21363737.43506
  21752706.52506  -3063483.25506  -2387135.06709  21752575.14506  21752579.42106
  22302038.68406  -3695385.56006  -2879511.62409  22301906.87706  22301910.26206
  25336260.57616        -0.42916        -0.62319  25336129.22716  25336137.51616
  23660775.78906  -5117213.10306  -3987423.50309  23660644.57006  23660650.12806
  21582490.52806 -18389761.14706 -14329651.77309  21582358.91006  21582362.29006
 92  8 20 21 43  0.0000000  0  6 03 20 16 26 17 23
  21354764.95106 -20172955.76206 -15719167.01409  21354633.69906  21354637.10206
  21767977.17706  -2983236.10506  -2324604.88609  21767845.72506  21767849.98806
  22316382.63706  -3620007.13506  -2820775.21009  22316250.86806  22316254.25106
  23648046.43306  -5184105.37106  -4039547.14609  23647915.15206  23647920.50006
  21573362.90906 -18437726.28406 -14367027.15109  21573231.34206  21573234.80406
  23498667.97816         0.31316         0.28119  23498536.39616  23498543.40616
 92  8 20 21 43 30.0000000  0  6 03 20 16 26 17 23
  21345697.92106 -20220603.01106 -15756294.71909  21345566.74006  21345570.10706
  21783323.76006  -2902589.17906  -2261763.19009  21783192.33906  21783196.67806
  22330803.33206  -3544226.15206  -2761725.11709  22330671.56006  22330674.98606
  23635360.98606  -5250767.65606  -4091491.57909  23635229.67206  23635235.00706
  21564287.08806 -18485420.61706 -14404191.51309  21564155.39006  21564158.85606
  23479547.10206   -100482.01706    -78297.42609  23479415.07506  23479422.10606
 92  8 20 21 44  0.0000000  0  6 03 20 16 26 17 23
  21336664.24406 -20268075.72806 -15793286.42509  21336532.98706  21336536.34706
  21798745.45406  -2821548.09006  -2198614.36109  21798613.99306  21798618.37906
  22345297.80306  -3468056.99006  -2702372.55109  22345166.00206  22345169.52706
  23622719.24006  -5317200.65806  -4143257.35009  23622587.66106  23622592.97106
  21555259.68006 -18532859.75006 -14441157.02009  21555128.03106  21555131.38306
  23460461.81706   -200773.68906   -156446.57209  23460329.96606  23460336.94106
 92  8 20 21 44 30.0000000  0  6 03 20 16 26 17 23
  21327660.89206 -20315388.38506 -15830153.40209  21327529.67706  21327533.06406
  21814238.46306  -2740131.46806  -2135172.90909  21814107.10806  21814111.48306
  22359857.66906  -3391544.68506  -2642752.59609  22359725.89006  22359729.35706
  23610119.58206  -5383410.08106  -4194848.91809  23609988.38206  23609993.60306
  21546275.32606 -18580072.29606 -14477945.96609  21546143.66606  21546147.02806
  23441408.22706   -300899.45506   -234466.44109  23441276.68306  23441283.44606
 92  8 20 21 45  0.0000000  0  6 03 20 16 26 17 23
  21318684.52806 -20362559.43706 -15866910.03609  21318553.30506  21318556.61906
  21829798.55706  -2658362.39406  -2071456.82109  21829667.26706  21829671.75506
  22374474.66406  -3314731.89706  -2582898.49409  22374342.92406  22374346.33706
  23597561.26006  -5449402.90506  -4246271.71509  23597430.03406  23597435.36706
  21537330.78306 -18627075.80406 -14514572.02509  21537199.15506  21537202.55006
  23422381.57006   -400884.82406   -312376.91909  23422249.95206  23422256.64706
 92  8 20 21 45 30.0000000  0  6 03 20 16 26 17 23
  21309734.93706 -20409590.05106 -15903557.23909  21309603.69406  21309606.97006
  21845424.78406  -2576246.72506  -2007470.65909  21845293.45806  21845297.88706
  22389146.29706  -3237631.48806  -2522820.27609  22389014.63806  22389018.06006
  23585041.69106  -5515192.83806  -4297536.42109  23584910.45506  23584915.70606
  21528426.92406 -18673865.19906 -14551031.24309  21528295.38806  21528298.73406
  23403384.64506   -500714.77706   -390166.29809  23403252.91006  23403259.50406
 92  8 20 21 46  0.0000000  0  6 03 20 16 26 17 23
  21300812.54106 -20456477.45206 -15940092.84609  21300681.29706  21300684.57006
  21861116.58506  -2493786.22606  -1943215.79709  21860985.20806  21860989.61606
  22403873.36806  -3160240.97506  -2462516.00209  22403741.55106  22403745.04406
  23572560.41806  -5580783.03106  -4348645.48909  23572429.08006  23572434.32106
  21519564.72106 -18720437.21306 -14587321.07709  21519433.03206  21519436.33406
  23384421.99306   -600362.35306   -467813.56109  23384290.49006  23384297.07206
 92  8 20 21 46 30.0000000  0  6 03 20 16 26 17 23
  21291921.84006 -20503198.10506 -15976498.52009  21291790.64206  21291793.88106
  21876877.68706  -2410962.04806  -1878677.55109  21876746.14406  21876750.65906
  22418660.71406  -3082532.50706  -2401963.97109  22418528.99306  22418532.38106
  23560121.65406  -5646150.61206  -4399581.10309  23559990.05806  23559995.10106
  21510749.29706 -18766762.77106 -14623418.86409  21510617.57706  21510620.81106
  23365497.54106   -699808.43806   -545303.82109  23365366.20706  23365372.82806
 92  8 20 21 47  0.0000000  0  6 03 20 16 26 17 23
  21283065.58106 -20549738.43206 -16012763.68109  21282934.27006  21282937.50706
  21892709.56606  -2327764.95406  -1813848.71909  21892578.11106  21892582.60106
  22433514.81706  -3004473.69606  -2341138.95009  22433383.14106  22433386.57006
  23547724.76906  -5711294.72706  -4450342.59609  23547593.35506  23547598.37306
  21501983.88906 -18812825.02606 -14659311.48109  21501852.13406  21501855.44306
  23346614.56006   -799039.55906   -622626.57709  23346483.04306  23346489.68606
 92  8 20 21 47 30.0000000  0  7 03 20 16 26 24 17 23
  21274237.59406 -20596128.87006 -16048912.04909  21274106.39406  21274109.64006
  21908605.74806  -2244230.27106  -1748756.83709  21908474.26006  21908478.78506
  22448433.93606  -2926073.20106  -2280047.68109  22448302.22806  22448305.63406
  23535362.89306  -5776255.48506  -4500961.21409  23535231.38806  23535236.53406
  25487378.95116         0.11816        -0.13619  25487247.18316  25487253.29916
  21493260.71906 -18858665.25206 -14695031.09109  21493128.98606  21493132.31806
  23327767.91506   -898080.88806   -699801.44409  23327635.81606  23327642.42106
 92  8 20 21 48  0.0000000  0  6 03 20 16 26 17 23
  21265430.23106 -20642411.83306 -16084976.67309  21265299.02206  21265302.31106
  21924557.08006  -2160405.35406  -1683438.79609  21924425.61106  21924430.22506
  22463414.43906  -2847350.80506  -2218705.58009  22463282.62506  22463286.09606
  23523030.01406  -5841064.57606  -4551461.65509  23522898.61106  23522903.66606
  21484569.60806 -18904336.60706 -14730619.11309  21484437.91106  21484441.30506
  23308944.76206   -996994.17506   -776876.54109  23308813.21006  23308819.85206
 92  8 20 21 48 30.0000000  0  6 03 20 16 26 17 23
  21256642.65006 -20688590.22606 -16120959.81609  21256511.58706  21256514.82506
  21940562.21006  -2076297.56306  -1617900.33709  21940430.88806  21940435.46106
  22478455.31206  -2768311.01706  -2157116.15809  22478323.45006  22478326.86906
  23510727.40506  -5905713.66806  -4601837.43209  23510596.07406  23510601.23206
  21475909.18506 -18949847.09106 -14766081.77809  21475777.53506  21475780.93706
  23290142.77706  -1095799.08306   -853867.18309  23290011.09706  23290017.66006
 92  8 20 21 49  0.0000000  0  6 03 20 16 26 17 23
  21247885.68406 -20734608.96206 -16156818.55809  21247754.49706  21247757.77506
  21956630.85706  -1991856.50206  -1552102.19209  21956499.55506  21956504.15006
  22493563.75406  -2688915.88906  -2095249.85609  22493431.86706  22493435.34506
  23498468.02706  -5970136.80806  -4652037.15309  23498336.76506  23498341.84006
  21467288.08506 -18995150.68306 -14801383.23109  21467156.51006  21467159.87106
  23271373.50106  -1194431.48006   -930723.40409  23271241.87106  23271248.33806
 92  8 20 21 49 30.0000000  0  6 03 20 16 26 17 23
  21239168.91106 -20780415.81506 -16192512.19509  21239037.74906  21239041.01206
  21972771.96606  -1907034.63306  -1486007.31009  21972640.70106  21972645.35006
  22508746.17306  -2609132.10106  -2033080.69909  22508614.28406  22508617.72206
  23486264.65606  -6034265.79706  -4702007.65309  23486133.35806  23486138.26606
  21458716.60606 -19040194.22506 -14836482.04509  21458585.00006  21458588.27506
  23252647.81606  -1292834.64706  -1007401.00409  23252516.24806  23252522.65006
 92  8 20 21 50  0.0000000  0  6 03 20 16 26 17 23
  21230499.49906 -20825974.10706 -16228012.15009  21230368.27306  21230371.58606
  21988991.70006  -1821800.11306  -1419590.88709  21988860.32706  21988864.99706
  22524004.96606  -2528947.03806  -1970598.86409  22523872.99706  22523876.37606
  23474127.44306  -6098047.62506  -4751707.63809  23473996.17406  23474000.93306
  21450202.01306 -19084938.71306 -14871347.83009  21450070.35206  21450073.60706
  23233972.85906  -1390972.16506  -1083871.60609  23233841.11706  23233847.36806
 92  8 20 21 50 30.0000000  0  6 03 20 16 26 17 23
  21221874.44106 -20871298.22706 -16263329.63309  21221743.29106  21221746.64706
  22005286.33906  -1736172.24006  -1352867.95509  22005154.83606  22005159.54406
  22539331.56206  -2448404.68606  -1907838.62309  22539199.75906  22539203.15806
  23462053.89006  -6161494.88606  -4801146.92709  23461922.42106  23461927.15806
  21441742.12006 -19129395.54406 -14905989.46709  21441610.45106  21441613.67006
  23215348.24406  -1488844.45406  -1160135.53509  23215216.46006  23215222.74506
 92  8 20 21 51  0.0000000  0  6 03 20 16 26 17 23
  21213288.95206 -20916415.84206 -16298486.20109  21213157.74306  21213161.03806
  22021649.55806  -1650183.08206  -1285863.50109  22021518.08506  22021522.77806
  22554719.69906  -2367539.36706  -1844826.72109  22554587.81406  22554591.33406
  23450037.13606  -6224641.90806  -4850352.26509  23449905.84006  23449910.52506
  21433333.24806 -19173583.59506 -14940421.66609  21433201.63406  21433204.85906
  23196770.65406  -1586470.57506  -1236207.64609  23196638.76906  23196644.99406
 92  8 20 21 51 30.0000000  4  1
 -2439737.0000 -4645851.0000  3615005.0000                  APPROX POSITION XYZ
 92  8 20 21 51 30.0000000  0  6 03 20 16 26 17 23
  21204737.93706 -20961351.48806 -16333500.97409  21204606.72506  21204610.09406
  22038075.82406  -1563862.32106  -1218600.65409  22037944.46506  22037949.09206
  22570166.23106  -2286367.35506  -1781575.83609  22570034.38306  22570037.77006
  23438071.85506  -6287517.72506  -4899346.27109  23437940.80906  23437945.53606
  21424972.47406 -19217520.49406 -14974658.16609  21424840.76406  21424843.98506
  23178233.73906  -1683881.82206  -1312112.32109  23178101.88206  23178108.04106
 92  8 20 21 52  0.0000000  0  6 03 20 16 26 17 23
  21196226.11906 -21006080.86806 -16368355.02009  21196095.02406  21196098.34806
  22054569.03506  -1477190.53606  -1151064.28309  22054437.66006  22054442.27506
  22585676.57506  -2204861.22706  -1718064.59909  22585544.52306  22585547.94706
  23426162.79806  -6350100.00106  -4948111.54809  23426031.52306  23426036.24606
  21416661.71306 -19261194.08406 -15008689.49009  21416530.02006  21416533.25306
  23159742.89306  -1781050.72106  -1387828.15509  23159611.06806  23159617.20806
 92  8 20 21 52 30.0000000  0  6 03 20 16 26 17 23
  21187765.73106 -21050539.88806 -16402998.39509  21187634.70106  21187638.03806
  22071140.29906  -1390108.23606  -1083208.02909  22071008.93306  22071013.57106
  22601262.48106  -2122955.57206  -1654242.03909  22601130.65806  22601134.06506
  23414320.62106  -6412330.48506  -4996602.70509  23414189.44206  23414194.19706
  21408413.37806 -19304538.91006 -15042464.63709  21408281.67806  21408284.95706
  23141309.47406  -1877916.96906  -1463308.15809  23141177.95306  23141183.93006
 92  8 20 21 53  0.0000000  0  6 03 20 16 26 17 23
  21179364.02006 -21094691.71106 -16437402.39809  21179232.91206  21179236.16406
  22087795.78506  -1302583.69906  -1015007.17909  22087664.34106  22087669.01306
  22616931.63406  -2040614.07706  -1590079.86609  22616799.83306  22616803.29906
  23402552.10306  -6474174.81406  -5044792.96609  23402420.88906  23402425.54406
  21400232.63706 -19347528.66506 -15075963.10809  21400100.97506  21400104.26306
  23122939.81306  -1974450.04706  -1538528.54809  23122808.10306  23122814.21006
 92  8 20 21 53 30.0000000  0  6 03 20 16 26 17 23
  21171015.69306 -21138562.96906 -16471587.77309  21170884.47006  21170887.79206
  22104529.40906  -1214648.61006   -946486.41309  22104397.90206  22104402.62706
  22632677.52006  -1957869.42106  -1525603.54409  22632545.65206  22632549.16006
  23390853.70306  -6535650.11006  -5092695.66809  23390722.44806  23390727.00406
  21392111.82506 -19390203.16806 -15109215.92509  21391980.21806  21391983.44806
  23104628.71706  -2070673.94406  -1613508.02209  23104497.17206  23104503.14506
 92  8 20 21 54  0.0000000  0  6 03 20 16 26 17 23
  21162717.26006 -21182171.26806 -16505568.24309  21162586.07206  21162589.30306
  22121336.83306  -1126324.68806   -877662.66409  22121205.50806  22121210.18506
  22648494.07406  -1874752.84706  -1460837.41609  22648362.21606  22648365.74606
  23379222.56106  -6596772.31906  -5140323.24709  23379091.28506  23379095.74606
  21384045.30106 -19432592.53406 -15142246.55909  21383913.74806  21383916.99706
  23086374.23206  -2166602.93306  -1688257.70009  23086242.31806  23086248.30006
 92  8 20 21 54 30.0000000  0  6 03 20 16 26 17 23
  21154468.80006 -21225517.17506 -16539344.25009  21154337.62606  21154340.85606
  22138217.18006  -1037617.87906   -808540.56509  22138085.87306  22138090.64306
  22664378.04706  -1791282.39406  -1395795.54409  22664246.16506  22664249.73506
  23367655.82106  -6657556.43906  -5187687.37809  23367524.37406  23367528.86706
  21376034.22506 -19474691.97806 -15175051.28209  21375902.50306  21375905.74406
  23068174.56006  -2262241.88706  -1762781.38209  23068042.67606  23068048.63006
 92  8 20 21 55  0.0000000  0  6 03 20 16 26 17 23
  21146266.33106 -21268621.99306 -16572932.39609  21146135.01406  21146138.25806
  22155165.73506   -948554.25806   -739140.43109  22155034.19306  22155038.96506
  22680325.86706  -1707475.73806  -1330491.68609  22680194.05306  22680197.52006
  23356148.41806  -6718025.55806  -5234806.06809  23356017.25006  23356021.75006
  21368070.88706 -19516538.49706 -15207658.91909  21367939.29606  21367942.51406
  23050028.09206  -2357601.01106  -1837087.01809  23049896.32006  23049902.22606
 92  8 20 21 55 30.0000000  0  6 03 20 16 26 17 23
  21138102.49706 -21311522.35306 -16606361.22209  21137971.31706  21137974.55706
  22172173.91306   -859175.63506   -669494.83809  22172042.49806  22172047.25506
  22696330.10306  -1623372.71506  -1264956.89309  22696198.31106  22696201.86006
  23344693.88406  -6778219.34206  -5281710.22209  23344562.65006  23344567.22406
  21360150.37606 -19558161.85106 -15240092.66209  21360018.63306  21360021.79406
  23031928.32106  -2452715.17906  -1911201.77909  23031796.55106  23031802.48106
 92  8 20 21 56  0.0000000  0  6 03 20 16 26 17 23
  21129968.69406 -21354265.64106 -16639667.65409  21129837.54206  21129840.74206
  22189232.09606   -769533.99106   -599644.29709  22189100.77806  22189105.58206
  22712381.83906  -1539020.45306  -1199227.88709  22712250.06906  22712253.61006
  23333280.14106  -6838199.24806  -5328447.71809  23333148.74806  23333153.31506
  21352264.75006 -19599600.86306 -15272382.76309  21352133.09306  21352136.20606
  23013865.40406  -2547635.33606  -1985165.36609  23013733.64106  23013739.44406
 92  8 20 21 56 30.0000000  0  6 03 20 16 26 17 23
  21121856.92806 -21396892.72006 -16672883.53809  21121725.83206  21121729.02306
  22206331.74906   -679674.97406   -529624.37509  22206200.54006  22206205.29706
  22728474.96306  -1454452.06306  -1133330.47709  22728342.89306  22728346.50906
  23321898.59106  -6898009.84706  -5375053.28409  23321767.07806  23321771.55606
  21344408.62006 -19640883.93606 -15304551.35209  21344277.08506  21344280.26406
  22995831.66606  -2642402.10806  -2059009.43909  22995700.08206  22995705.87606
 92  8 20 21 57  0.0000000  0  6 03 20 16 26 17 23
  21113765.85506 -21439411.94906 -16706015.38409  21113634.70206  21113637.85606
  22223470.30806   -589611.97306   -459445.50909  22223338.93606  22223343.76506
  22744608.70806  -1369667.12006  -1067264.31609  22744476.79306  22744480.56206
  23310551.18706  -6957640.90506  -5421518.95809  23310419.50606  23310424.01806
  21336581.25306 -19682017.55206 -15336603.47809  21336449.57206  21336452.76906
  22977824.30106  -2737030.34506  -2132745.56209  22977692.79806  22977698.50206
 92  8 20 21 57 30.0000000  0  6 03 20 16 26 17 23
  21105702.43306 -21481786.00106 -16739034.10809  21105571.16406  21105574.32306
  22240653.88006   -499312.80706   -389082.62009  22240522.33006  22240527.19406
  22760788.93506  -1284639.76406  -1001009.26909  22760657.01606  22760660.73906
  23299245.55406  -7017051.91106  -5467813.16309  23299114.06406  23299118.52506
  21328792.74606 -19722946.35306 -15368496.00609  21328661.12406  21328664.30206
  22959849.34106  -2831489.40506  -2206349.86109  22959717.64006  22959723.36806
 92  8 20 21 58  0.0000000  0  6 03 20 16 26 17 23
  21097673.55306 -21523977.95306 -16771910.93809  21097542.28506  21097545.45306
  22257888.33706   -408745.61106   -318510.87309  22257756.81106  22257761.62306
  22777023.61506  -1199325.56406   -934530.70109  22776891.77006  22776895.55306
  23287989.79006  -7076200.13806  -5513902.60309  23287858.47106  23287862.85106
  21321048.53306 -19763641.59906 -15400206.54109  21320916.98806  21320920.12706
  22941914.19506  -2925740.24506  -2279791.91509  22941782.24706  22941787.84106
 92  8 20 21 58 30.0000000  0  6 03 20 16 26 17 23
  21089677.41306 -21565997.76006 -16804653.62709  21089546.17306  21089549.36506
  22275170.69506   -317925.36706   -247741.94809  22275039.40706  22275044.26906
  22793309.97406  -1113741.36906   -867841.75409  22793178.02406  22793181.68506
  23276784.40406  -7135083.91806  -5559785.97409  23276653.14806  23276657.59506
  21313344.48506 -19804127.09806 -15431753.63209  21313212.83306  21313215.96806
  22924014.18206  -3019804.38506  -2353088.49209  22923882.29206  22923887.84506
 92  8 20 21 59  0.0000000  0  6 03 20 16 26 17 23
  21081718.91806 -21607819.36106 -16837241.86909  21081587.75006  21081590.93306
  22292505.43006   -226831.02906   -176759.44209  22292374.17106  22292379.02506
  22809649.38206  -1027876.45006   -800934.05109  22809517.60206  22809521.33606
  23265635.66106  -7193672.02706  -5605438.95009  23265504.13906  23265508.66506
  21305682.86206 -19844389.57806 -15463126.94209  21305551.13906  21305554.24106
  22906154.14706  -3113658.48406  -2426221.39609  22906022.27306  22906027.92406
 92  8 20 21 59 30.0000000  0  6 03 20 16 26 17 23
  21073802.92106 -21649418.42506 -16869656.70809  21073671.71206  21073674.85306
  22309896.32106   -135443.07006   -105548.14409  22309764.73806  22309769.68506
  22826044.55906   -941720.74306   -733799.76609  22825912.58706  22825916.29506
  23254546.94506  -7251942.76006  -5650844.61009  23254415.48606  23254419.99506
  21298065.63606 -19884418.51206 -15494318.27409  21297933.86706  21297936.87406
  22888340.17306  -3207270.73806  -2499165.85609  22888208.40106  22888214.03906
 92  8 20 22  0  0.0000000  0  6 03 20 16 26 17 23
  21065931.42506 -21690783.11406 -16901888.91709  21065800.29106  21065803.41406
  22327344.19006    -43754.75506    -34102.80009  22327212.55506  22327217.49806
  22842495.16106   -855271.33006   -666436.61409  22842363.33406  22842366.98606
  23243522.14806  -7309878.66106  -5695989.35209  23243390.56006  23243394.93206
  21290491.98406 -19924217.83306 -15525330.68809  21290360.30206  21290363.31106
  22870573.42706  -3300635.00506  -2571917.08409  22870441.71306  22870447.24506
 92  8 20 22  0 30.0000000  0  6 03 20 16 26 17 23
  21058109.04806 -21731889.47306 -16933919.83209  21057977.97006  21057981.13206
  22344852.61106     48253.09406     37591.52809  22344721.17706  22344726.21106
  22859003.08206   -768521.46606   -598839.34409  22858871.21906  22858874.97206
  23232566.80406  -7367448.14506  -5740848.56309  23232435.27306  23232439.68606
  21282965.94606 -19963766.42406 -15556147.73009  21282834.36506  21282837.41106
  22852858.54606  -3393725.41006  -2644454.91209  22852727.10106  22852732.58406
 92  8 20 22  1  0.0000000  0  6 03 20 16 26 17 23
  21050336.98206 -21772731.78006 -16965744.98709  21050205.86706  21050209.07206
  22362422.13006    140580.75806    109535.06009  22362290.66206  22362295.62306
  22875568.09206   -681470.89806   -531007.76009  22875436.45206  22875440.05306
  23221683.77206  -7424638.54306  -5785412.39009  23221552.28006  23221556.74206
  21275490.44506 -20003049.95606 -15586758.23109  21275358.90006  21275361.94506
  22835200.87606  -3486517.19406  -2716760.05609  22835069.36006  22835074.72906
 92  8 20 22  1 30.0000000  0  6 03 20 16 26 17 23
  21042616.42706 -21813303.85706 -16997359.57309  21042485.28906  21042488.46706
  22380052.67206    233229.47906    181728.76809  22379921.13806  22379926.17406
  22892191.52706   -594115.22506   -462938.43309  22892059.76706  22892063.48906
  23210873.69306  -7481444.87906  -5829676.95209  23210742.16406  23210746.54406
  21268067.22506 -20042059.12106 -15617154.94009  21267935.60006  21267938.62606
  22817601.78906  -3579001.38606  -2788825.51509  22817470.01206  22817475.36206
 92  8 20 22  2  0.0000000  0  6 03 20 16 26 17 23
  21034950.18206 -21853590.33406 -17028751.61009  21034819.00506  21034822.16806
  22397746.16406    326209.53906    254180.65909  22397614.75406  22397619.87006
  22908876.19506   -506436.89206   -394617.68709  22908744.36506  22908748.16406
  23200139.46706  -7537853.33906  -5873631.48009  23200007.99506  23200012.22606
  21260701.42806 -20080766.68106 -15647316.63509  21260569.82606  21260572.80106
  22800064.62506  -3671158.79606  -2860636.34209  22799932.92206  22799938.21206
 92  8 20 22  2 30.0000000  0  6 03 20 16 26 17 23
  21027338.23806 -21893591.35106 -17059921.20809  21027207.01806  21027210.19406
  22415501.84206    419515.47706    326886.47709  22415370.29706  22415375.49606
  22925622.68106   -418433.81806   -326043.89509  22925490.89306  22925494.61606
  23189479.13206  -7593872.19006  -5917282.41809  23189347.88106  23189352.12206
  21253393.29106 -20119170.58806 -15677241.71609  21253261.73606  21253264.76506
  22782591.74306  -3762979.41506  -2932184.73709  22782460.01506  22782465.22006
 92  8 20 22  3  0.0000000  0  6 03 17 20 16 26 23
  21019771.95306 -21933351.84406 -17090903.38309  21019640.85306  21019643.97706
  21246134.41206 -20157316.22306 -15706965.54509  21246002.82906  21246005.84306
  22433309.98906    513097.69706    399807.58209  22433178.54106  22433183.67806
  22942420.93506   -330159.34906   -257258.63409  22942289.03006  22942292.78006
  23178881.78906  -7649561.69106  -5960676.72109  23178750.42606  23178754.61706
  22765172.22006  -3854518.37606  -3003513.66009  22765040.65606  22765045.76206
 92  8 20 22  3 30.0000000  0  6 03 17 20 16 26 23
  21012238.55706 -21972940.06306 -17121751.31809  21012107.44106  21012110.54706
  21238908.63806 -20195288.30706 -15736554.14309  21238776.95106  21238779.91606
  22451156.65006    606882.68506    472886.68909  22451025.36206  22451030.47506
  22959256.74206   -241685.69006   -188318.15709  22959124.90206  22959128.70406
  23168331.67006  -7705003.96706  -6003878.38309  23168200.08606  23168204.28506
  22747793.37306  -3945843.67206  -3074676.09409  22747661.86506  22747667.00206
 92  8 20 22  4  0.0000000  0  6 03 17 20 16 26 23
  21004725.07306 -22012423.74506 -17152517.79809  21004593.87706  21004597.04706
  21231702.26606 -20233157.65506 -15766062.69409  21231570.56506  21231573.52006
  22469028.17906    700797.52006    546066.96909  22468896.87406  22468901.96906
  22976118.49006   -153077.73906   -119273.03709  22975986.59306  22975990.22206
  23157813.73306  -7760274.47206  -6046946.19709  23157682.41506  23157686.53206
  22730444.13606  -4037013.91506  -3145717.71209  22730312.59706  22730317.74306
 92  8 20 22  4 30.0000000  0  6 03 17 20 16 26 23
  20997234.36406 -22051787.30006 -17183190.67309  20997103.24806  20997106.38806
  21224515.31406 -20270924.78706 -15795491.59509  21224383.70806  21224386.60906
  22486926.45906    794852.84506    619356.72509  22486794.99106  22486800.20106
  22993006.74506    -64328.32906    -50117.69109  22992875.00806  22992878.78106
  23147330.58906  -7815363.04406  -6089872.24309  23147199.21506  23147203.49006
  22713126.92606  -4128017.24406  -3216629.26609  22712995.05506  22713000.29206
 92  8 20 22  5  0.0000000  0  6 03 17 20 16 26 23
  20989774.91806 -22090987.11206 -17213735.96109  20989643.76206  20989646.91606
  21217356.00106 -20308548.07106 -15824808.41509  21217224.33406  21217227.29206
  22504858.58606    889086.77706    692785.64909  22504727.29606  22504732.45706
  23009929.59206     24599.76406     19176.88609  23009797.57306  23009801.26206
  23136890.98506  -7870222.70706  -6132619.93209  23136759.55306  23136763.85306
  22695849.23806  -4218811.73906  -3287378.09809  22695717.34206  22695722.56406
 92  8 20 22  5 30.0000000  0  6 17 20 16 26 23 03
  21210233.48206 -20345976.68506 -15853973.53709  21210101.83206  21210104.81906
  22522833.35706    983544.21406    766388.74109  22522702.01406  22522707.21606
  23026896.48206    113763.35706     88654.97509  23026764.77906  23026768.55506
  23126506.82106  -7924790.37406  -6175140.08809  23126375.61606  23126379.95706
  22678621.72806  -4309342.10706  -3357921.11009  22678489.93406  22678495.03306
  20982355.97806 -22129973.74106 -17244115.13209  20982224.85706  20982227.97606
 92  8 20 22  6  0.0000000  0  6 17 20 16 26 23 03
  21203159.19206 -20383151.87906 -15882941.18609  21203027.57706  21203030.51306
  22540857.67306   1078262.61206    840195.18009  22540726.34106  22540731.59306
  23043915.15606    203195.16806    158342.06109  23043783.22106  23043786.97906
  23116188.77806  -7979011.14906  -6217389.92809  23116057.66006  23116061.79306
  22661446.65406  -4399597.14006  -3428249.57909  22661314.96506  22661320.04906
  20974985.92206 -22168704.11106 -17274294.62309  20974854.69606  20974857.80506
 92  8 20 22  6 30.0000000  0  6 17 20 16 26 23 03
  21196136.69306 -20420055.40006 -15911697.14509  21196005.03606  21196007.97706
  22558933.90206   1173253.85206    914214.22109  22558802.62406  22558807.85206
  23060985.54206    292900.43906    228242.23909  23060853.46606  23060857.16606
  23105944.13506  -8032849.19506  -6259341.53909  23105812.54506  23105816.60606
  22644323.23606  -4489579.97406  -3498365.94909  22644191.73506  22644196.68406
  20967667.56106 -22207161.57906 -17304261.46609  20967536.46806  20967539.58706
 92  8 20 22  7  0.0000000  0  6 17 20 16 26 23 03
  21189164.23706 -20456696.25906 -15940248.42809  21189032.52506  21189035.44806
  22577057.30506   1268491.79206    988425.49309  22576925.84206  22576931.13606
  23078104.92906    382864.50706    298344.06909  23077973.12206  23077976.87106
  23095771.01006  -8086310.64206  -6300999.70709  23095639.24206  23095643.23206
  22627246.81206  -4579317.45406  -3568291.14009  22627115.12906  22627120.08406
  20960397.37806 -22245366.72206 -17334031.69609  20960266.24806  20960269.39706
 92  8 20 22  7 30.0000000  0  6 17 20 16 26 23 03
  21182243.96506 -20493061.21506 -15968584.71409  21182112.43306  21182115.41106
  22595229.83006   1363990.09006   1062839.64609  22595098.62806  22595104.02806
  23095276.24806    473100.18406    368657.54409  23095144.47806  23095148.22306
  23085674.52906  -8139367.02006  -6342342.23109  23085542.85706  23085546.89606
  22610219.60206  -4668796.18206  -3638014.70109  22610087.90706  22610092.83306
  20953178.69006 -22283301.30006 -17363591.09409  20953047.52906  20953050.68706
 92  8 20 22  8  0.0000000  0  6 17 20 16 26 23 03
  21175381.95706 -20529121.48206 -15996683.57409  21175250.39606  21175253.32506
  22613457.87206   1459778.67106   1137479.99809  22613326.65606  22613332.14206
  23112504.78106    563636.74106    439205.48609  23112372.93006  23112376.81106
  23075661.77806  -8191983.18506  -6383341.74009  23075530.26406  23075534.13306
  22593249.40606  -4757974.27906  -3707504.00109  22593117.66406  22593122.60106
  20946018.14306 -22320929.90906 -17392912.07709  20945887.06506  20945890.18006
 92  8 20 22  8 30.0000000  0  6 17 20 16 26 23 03
  21168584.43206 -20564843.39106 -16024518.77909  21168452.71806  21168455.59206
  22631751.06406   1555909.72906   1212387.21209  22631619.89506  22631625.40806
  23129802.94306    654539.14206    510038.47909  23129671.17206  23129675.03606
  23065742.57906  -8244108.27606  -6423958.59609  23065611.08306  23065614.94206
  22576353.10606  -4846764.80806  -3776691.30009  22576221.29606  22576226.18506
  20938926.70806 -22358195.33606 -17421950.06309  20938795.68406  20938798.83106
 92  8 20 22  9  0.0000000  0  6 17 20 16 26 23 03
  21161851.89706 -20600222.29806 -16052086.71109  21161720.24106  21161723.17906
  22650111.22706   1652391.66706   1287567.83409  22649979.80506  22649985.39106
  23147172.26806    745815.11606    581162.58409  23147040.41506  23147044.34506
  23055915.91306  -8295746.22406  -6464195.86409  23055784.58906  23055788.63806
  22559535.56306  -4935139.85006  -3845554.84109  22559403.82606  22559408.83406
  20931907.09906 -22395083.71906 -17450694.24709  20931776.02906  20931779.13206
 92  8 20 22  9 30.0000000  0  6 17 20 16 26 23 03
  21155177.99506 -20635293.48706 -16079414.86109  21155046.43506  21155049.31706
  22668533.06706   1749198.95906   1363001.98009  22668401.79206  22668407.32806
  23164606.31306    837430.14806    652550.87609  23164474.28906  23164478.18806
  23046174.49206  -8346935.21806  -6504083.30309  23046043.50206  23046047.50506
  22542795.00506  -5023111.65706  -3914104.17209  22542663.22406  22542668.20606
  20924955.48306 -22431615.12006 -17479160.26309  20924824.35506  20924827.42206
 92  8 20 22 10  0.0000000  0  6 17 20 16 26 23 03
  21148559.46806 -20670074.52706 -16106516.92109  21148427.81806  21148430.62406
  22687013.39506   1846313.98706   1438675.91709  22686882.27606  22686887.77606
  23182101.33006    929368.10406    724190.80509  23181969.29406  23181973.27006
  23036513.52406  -8397705.54206  -6543644.51209  23036382.25706  23036386.11206
  22526129.85506  -5110686.71306  -3982344.34309  22525998.14606  22526002.97606
  20918069.19006 -22467802.43206 -17507358.15909  20917938.11706  20917941.18506
 92  8 20 22 10 30.0000000  0  6 17 20 16 26 23 03
  21141995.79006 -20704566.81906 -16133393.98109  21141864.14506  21141866.91506
  22705550.57606   1943726.16606   1514581.40309  22705419.23706  22705424.84206
  23199652.95206   1021604.47606    796063.25409  23199521.36506  23199525.29906
  23026930.98306  -8448063.18006  -6582884.16609  23026799.45806  23026803.32006
  22509539.13806  -5197871.67406  -4050280.54709  22509407.38806  22509412.17206
  20911247.43006 -22503651.19706 -17535292.24709  20911116.32606  20911119.37906
 92  8 20 22 11  0.0000000  0  6 17 20 16 26 23 03
  21135482.36906 -20738794.94306 -16160065.19809  21135350.68606  21135353.48406
  22724134.96706   2041386.58506   1590680.31909  22724003.47506  22724009.12306
  23217250.77406   1114080.56606    868122.49409  23217119.07006  23217123.09206
  23017418.01706  -8498052.82306  -6621837.06709  23017286.79606  23017290.45906
  22493013.14306  -5284715.76306  -4117951.13709  22492881.38206  22492886.11006
  20904481.85606 -22539204.78906 -17562996.32909  20904350.67506  20904353.73506
 92  8 20 22 11 30.0000000  0  6 17 20 16 26 23 03
  21129006.40506 -20772826.17106 -16186582.98809  21128874.70606  21128877.55506
  22742752.12206   2139219.78706   1666913.87809  22742620.57906  22742626.32706
  23234880.10006   1206722.64006    940311.07209  23234748.31106  23234752.15106
  23007965.40006  -8547728.41206  -6660545.24409  23007833.88806  23007837.65106
  22476537.15906  -5371297.39006  -4185417.21509  22476405.42106  22476410.08406
  20897758.88006 -22574533.75206 -17590525.37109  20897627.79306  20897630.84306
 92  8 20 22 12  0.0000000  0  6 17 20 16 26 23 03
  21122560.57006 -20806698.24606 -16212976.77209  21122429.06606  21122431.86206
  22761393.31206   2237179.90706   1743246.32609  22761261.82506  22761267.62806
  23252532.69306   1299486.58406   1012594.62209  23252400.92006  23252404.71006
  22998566.93306  -8597116.75406  -6699029.59009  22998435.51706  22998439.21806
  22460102.05706  -5457664.29306  -4252715.97809  22459970.30906  22459974.98206
  20891071.09106 -22609678.49306 -17617910.86409  20890939.98706  20890942.99306
 92  8 20 22 12 30.0000000  0  6 17 20 16 26 23 03
  21116148.44106 -20840394.44006 -16239233.51109  21116016.82206  21116019.59406
  22780060.82206   2335278.61506   1819686.76709  22779929.62006  22779935.25106
  23270210.37106   1392385.69606   1084983.48909  23270078.80106  23270082.86306
  22989228.54406  -8646188.58506  -6737267.30709  22989097.28906  22989100.95906
  22443708.53806  -5543812.17106  -4319844.07309  22443576.78406  22443581.44906
  20884421.52306 -22644621.92506 -17645139.49109  20884290.39406  20884293.47206
 92  8 20 22 13  0.0000000  0  6 17 20 16 26 23 03
  21109771.09006 -20873907.82106 -16265347.80009  21109639.36206  21109642.20306
  22798759.46506   2433539.79906   1896253.81209  22798628.08206  22798633.77506
  23287922.22706   1485462.34906   1157510.70309  23287790.76706  23287794.72206
  22979956.26106  -8694914.42706  -6775235.42909  22979824.87406  22979828.76606
  22427359.73606  -5629724.40906  -4386788.55209  22427228.09406  22427232.68906
  20877815.85306 -22679335.15406 -17672188.73509  20877684.67606  20877687.77706
 92  8 20 22 13 30.0000000  0  6 17 20 16 26 23 03
  21103422.54006 -20907268.77106 -16291343.31609  21103290.94906  21103293.78306
  22817487.02406   2531952.64406   1972939.03309  22817355.52806  22817361.16806
  23305667.21406   1578710.86406   1230171.83209  23305535.53206  23305539.49006
  22970750.05106  -8743292.77806  -6812932.77409  22970618.77206  22970622.71506
  22411055.37006  -5715404.11306  -4453551.83709  22410923.67406  22410928.29706
  20871252.80306 -22713824.07206 -17699063.19809  20871121.68806  20871124.71806
 92  8 20 22 14  0.0000000  0  6 17 20 16 26 23 03
  21097100.43706 -20940491.93906 -16317231.47609  21096968.80506  21096971.57206
  22836241.27606   2630505.98006   2049733.72309  22836109.65506  22836115.41106
  23323441.39006   1672115.36806   1302954.50509  23323309.80606  23323313.89306
  22961607.96306  -8791335.00006  -6850368.21109  22961476.71906  22961480.51206
  22394795.27406  -5800850.73906  -4520133.50609  22394663.66906  22394668.26106
  20864731.23206 -22748094.70906 -17725767.56909  20864600.11806  20864603.18606
 92  8 20 22 14 30.0000000  0  6 17 20 16 26 23 03
  21090809.80506 -20973549.49406 -16342990.58509  21090678.12606  21090680.93806
  22855026.14806   2729221.03906   2126654.43509  22854894.72106  22854900.43606
  23341250.28806   1765700.33706   1375877.80709  23341118.70206  23341122.43306
  22952532.98006  -8839025.25606  -6887529.39709  22952401.46906  22952405.15006
  22378586.91206  -5886026.39006  -4586504.02609  22378455.25106  22378459.77806
  20858256.46306 -22782119.94906 -17752280.72209  20858125.35506  20858128.41806
 92  8 20 22 15  0.0000000  0  6 17 20 16 26 23 03
  21084555.87406 -21006413.65406 -16368598.99609  21084424.25906  21084427.04006
  22873846.53806   2828123.00606   2203720.78709  22873715.24806  22873720.91306
  23359098.50406   1859492.70606   1448962.72309  23358966.67406  23358970.64406
  22943530.27906  -8886335.30206  -6924394.32109  22943398.75006  22943402.31406
  22362436.78206  -5970895.20806  -4652635.45909  22362305.05906  22362309.68606
  20851834.13806 -22815869.60006 -17778579.13509  20851702.99706  20851706.00706
 92  8 20 22 15 30.0000000  0  6 17 20 16 26 23 03
  21078348.96206 -21039031.65806 -16394015.59709  21078217.28506  21078220.04406
  22892707.62106   2927238.66106   2280953.64809  22892576.42906  22892582.24306
  23376988.70006   1953507.66406   1522221.07609  23376857.13006  23376861.04706
  22934606.62206  -8933227.56206  -6960933.68809  22934475.44006  22934478.98406
  22346352.98406  -6055415.21606  -4718495.09509  22346221.37106  22346225.88306
  20845470.21806 -22849311.91206 -17804638.06409  20845339.13806  20845342.14106
 92  8 20 22 16  0.0000000  0  6 17 20 16 26 23 03
  21072195.53006 -21071367.54506 -16419212.36609  21072063.92406  21072066.71506
  22911610.56106   3026573.08606   2358356.97709  22911479.16206  22911485.05406
  23394923.54306   2047754.38006   1595660.03709  23394791.82106  23394795.59406
  22925764.57406  -8979694.60206  -6997141.71909  22925632.97106  22925636.43606
  22330333.55606  -6139597.74206  -4784091.76509  22330201.90206  22330206.42706
  20839166.84606 -22882436.31306 -17830449.27409  20839035.78006  20839038.75606
 92  8 20 22 16 30.0000000  0  6 17 20 16 26 23 03
  21066088.64406 -21103458.94806 -16444218.62609  21065957.10106  21065959.91906
  22930545.85006   3126077.65406   2435892.88609  22930414.32006  22930420.29506
  23412894.84406   2142196.18006   1669251.00609  23412763.30906  23412767.24806
  22916994.56106  -9025778.68306  -7033051.33609  22916863.28106  22916866.74306
  22314368.60506  -6223494.50706  -4849465.76409  22314236.85406  22314241.27906
  20832915.70406 -22915286.10606 -17856046.50509  20832784.58706  20832787.56906
 92  8 20 22 17  0.0000000  0  6 17 20 16 26 23 03
  21060021.28406 -21135342.98506 -16469063.30209  21059889.74806  21059892.53006
  22949505.82006   3225713.54006   2513531.11709  22949374.46306  22949380.43106
  23430895.93906   2236790.66706   1742960.95509  23430764.23106  23430768.10506
  22908295.02006  -9071494.93106  -7068674.33009  22908163.84906  22908167.33606
  22298450.34806  -6307144.65306  -4914647.59409  22298318.67906  22298323.07706
  20826710.39306 -22947895.17406 -17881456.15909  20826579.29606  20826582.29506
 92  8 20 22 17 30.0000000  0  6 17 20 16 26 23 03
  21053997.05606 -21167000.52306 -16493731.47909  21053865.51906  21053868.25506
  22968492.36106   3325487.76206   2591277.14009  22968360.97506  22968367.03906
  23448926.84606   2331544.06006   1816794.72809  23448795.14006  23448799.25906
  22899668.57606  -9116828.46006  -7103999.09409  22899537.17906  22899540.66706
  22282582.66206  -6390528.21206  -4979621.69409  22282451.11406  22282455.49206
  20820553.28706 -22980251.10906 -17906668.56509  20820422.16606  20820425.18606
 92  8 20 22 18  0.0000000  0  6 17 20 16 26 23 03
  21048016.39106 -21198428.94906 -16518221.12609  21047884.82306  21047887.57006
  22987507.81006   3425414.98906   2669142.38509  22987376.53606  22987382.67406
  23466991.32006   2426472.97906   1890765.26609  23466859.58506  23466863.65006
  22891116.41906  -9161770.02806  -7139018.43409  22890984.96606  22890988.38706
  22266769.47406  -6473626.74706  -5044373.69709  22266637.99906  22266642.30406
  20814448.11306 -23012333.94206 -17931668.16609  20814317.02306  20814320.01006
 92  8 20 22 18 30.0000000  0  6 17 20 16 26 23 03
  21042081.65206 -21229616.52806 -16542523.09609  21041950.05706  21041952.71606
  23006558.16006   3525524.73906   2747149.85509  23006426.89106  23006433.01106
  23485094.48306   2521604.67806   1964893.83209  23484962.68406  23484966.57006
  22882645.43206  -9206284.43106  -7173704.92209  22882514.16106  22882517.52906
  22251021.22906  -6556384.26606  -5108859.97109  22250889.66806  22250893.99706
  20808401.52606 -23044109.22706 -17956428.12009  20808270.37806  20808273.39206
 92  8 20 22 19  0.0000000  0  6 17 20 16 26 23 03
  21036196.54006 -21260542.63306 -16566621.32109  21036064.97706  21036067.66306
  23025647.34606   3625837.70006   2825315.67009  23025515.86906  23025522.02306
  23503238.26006   2616951.40306   2039189.93709  23503106.44806  23503110.48706
  22874259.77406  -9250350.76906  -7208042.26209  22874128.52206  22874131.98606
  22235342.85206  -6638773.42406  -5173059.21109  22235211.37906  22235215.74306
  20802418.27906 -23075550.72506 -17980927.97909  20802287.26806  20802290.26406
 92  8 20 22 19 30.0000000  0  6 17 20 16 26 23 03
  21030366.49406 -21291179.41806 -16590494.09409  21030234.90806  21030237.64906
  23044781.17506   3726386.66706   2903665.38409  23044649.77706  23044655.99506
  23521429.08406   2712542.44606   2113676.42409  23521296.96706  23521300.89106
  22865963.66206  -9293946.86306  -7242013.16509  22865832.34206  22865835.83506
  22219739.33106  -6720770.10406  -5236952.61809  22219607.76406  22219612.21306
  20796505.94706 -23106620.47606 -18005138.16309  20796374.88706  20796377.86906
 92  8 20 22 20  0.0000000  0  6 17 20 16 26 23 03
  21024590.92406 -21321530.15206 -16614143.96809  21024459.31206  21024462.03406
  23063960.73306   3827175.47406   2982201.98909  23063829.34206  23063835.54106
  23539666.88606   2808385.55206   2188359.32909  23539535.15006  23539539.31506
  22857757.21506  -9337072.87406  -7275617.77209  22857625.71406  22857629.21106
  22204210.67806  -6802373.65506  -5300539.69009  22204079.11906  22204083.52606
  20790666.16406 -23137309.48206 -18029051.66209  20790534.94306  20790537.93506
 92  8 20 22 20 30.0000000  0  7 17 20 16 26 23 21 03
  21018868.57906 -21351600.51706 -16637575.37409  21018736.95406  21018739.70106
  23083183.77406   3928191.75206   3060915.84309  23083052.28706  23083058.40606
  23557950.87306   2904466.21506   2263227.33409  23557818.94406  23557822.79506
  22849638.49106  -9379736.09206  -7308861.76409  22849507.07806  22849510.56806
  22188755.62606  -6883591.03606  -5363825.84909  22188623.92606  22188628.30106
  25701409.86316        -0.51216        -0.50519  25701278.16016  25701291.90216
  20784897.27606 -23167624.55406 -18052673.78309  20784766.14506  20784769.16606
 92  8 20 22 21  0.0000000  0  7 17 20 16 26 23 21 03
  21013200.99206 -21381383.48806 -16660782.83709  21013069.42106  21013072.14806
  23102451.06606   4029441.77506   3139811.83809  23102319.51106  23102325.75606
  23576278.19606   3000778.92206   2338276.16209  23576146.53806  23576150.59606
  22841609.58206  -9421927.72306  -7341738.28209  22841478.22806  22841481.72906
  22173374.39806  -6964419.01806  -5426808.58309  22173242.72606  22173247.04906
  25681506.91806   -104585.46906    -81494.84909  25681375.95506  25681389.93406
  20779201.72306 -23197554.50906 -18075995.80509  20779070.59106  20779073.61106
 92  8 20 22 21 30.0000000  4  1
 -2439737.0000 -4645851.0000  3615005.0000                  APPROX POSITION XYZ
 92  8 20 22 21 30.0000000  0  7 17 20 16 26 23 21 03
  21007587.94706 -21410881.08006 -16683767.93109  21007456.28306  21007458.98506
  23121761.51206   4130918.91406   3218884.80909  23121630.16706  23121636.33206
  23594649.79306   3097320.02306   2413502.95509  23594517.80506  23594521.70006
  22833669.78006  -9463652.99706  -7374251.39909  22833538.18406  22833541.57806
  22158068.12606  -7044854.64206  -5489485.58509  22157936.32206  22157940.59206
  25661629.00006   -209043.96906   -162890.62809  25661497.77806  25661511.45806
  20773579.20806 -23227100.61906 -18099018.72809  20773448.15606  20773451.15606
 92  8 20 22 22  0.0000000  0  7 17 20 16 26 23 21 03
  21002030.26106 -21440087.27606 -16706525.96709  21001898.54106  21001901.16506
  23141114.01606   4232616.70006   3298129.70809  23140982.73906  23140988.90206
  23613063.63406   3194086.31006   2488905.22709  23612931.86806  23612935.76506
  22825818.56306  -9504909.08606  -7406398.92509  22825687.39606  22825690.77006
  22142838.33206  -7124887.49906  -5551848.74709  22142706.55206  22142710.79606
  25641770.78706   -313400.27106   -244206.77409  25641638.89506  25641652.83606
  20768029.61706 -23256264.24106 -18121743.61209  20767898.52906  20767901.48806
 92  8 20 22 22 30.0000000  0  7 17 20 16 26 23 21 03
  20996525.66406 -21469013.73006 -16729066.02609  20996393.96306  20996396.61006
  23160505.66506   4334521.03006   3377535.55409  23160374.59406  23160380.69706
  23631517.52906   3291061.97806   2564470.63409  23631385.72906  23631389.79206
  22818057.94806  -9545692.01006  -7438177.76009  22817926.52206  22817929.88506
  22127683.00306  -7204528.64406  -5613906.68009  22127551.24906  22127555.40606
  25621928.27506   -417673.83106   -325458.37209  25621796.19606  25621809.25106
  20762551.11906 -23285054.06506 -18144177.22309  20762420.00706  20762422.96306
 92  8 20 22 23  0.0000000  0  7 17 20 16 26 23 21 03
  20991075.93406 -21497652.20106 -16751381.68509  20990944.29106  20990946.94006
  23179936.08406   4436627.21106   3457098.68609  23179804.82006  23179810.94306
  23650014.18006   3388262.22306   2640211.03809  23649882.07006  23649886.29706
  22810389.21506  -9585991.35806  -7469579.78409  22810257.76406  22810261.23006
  22112603.26006  -7283772.72906  -5675655.21909  22112471.55206  22112475.62306
  25602100.69006   -521862.94806   -406644.32409  25601969.21906  25601982.98406
  20757143.69706 -23313469.74006 -18166319.29009  20757012.64306  20757015.62006
 92  8 20 22 23 30.0000000  0  7 23 20 16 26 21 03 17
  22097593.86606  -7362647.17106  -5737115.72409  22097462.13906  22097466.12606
  23199398.03306   4538900.35406   3536791.91909  23199266.81006  23199273.07106
  23668551.52606   3485676.57906   2716118.27709  23668419.57506  23668423.77206
  22802809.26406  -9625823.08106  -7500617.41709  22802677.94206  22802681.38506
  25582284.29706   -625998.32206   -487788.35809  25582152.57906  25582165.85406
  20751802.10506 -23341540.76906 -18188192.80309  20751670.93806  20751673.88506
  20985675.44206 -21526031.43506 -16773495.34409  20985543.84506  20985546.48406
 92  8 20 22 24  0.0000000  0  7 23 20 16 26 21 03 17
  22082644.18506  -7441207.23906  -5798331.26509  22082512.50906  22082516.57006
  23218882.46306   4641291.12506   3616576.80909  23218751.19706  23218757.48906
  23687122.12906   3583266.42106   2792162.25409  23686990.36006  23686994.53706
  22795311.74306  -9665221.07306  -7531317.08209  22795180.69106  22795184.06106
  25562469.44406   -730122.91606   -568923.94809  25562338.27106  25562351.26306
  20746517.51506 -23369310.92306 -18209831.86809  20746386.43306  20746389.41406
  20980315.54706 -21554197.71806 -16795443.06909  20980183.94706  20980186.57506
 92  8 20 22 24 30.0000000  0  7 23 20 16 26 21 03 17
  22067744.36806  -7519505.76406  -5859343.00709  22067612.78706  22067616.78506
  23238377.98806   4743739.87506   3696406.87309  23238246.70706  23238252.99406
  23705717.44306   3680984.55406   2868306.19709  23705585.72506  23705589.70906
  22787887.78006  -9704236.02006  -7561718.26909  22787756.36506  22787759.76806
  25542649.57506   -834277.71206   -650083.07309  25542517.90806  25542530.60706
  20741279.85506 -23396835.34306 -18231279.45509  20741148.68906  20741151.63106
  20974983.66506 -21582216.75106 -16817276.05809  20974852.08406  20974854.72806
 92  8 20 22 25  0.0000000  0  7 23 20 16 26 21 03 17
  22052893.54806  -7597547.45506  -5920154.62009  22052761.92106  22052765.93406
  23257882.30006   4846236.00506   3776273.85409  23257751.12106  23257757.50206
  23724335.75606   3778824.38206   2944544.96909  23724203.92106  23724207.97306
  22780532.92606  -9742886.13106  -7591835.17009  22780401.46106  22780404.83006
  25522823.22906   -938460.50306   -731264.03209  25522691.96706  25522705.10406
  20736087.78406 -23424119.13406 -18252539.54209  20735956.74006  20735959.69906
  20969679.52206 -21610090.36406 -16838995.73009  20969547.92106  20969550.51506
 92  8 20 22 25 30.0000000  0  7 23 20 16 26 21 03 17
  22038095.62106  -7675311.41306  -5980749.81809  22037963.92506  22037967.92606
  23277402.15606   4948811.89306   3856202.98109  23277270.77206  23277277.20006
  23742979.69306   3876798.44706   3020888.33809  23742847.97006  23742851.87406
  22773251.65106  -9781149.44706  -7621650.67809  22773120.16806  22773123.48706
  25503001.92406  -1042621.95906   -812428.35509  25502870.43306  25502883.41406
  20730948.89506 -23451124.48006 -18273582.66009  20730817.75506  20730820.78006
  20964407.70806 -21637794.42906 -16860583.29009  20964275.99806  20964278.58606
 92  8 20 22 26  0.0000000  0  7 23 20 16 26 21 03 17
  22023352.73206  -7752785.10306  -6041118.83409  22023221.12706  22023225.04206
  23296938.22106   5051473.31806   3936198.76109  23296806.70706  23296813.12606
  23761647.04606   3974895.84806   3097327.82309  23761515.36206  23761519.34106
  22766042.50706  -9819032.19606  -7651169.63909  22765911.28406  22765914.59306
  25483189.32506  -1146735.65406   -893555.48709  25483057.82306  25483070.74406
  20725864.97306 -23477840.72206 -18294400.50009  20725733.82406  20725736.82006
  20959170.78106 -21665313.78906 -16882026.92409  20959039.21406  20959041.80506
 92  8 20 22 26 30.0000000  0  7 23 20 16 26 21 03 17
  22008668.27606  -7829951.69606  -6101248.55409  22008536.73206  22008540.64706
  23316489.63506   5154216.11806   4016257.94309  23316358.18506  23316364.60806
  23780332.70706   4073089.31206   3173842.14709  23780200.92306  23780205.18706
  22758905.20806  -9856538.82506  -7680395.52309  22758774.02806  22758777.29906
  25463386.57006  -1250800.17206   -974644.24309  25463254.88406  25463267.31606
  20720836.33506 -23504266.48606 -18314991.99409  20720705.17406  20720708.13206
  20953968.57806 -21692651.73206 -16903329.19109  20953836.92206  20953839.55406
 92  8 20 22 27  0.0000000  0  7 23 20 16 26 21 03 17
  21994041.85506  -7906814.24406  -6161141.34909  21993910.13106  21993914.11006
  23336056.96706   5257043.68406   4096383.18309  23335925.73706  23335932.17506
  23799033.16906   4171361.25006   3250417.62009  23798901.38106  23798905.66706
  22751841.44106  -9893658.45506  -7709319.84409  22751710.25706  22751713.42606
  25443592.81106  -1354813.91406  -1055693.37909  25443461.52106  25443473.72106
  20715864.47806 -23530393.44206 -18335350.64809  20715733.36806  20715736.32206
  20948804.65906 -21719788.04006 -16924474.33609  20948673.07306  20948675.63906
 92  8 20 22 27 30.0000000  0  7 23 20 16 26 21 03 17
  21979481.87506  -7983327.34306  -6220761.84809  21979350.07206  21979354.05206
  23355648.53106   5359997.42806   4176606.73809  23355517.29006  23355523.73906
  23817753.67606   4269737.27806   3327074.20209  23817621.79006  23817625.97706
  22744864.65706  -9930322.07306  -7737888.83709  22744733.36906  22744736.56706
  25423814.96506  -1458745.56906  -1136678.60709  25423683.18106  25423695.60006
  20710958.48406 -23556174.33406 -18355439.64309  20710827.42106  20710830.32506
  20943685.54906 -21746689.41806 -16945436.41909  20943553.89006  20943556.49606
 92  8 20 22 28  0.0000000  0  7 23 20 16 26 21 03 17
  21964999.72306  -8059430.93106  -6280063.25109  21964867.99806  21964871.92406
  23375273.46206   5463127.36606   4256967.58609  23375142.38506  23375148.88306
  23836504.11806   4368272.71006   3403854.99509  23836372.43406  23836376.80306
  22737989.10006  -9966454.16306  -7766043.65209  22737857.70706  22737860.92706
  25404059.14506  -1562560.75306  -1217573.04409  25403927.60706  25403939.82606
  20706128.84206 -23581554.38906 -18375216.29409  20705997.72906  20706000.67606
  20938621.89706 -21773298.09706 -16966170.41709  20938490.29506  20938492.91206
 92  8 20 22 28 30.0000000  0  7 23 20 16 26 21 03 17
  21950596.45606  -8135120.09906  -6339041.72809  21950464.79906  21950468.65706
  23394933.74806   5566442.01206   4337472.36409  23394802.63306  23394809.12106
  23855289.08206   4466987.69606   3480775.69709  23855157.24506  23855161.63406
  22731217.99406 -10002034.67006  -7793768.66409  22731086.91406  22731090.03706
  25384324.91106  -1666263.47006  -1298379.91009  25384193.21306  25384205.31306
  20701377.99406 -23606519.94706 -18394669.96009  20701246.94506  20701249.87106
  20933616.00806 -21799604.11506 -16986668.57509  20933484.45506  20933486.98806
 92  8 20 22 29  0.0000000  0  7 23 20 16 26 21 03 17
  21936273.57206  -8210386.81806  -6397691.02409  21936141.90206  21936145.73206
  23414631.05706   5669950.70806   4418128.34709  23414499.65306  23414506.36106
  23874115.73406   4565922.49806   3557867.68809  23873983.86506  23873988.51706
  22724555.98806 -10037043.81506  -7821048.45409  22724424.64606  22724427.93006
  25364613.66306  -1769843.36506  -1379091.01309  25364482.40306  25364494.07806
  20696708.91606 -23631056.14906 -18413789.06209  20696577.81306  20696580.77506
  20928669.20206 -21825599.31406 -17006924.53309  20928537.65006  20928540.25306
 92  8 20 22 29 30.0000000  0  7 23 20 16 26 21 03 17
  21922035.34606  -8285209.38906  -6455994.23609  21921903.54906  21921907.42106
  23434365.80206   5773657.93106   4498939.02709  23434234.62906  23434241.24306
  23892989.29506   4665103.66006   3635151.64109  23892857.71206  23892862.01506
  22718002.22006 -10071484.46506  -7847885.25809  22717870.88106  22717874.09906
  25344929.70606  -1873284.44606  -1459693.95309  25344797.62006  25344809.44706
  20692123.36606 -23655153.32006 -18432566.06309  20691992.26506  20691995.24206
  20923782.19106 -21851280.24606 -17026935.60609  20923650.66606  20923653.27106
 92  8 20 22 30  0.0000000  0  7 23 26 20 16 21 03 17
  21907879.21506  -8359599.66406  -6513960.59409  21907747.54506  21907751.32106
  22711546.29806 -10105410.40906  -7874320.99209  22711414.96406  22711418.17806
  23454133.40206   5877536.59406   4579883.29309  23454002.16406  23454008.82906
  23911908.34006   4764522.35606   3712620.70109  23911776.44606  23911780.66406
  25325270.97306  -1976588.41806  -1540190.08909  25325139.15606  25325150.70006
  20687617.12606 -23678833.77606 -18451018.35609  20687486.04306  20687488.98706
  20918952.87906 -21876658.34106 -17046710.70309  20918821.40106  20918823.97606
 92  8 20 22 30 30.0000000  0  6 23 26 20 16 03 17
  21893796.72806  -8433603.13806  -6571625.55009  21893665.03306  21893668.83406
  22705174.23106 -10138895.86506  -7900413.48709  22705042.82706  22705045.97406
  23473920.55906   5981518.96106   4660908.36509  23473789.41006  23473796.19206
  23930857.75906   4864105.17106   3790217.64809  23930726.28306  23930730.68906
  20683178.39306 -23702159.70806 -18469194.39809  20683047.27806  20683050.21206
  20914168.35006 -21901801.37306 -17066302.63409  20914036.80806  20914039.36806
 92  8 20 22 31  0.0000000  0  6 23 26 20 16 03 17
  21879778.49806  -8507267.87206  -6629026.55509  21879647.02306  21879650.86806
  22698877.76506 -10171984.16406  -7926196.51709  22698746.27206  22698749.39806
  23493718.16906   6085555.62106   4741975.74009  23493587.03406  23493593.91206
  23949827.98806   4963791.87606   3867895.54009  23949696.26806  23949700.56706
  20678798.56106 -23725175.64206 -18487128.88809  20678667.49906  20678670.43006
  20909418.49406 -21926761.94306 -17085752.39609  20909286.96406  20909289.47506
 92  8 20 22 31 30.0000000  0  6 23 26 20 16 03 17
  21865818.60506  -8580627.94306  -6686190.15909  21865686.95806  21865690.78206
  22692649.37506 -10204714.87106  -7951700.90309  22692517.87006  22692520.91806
  23513520.91206   6189618.99406   4823063.92509  23513389.73506  23513396.59706
  23968808.48006   5063535.56406   3945617.84509  23968676.98506  23968681.11906
  20674473.61606 -23747903.87806 -18504839.20309  20674342.43606  20674345.36706
  20904698.69006 -21951564.92106 -17105079.35909  20904567.07706  20904569.61806
 92  8 20 22 32  0.0000000  0  6 23 26 20 16 03 17
  21851912.39406  -8653705.43706  -6743133.57009  21851780.74406  21851784.54306
  22686492.25006 -10237069.87906  -7976912.53809  22686360.86806  22686363.86406
  23533327.72106   6293703.19606   4904168.33609  23533196.31206  23533203.36306
  23987797.49506   5163323.62206   4023374.72109  23987665.97906  23987670.18506
  20670203.10506 -23770345.27606 -18522326.00709  20670072.02406  20670074.89506
  20900005.29606 -21976228.76906 -17124297.91409  20899873.74206  20899876.23306
 92  8 20 22 32 30.0000000  0  7 23 26 20 16 21 03 17
  21838059.55906  -8726502.53906  -6799858.49709  21837927.80606  21837931.55606
  22680416.20006 -10268999.02606  -8001792.33809  22680284.77206  22680287.74506
  23553142.04006   6397826.00706   4985302.83109  23553010.34806  23553017.56706
  24006799.83706   5263181.92506   4101186.32909  24006668.49706  24006672.64406
  25227092.20616        -0.42816        -0.01819  25226960.62416  25226972.04516
  20665991.80706 -23792476.22606 -18539570.90609  20665860.58206  20665863.54506
  20895339.68706 -22000746.41506 -17143402.54709  20895208.15606  20895210.68006
 92  8 20 22 33  0.0000000  0  7 23 26 20 16 21 03 17
  21824263.98106  -8798998.75706  -6856348.97109  21824132.27806  21824135.98406
  22674428.61906 -10300464.22506  -8026310.62209  22674297.20606  22674300.20306
  23572970.68006   6502025.05206   5066496.72109  23572838.94906  23572846.06406
  24025824.96506   5363158.61206   4179090.18109  24025693.39706  24025697.65406
  25207477.11706   -103077.32306    -80319.28109  25207345.65806  25207356.75506
  20661847.44606 -23814254.71506 -18556541.15409  20661716.31506  20661719.23306
  20890709.41206 -22025078.75506 -17162362.78309  20890577.84206  20890580.29506
 92  8 20 22 33 30.0000000  0  7 23 26 20 16 21 03 17
  21810533.46706  -8871151.59806  -6912571.87809  21810401.96006  21810405.57306
  22668536.94006 -10331425.24106  -8050436.04109  22668405.59806  22668408.60506
  23592818.48306   6606326.34606   5147770.28109  23592686.92306  23592694.22606
  24044877.96406   5463281.67206   4257108.09809  24044746.33006  24044750.64906
  25187882.13506   -206045.73906   -160553.94709  25187750.98706  25187762.11106
  20657776.17206 -23835649.65306 -18573212.52809  20657644.94406  20657647.90706
  20886121.44306 -22049189.15106 -17181150.08209  20885989.80506  20885992.23706
 92  8 20 22 34  0.0000000  0  7 23 26 20 16 21 03 17
  21796876.47506  -8942919.94906  -6968495.18409  21796744.80506  21796748.50506
  22662751.31206 -10361827.95906  -8074126.42609  22662620.00506  22662623.05706
  23612689.58806   6710749.44906   5229138.75609  23612558.13606  23612565.33406
  24063963.47306   5563577.63106   4335260.74009  24063832.09806  24063836.39306
  25168313.38206   -308879.97406   -240684.11309  25168182.09406  25168193.09306
  20653782.49706 -23856635.85106 -18589565.40009  20653651.43606  20653654.33606
  20881583.41806 -22073035.92006 -17199731.96109  20881451.89706  20881454.35406
 92  8 20 22 34 30.0000000  0  7 23 26 20 16 21 03 17
  21783299.24306  -9014268.95906  -7024091.72909  21783167.45506  21783171.06506
  22657069.52606 -10391685.31706  -8097391.85509  22656938.27506  22656941.28006
  23632585.83106   6815304.66706   5310610.17809  23632454.54506  23632461.74706
  24083084.81206   5664060.46106   4413558.99509  24082953.18106  24082957.63906
  25148772.41206   -411566.58406   -320699.23709  25148641.36806  25148652.04406
  20649869.64806 -23877198.35406 -18605588.11909  20649738.50006  20649741.38506
  20877102.54606 -22096583.07906 -17218080.37909  20876970.96606  20876973.44206
 92  8 20 22 35  0.0000000  0  7 23 26 20 16 21 03 17
  21769808.46806  -9085162.83906  -7079333.62709  21769676.76706  21769680.36806
  22651493.22206 -10420988.28206  -8120225.29609  22651361.97506  22651365.05006
  23652509.92106   6920005.23406   5392194.85509  23652378.56506  23652385.81406
  24102241.27906   5764728.63106   4492001.67409  24102109.85206  24102114.22606
  25129262.52306   -514090.75606   -400587.77609  25129131.33806  25129141.85206
  20646040.85506 -23897318.47306 -18621266.12309  20645909.75706  20645912.64606
  20872683.92706 -22119802.91406 -17236173.74209  20872552.37106  20872554.86206
 92  8 20 22 35 30.0000000  0  7 23 26 20 16 21 03 17
  21756408.73806  -9155579.34406  -7134203.54509  21756276.96006  21756280.49206
  22646026.68806 -10449716.20106  -8142610.65509  22645895.22806  22645898.33506
  23672463.90606   7024861.99106   5473901.23509  23672332.30506  23672339.58006
  24121436.37006   5865597.77706   4570600.95609  24121304.75006  24121309.13106
  25109785.48106   -616442.43106   -480341.91509  25109653.94706  25109664.41706
  20642299.32306 -23916980.24806 -18636586.97509  20642168.27706  20642171.15606
  20868329.85006 -22142683.70006 -17254002.91209  20868198.27006  20868200.76106
 92  8 20 22 36  0.0000000  0  7 23 26 20 16 21 03 17
  21743101.14206  -9225510.93606  -7188695.60709  21742969.33606  21742972.83006
  22640667.27006 -10477879.07306  -8164555.71709  22640536.00306  22640539.06106
  23692449.22106   7129884.61206   5555736.85809  23692317.62906  23692324.94906
  24140671.66606   5966682.52006   4649368.22809  24140540.35506  24140545.17306
  25090344.09506   -718606.50306   -559949.89609  25090212.64106  25090222.84206
  20638648.06306 -23936168.73806 -18651539.03309  20638516.81406  20638519.68006
  20864040.12406 -22165226.58706 -17271568.78109  20863908.48806  20863910.91806
 92  8 20 22 36 30.0000000  0  7 23 26 20 16 21 03 17
  21729882.97306  -9294972.16006  -7242821.15409  21729751.26906  21729754.71406
  22635409.33006 -10505510.04806  -8186086.31309  22635278.00506  22635281.01406
  23712463.15206   7235058.63906   5637690.45609  23712331.74406  23712339.16106
  24159944.91306   6067962.21006   4728287.39609  24159813.45806  24159817.95806
  25070936.04106   -820597.33706   -639422.88009  25070804.16006  25070814.08606
  20635084.68506 -23954893.62006 -18666129.84209  20634953.61306  20634956.45006
  20859808.13206 -22187465.88306 -17288898.08509  20859676.51206  20859678.90706
 92  8 20 22 37  0.0000000  0  7 23 26 20 16 21 03 17
  21716747.30706  -9363999.80606  -7296608.84709  21716615.67206  21716619.14206
  22630249.96106 -10532622.55106  -8207212.91209  22630118.68306  22630121.62206
  23732498.00806   7340342.30606   5719729.48309  23732366.71206  23732374.10606
  24179245.50706   6169385.49906   4807318.48109  24179113.83406  24179118.10306
  25051554.48506   -922446.61506   -718785.56409  25051422.47306  25051432.41006
  20631602.76106 -23973191.51806 -18680387.93309  20631471.63406  20631474.46206
  20855623.79606 -22209454.89206 -17306032.35809  20855492.17606  20855494.56306
 92  8 20 22 37 30.0000000  0  7 23 26 20 16 21 03 17
  21703691.78906  -9432607.34306  -7350069.18209  21703560.03506  21703563.54006
  22625186.04606 -10559233.99406  -8227949.07109  22625054.65406  22625057.54706
  23752550.68306   7445718.82606   5801840.86209  23752419.31106  23752426.74406
  24198571.34706   6270945.32206   4886455.95009  24198439.63106  24198444.36706
  25032197.75206  -1024162.87606   -798044.65309  25032066.27106  25032076.26706
  20628199.81406 -23991074.11106 -18694322.41409  20628068.68906  20628071.54906
  20851483.48206 -22231212.72606 -17322986.49009  20851351.80506  20851354.20506
 92  8 20 22 38  0.0000000  0  7 23 26 20 16 21 03 17
  21690707.98006  -9500837.00706  -7403235.07309  21690576.20106  21690579.70706
  22620211.53906 -10585374.35106  -8248318.15309  22620080.19206  22620083.15606
  23772613.86306   7551150.20106   5883994.98209  23772482.39706  23772489.83206
  24217914.91306   6372596.49806   4965664.58309  24217783.26906  24217787.99006
  25012859.63406  -1125783.18406   -877228.92809  25012728.36506  25012737.99206
  20624869.63506 -24008574.36106 -18707958.96609  20624738.49206  20624741.32406
  20847380.62006 -22252772.69806 -17339786.44109  20847248.97306  20847251.41106
 92  8 20 22 38 30.0000000  0  7 23 26 20 16 21 03 17
  21677794.44706  -9568697.14606  -7456113.02209  21677662.81706  21677666.30706
  22615330.99906 -10611021.77606  -8268303.12609  22615199.73406  22615202.74706
  23792686.63506   7656633.74606   5966189.75309  23792555.31506  23792562.92606
  24237277.64306   6474346.84406   5044950.50909  24237146.03506  24237150.35506
  24993539.50306  -1227309.19706   -956339.73309  24993408.24406  24993417.84306
  20621612.61606 -24025690.13406 -18721295.92409  20621481.43106  20621484.32006
  20843316.95906 -22274127.06606 -17356426.17809  20843185.37506  20843187.74506
 92  8 20 22 39  0.0000000  0  7 23 26 20 16 21 03 17
  21664954.00906  -9636173.73706  -7508692.10409  21664822.39206  21664825.80406
  22610551.18806 -10636139.96506  -8287875.71009  22610419.75906  22610422.87006
  23812772.22206   7762184.06506   6048436.55809  23812641.15706  23812648.62606
  24256663.18806   6576218.22306   5124330.75609  24256531.38606  24256535.90606
  24974242.27406  -1328718.34706  -1035359.51809  24974110.43006  24974120.16606
  20618432.48206 -24042401.53106 -18734317.78309  20618301.35206  20618304.24806
  20839296.05906 -22295257.20106 -17372891.18909  20839164.40006  20839166.82206
 92  8 20 22 39 30.0000000  0  7 23 26 20 16 21 03 17
  21652180.46506  -9703298.72406  -7560997.21009  21652048.85406  21652052.21206
  22605866.06006 -10660759.54306  -8307059.75909  22605734.77306  22605737.84206
  23832865.80306   7867774.95606   6130714.97409  23832734.54306  23832742.06306
  24276068.34706   6678194.04706   5203792.36109  24275936.73706  24275941.60206
  24954961.34206  -1430038.03206  -1114309.53909  24954829.64706  24954839.47706
  20615325.36206 -24058729.57306 -18747040.92909  20615194.23306  20615197.10506
  20835312.18106 -22316192.13206 -17389204.09109  20835180.55606  20835182.97206
 92  8 20 22 40  0.0000000  0  7 23 26 20 16 21 03 17
  21639470.72006  -9770088.98406  -7613041.49109  21639339.02206  21639342.45106
  22601273.45406 -10684893.54406  -8325865.44709  22601142.21406  22601145.24306
  23852963.00906   7973384.65306   6213008.04509  23852831.46306  23852839.15506
  24295486.87306   6780235.62506   5283305.20209  24295354.81106  24295359.44806
  24935694.48806  -1531284.06206  -1193202.21109  24935562.93906  24935572.61406
  20612287.97206 -24074691.05806 -18759478.44209  20612156.86706  20612159.74706
  20831363.15606 -22336944.34506 -17405374.61709  20831231.53506  20831233.95406
 92  8 20 22 40 30.0000000  0  7 23 26 20 16 21 03 17
  21626830.80706  -9836511.95906  -7664799.57209  21626699.14606  21626702.50506
  22596775.54906 -10708531.71306  -8344284.76909  22596644.07206  22596647.08806
  23873065.14606   8079022.21406   6295322.83009  23872933.76306  23872941.40806
  24314918.68106   6882350.39106   5362875.08809  24314786.85206  24314791.23606
  24916444.71406  -1632442.67406  -1272026.72409  24916312.81806  24916322.37306
  20609322.97306 -24090271.90406 -18771619.35009  20609191.92306  20609194.82806
  20827454.06206 -22357486.41606 -17421381.39709  20827322.46006  20827324.81806
 92  8 20 22 41  0.0000000  0  7 23 26 20 16 21 03 17
  21614264.99406  -9902545.65006  -7716254.31709  21614133.37006  21614136.73806
  22592372.74406 -10731667.55506  -8362312.67809  22592241.50006  22592244.40606
  23893173.69406   8184693.14206   6377663.61509  23893042.42106  23893050.20606
  24334363.76906   6984535.40306   5442499.71409  24334231.97306  24334236.15406
  24897214.01406  -1733495.26206  -1350768.64409  24897082.82806  24897092.56706
  20606432.57406 -24105461.85606 -18783455.67009  20606301.35006  20606304.25006
  20823589.92506 -22377792.67106 -17437204.42609  20823458.32706  20823460.72806
 92  8 20 22 41 30.0000000  0  7 23 26 20 16 21 03 17
  21601774.11906  -9968185.35406  -7767402.05809  21601642.46206  21601645.79706
  22588063.22306 -10754312.98006  -8379958.43809  22587932.12406  22587935.01506
  23913288.33706   8290395.96306   6460029.25009  23913157.23906  23913164.87706
  24353820.91606   7086783.75106   5522173.69609  24353689.16006  24353693.62206
  24878005.31906  -1834439.07606  -1429425.79909  24877873.63706  24877883.19106
  20603617.03706 -24120256.86306 -18794984.23609  20603485.96106  20603488.82106
  20819775.67206 -22397836.12206 -17452822.67709  20819644.11306  20819646.52906
 92  8 20 22 42  0.0000000  0  7 23 26 20 16 21 03 17
  21589361.35706 -10033414.87506  -7818230.17809  21589229.54506  21589232.84806
  22583850.34906 -10776451.69806  -8397209.35909  22583719.05506  22583721.98706
  23933411.37106   8396142.34606   6542428.82809  23933280.27906  23933287.98706
  24373292.91106   7189107.89106   5601906.72309  24373160.98306  24373165.52706
  24858820.34006  -1935254.06706  -1507982.61109  24858689.06006  24858698.44906
  20600879.87206 -24134640.75906 -18806192.45909  20600748.75406  20600751.65406
  20816017.65206 -22417584.30506 -17468210.84909  20815886.14706  20815888.54806
 92  8 20 22 42 30.0000000  0  7 23 26 20 16 21 03 17
  21577026.72306 -10098232.88306  -7868737.63809  21576895.00906  21576898.26006
  22579736.91106 -10798067.42206  -8414052.74209  22579605.74406  22579608.70706
  23953545.24506   8501944.28206   6624871.68709  23953413.78506  23953421.57206
  24392785.39206   7291540.21906   5681724.06809  24392653.31406  24392657.74806
  24839663.49706  -2035921.18506  -1586424.15209  24839532.41906  24839541.68006
  20598224.16706 -24148596.69606 -18817067.21309  20598093.05506  20598095.93306
  20812315.93706 -22437036.98606 -17483368.76609  20812184.40606  20812186.81806
 92  8 20 22 43  0.0000000  0  7 23 26 20 16 21 03 17
  21564767.60106 -10162654.64206  -7918936.33709  21564635.92906  21564639.15206
  22575722.48406 -10819162.81206  -8430490.66909  22575591.42206  22575594.36406
  23973689.23306   8607799.07306   6707355.72609  23973557.54306  23973565.30406
  24412297.13606   7394077.89206   5761623.48309  24412165.38506  24412170.18206
  24820535.97606  -2136435.72506  -1664746.85109  24820404.60406  24820413.94306
  20595650.22406 -24162122.65106 -18827606.91609  20595519.14206  20595522.07106
  20808665.96706 -22456218.10106 -17498315.07609  20808534.37506  20808536.76106
 92  8 20 22 43 30.0000000  0  7 23 26 20 16 21 03 17
  21552572.42306 -10226740.50406  -7968873.29309  21552440.74706  21552443.90206
  22571796.19806 -10839796.81506  -8446569.07809  22571664.82206  22571667.80606
  23993830.95006   8713643.56206   6789831.73809  23993699.13806  23993707.01806
  24431816.16006   7496651.43906   5841550.84509  24431684.64506  24431689.28906
  24801427.36706  -2236853.57906  -1742994.21709  24801295.54106  24801304.88606
  20593147.25406 -24175275.90406 -18837856.20609  20593016.16706  20593019.06606
  20805049.48106 -22475223.13706 -17513124.18109  20804917.83206  20804920.22306
 92  8 20 22 44  0.0000000  0  7 23 26 20 16 21 03 17
  21540435.64306 -10290519.66506  -8018571.26209  21540303.90006  21540307.08906
  22567954.69806 -10859983.43306  -8462298.87709  22567823.31006  22567826.30706
  24013965.44206   8819450.37206   6872278.38709  24013833.61806  24013841.62006
  24451338.05306   7599237.14006   5921487.68409  24451206.12206  24451210.71906
  24782334.66406  -2337184.65406  -1821173.97109  24782202.91206  24782212.23906
  20590710.83406 -24188079.43506 -18847832.98309  20590579.76406  20590582.64206
  20801456.55206 -22494103.92106 -17527836.46709  20801324.89106  20801327.32606
 92  8 20 22 44 30.0000000  0  7 23 26 20 16 21 03 17
  21528365.40306 -10353948.98406  -8067996.62609  21528233.70706  21528236.94306
  22564205.76806 -10879683.77306  -8477649.76109  22564074.51906  22564077.49906
  24034098.58206   8925250.51806   6954719.83509  24033966.98406  24033974.99806
  24470868.98006   7701875.12106   6001465.27309  24470737.57206  24470741.99606
  24763265.73706  -2437389.76306  -1899255.54809  24763134.37806  24763143.60906
  20588347.80506 -24200497.25606 -18857509.20809  20588216.67506  20588219.60706
  20797891.28506 -22512839.33406 -17542435.47909  20797759.62006  20797762.03106
 92  8 20 22 45  0.0000000  0  7 23 26 20 16 21 03 17
  21516368.84506 -10416990.58806  -8117119.87409  21516237.13806  21516240.35306
  22560553.97906 -10898874.82006  -8492603.79009  22560422.53506  22560425.51806
  24054233.23906   9031059.53906   7037168.20109  24054101.91006  24054109.96706
  24490413.12106   7804577.22006   6081492.83309  24490281.23506  24490285.74306
  24744222.94006  -2537460.53406  -1977232.45309  24744091.27206  24744100.40906
  20586062.01306 -24212508.97206 -18866868.98509  20585930.90806  20585933.81906
  20794359.14106 -22531400.34506 -17556898.59209  20794227.60306  20794229.97206
 92  8 20 22 45 30.0000000  0  7 23 26 20 16 21 03 17
  21504445.13806 -10479649.65506  -8165945.03909  21504313.44006  21504316.58706
  22556999.28406 -10917554.37906  -8507159.24909  22556868.01806  22556870.90806
  24074367.62006   9136865.71906   7119614.34209  24074236.30506  24074244.47606
  24509967.04006   7907336.96706   6161565.29509  24509835.52706  24509840.35506
  24725202.80406  -2637408.85806  -2055113.96309  24725071.42306  24725080.42606
  20583852.29206 -24224121.42306 -18875917.64609  20583721.17506  20583724.05406
  20790860.97706 -22549783.65106 -17571223.22609  20790729.35606  20790731.71606
 92  8 20 22 46  0.0000000  0  7 23 26 20 16 21 03 17
  21492595.46406 -10541919.54506  -8214466.95209  21492463.86106  21492466.96206
  22553543.95606 -10935712.87706  -8521308.68409  22553412.61806  22553415.50406
  24094503.59006   9242678.91606   7202065.95709  24094372.15806  24094380.28406
  24529538.50806   8010182.46606   6241704.58709  24529406.67906  24529411.52606
  24706204.28906  -2737245.22106  -2132908.22109  24706073.07706  24706082.01806
  20581721.23106 -24235320.01306 -18884643.81709  20581590.13506  20581593.01506
  20787403.84606 -22567950.82106 -17585379.44109  20787272.23206  20787274.58806
 92  8 20 22 46 30.0000000  0  7 23 26 20 16 21 03 17
  21480822.56506 -10603786.35706  -8262674.78009  21480690.87306  21480693.97706
  22550187.54906 -10953351.10106  -8535052.71409  22550056.19906  22550059.06706
  24114640.22606   9348497.57706   7284521.82509  24114508.91906  24114517.13006
  24549124.94106   8113108.59206   6321906.70809  24548992.95006  24548997.53706
  24687222.63706  -2836992.86806  -2210633.34809  24687091.52306  24687100.24306
  20579669.60006 -24246101.57406 -18893045.02809  20579538.46806  20579541.30406
  20783990.63406 -22585887.18506 -17599355.80509  20783859.03506  20783861.41206
 92  8 20 22 47  0.0000000  0  7 23 26 20 16 21 03 17
  21469122.41706 -10665270.94206  -8310584.77109  21468990.72506  21468993.81206
  22546926.42506 -10970487.73006  -8548405.90009  22546795.20506  22546797.97706
  24134774.83006   9454301.89906   7366966.51309  24134642.97806  24134651.23906
  24568718.26606   8216074.59006   6402139.89909  24568586.67806  24568591.33606
  24668255.68506  -2936668.01106  -2288301.99309  24668123.73206  24668132.55606
  20577694.55706 -24256480.64906 -18901132.61309  20577563.40806  20577566.24906
  20780618.73106 -22603606.06806 -17613162.70209  20780487.20106  20780489.63006
 92  8 20 22 47 30.0000000  0  7 23 26 20 16 21 03 17
  21457490.96706 -10726394.68706  -8358213.58809  21457359.22906  21457362.28906
  22543756.89906 -10987143.75406  -8561384.59209  22543625.53506  22543628.31206
  24154902.00206   9560071.99006   7449384.53109  24154770.61606  24154779.03506
  24588315.77406   8319059.67206   6482387.95809  24588184.18106  24588188.88106
  24649301.05406  -3036272.78006  -2365915.81109  24649169.35506  24649177.89706
  20575793.22406 -24266472.21506 -18908918.23909  20575662.08706  20575664.93606
  20777285.03406 -22621124.74006 -17626813.59109  20777153.49906  20777155.90906
 92  8 20 22 48  0.0000000  0  7 23 26 20 16 21 03 17
  21445929.08506 -10787152.27206  -8405557.08809  21445797.36706  21445800.35006
  22540675.75706 -11003335.08206  -8574001.19109  22540544.45306  22540547.32206
  24175020.96506   9665796.97106   7531767.39109  24174889.74306  24174898.06406
  24607917.49306   8422066.01506   6562652.58909  24607785.76906  24607790.52206
  24630359.56606  -3135809.27606  -2443476.41409  24630227.99806  24630236.42306
  20573964.39806 -24276082.62906 -18916406.86209  20573833.27806  20573836.09006
  20773989.10006 -22638445.37206 -17640310.16409  20773857.54706  20773859.96506
 92  8 20 22 48 30.0000000  0  7 23 26 20 16 21 03 17
  21434437.57506 -10847539.64106  -8452612.11009  21434305.94606  21434308.99006
  22537681.59206 -11019069.61706  -8586261.83709  22537550.22306  22537553.09406
  24195130.25206   9771470.97606   7614110.53809  24194998.87406  24195007.32206
  24627519.03606   8525071.12906   6642916.25609  24627387.13806  24627391.84506
  24611435.66906  -3235252.98006  -2520964.71209  24611304.16606  24611312.57606
  20572207.95306 -24285313.10206 -18923599.42809  20572076.74406  20572079.63206
  20770728.05506 -22655581.64406 -17653663.07809  20770596.55006  20770598.89906
 92  8 20 22 49  0.0000000  0  7 23 26 20 16 21 03 17
  21423016.99506 -10907555.43606  -8499377.59209  21422885.27006  21422888.35606
  22534776.30106 -11034336.68806  -8598158.23009  22534644.96306  22534647.85906
  24215232.52706   9877108.50706   7696425.26309  24215101.29906  24215109.83106
  24647122.86006   8628091.62106   6723191.90409  24646991.07006  24646995.93606
  24592535.41306  -3334573.32906  -2598356.89709  24592404.10306  24592412.38006
  20570527.46506 -24294143.99806 -18930480.63809  20570396.29906  20570399.15606
  20767503.41406 -22672527.32206 -17666867.47909  20767371.87606  20767374.23606
 92  8 20 22 49 30.0000000  0  7 23 26 20 16 21 03 17
  21411664.04406 -10967214.92606  -8545865.43809  21411532.44106  21411535.50006
  22531957.06906 -11049151.40406  -8609702.14809  22531825.81006  22531828.62806
  24235325.24306   9982694.99206   7778700.20809  24235193.86706  24235202.53006
  24666729.20806   8731125.18506   6803477.73809  24666597.67906  24666602.61406
  24573654.03106  -3433794.86606  -2675672.08409  24573522.55506  24573530.77906
  20568921.09006 -24302585.12306 -18937058.13409  20568789.99706  20568792.85806
  20764313.66706 -22689289.74406 -17679929.08709  20764182.11806  20764184.43606
 92  8 20 22 50  0.0000000  0  7 23 26 20 16 21 03 17
  21400374.44606 -11026541.54006  -8592093.89909  21400242.86306  21400245.90106
  22529223.77406 -11063515.86606  -8620895.21509  22529092.35906  22529095.16406
  24255405.29906  10088215.09306   7860923.42509  24255273.74406  24255282.51206
  24686333.62806   8834143.82406   6883751.93609  24686201.48306  24686206.36306
  24554787.80106  -3532935.79606  -2752924.45209  24554656.40306  24554664.56506
  20567386.87706 -24310647.34706 -18943340.38409  20567255.81606  20567258.64306
  20761154.57406 -22705891.07706 -17692865.17009  20761022.94006  20761025.30806
 92  8 20 22 50 30.0000000  0  7 23 26 20 16 21 03 17
  21389148.24006 -11085535.79806  -8638063.38409  21389016.56206  21389019.55506
  22526582.01406 -11077397.56506  -8631712.09309  22526450.78806  22526453.58006
  24275475.80806  10193684.50306   7943107.13109  24275344.22206  24275352.85306
  24705933.88106   8937146.92106   6964014.03109  24705802.22006  24705807.25606
  24535941.43606  -3631973.60006  -2830096.46609  24535809.85906  24535818.00106
  20565928.77706 -24318310.12306 -18949311.37509  20565797.65506  20565800.47006
  20758025.71506 -22722332.75606 -17705676.85209  20757894.18306  20757896.53706
 92  8 20 22 51  0.0000000  0  7 23 26 20 16 21 03 17
  21377993.55006 -11144154.22106  -8683740.01609  21377861.88306  21377864.81806
  22524042.95806 -11090739.62706  -8642108.47309  22523911.81706  22523914.51906
  24295542.08406  10299133.62106   8025275.03509  24295410.65506  24295419.54706
  24725542.14106   9040186.42606   7044304.47209  24725409.95706  24725415.15306
  24517118.01306  -3730890.83206  -2907174.52309  24516986.35706  24516994.29406
  20564553.37206 -24325538.29106 -18954943.71709  20564422.22206  20564424.99106
  20754934.81106 -22738575.58006 -17718333.58609  20754803.22706  20754805.62206
 92  8 20 22 51 30.0000000  4  1
 -2439737.0000 -4645851.0000  3615005.0000                  APPROX POSITION XYZ
 92  8 20 22 51 30.0000000  0  7 23 26 20 16 21 03 17
  21366922.02006 -11202335.15906  -8729075.75409  21366790.36806  21366793.27406
  22521618.17706 -11103482.49106  -8652037.94909  22521486.82906  22521489.55906
  24315612.07106  10404599.65106   8107456.10109  24315480.39006  24315489.17106
  24745167.18606   9143315.40606   7124664.63809  24745035.16906  24745040.07406
  24498325.95806  -3829640.41906  -2984121.94409  24498194.79506  24498202.65506
  20563268.61206 -24332289.71806 -18960204.57609  20563137.44106  20563140.23006
  20751890.83406 -22754572.10806 -17730798.40309  20751759.24906  20751761.58906
 92  8 20 22 52  0.0000000  0  7 23 26 20 16 21 03 17
  21355942.45306 -11260032.60506  -8774034.74609  21355810.79606  21355813.69606
  22519315.99706 -11115579.54306  -8661464.19909  22519184.85206  22519187.64906
  24335692.35406  10510121.48106   8189680.66309  24335560.61706  24335569.79506
  24764818.46506   9246585.03806   7205134.42909  24764686.78706  24764691.68006
  24479578.39506  -3928157.18406  -3060887.93609  24479447.25006  24479455.15706
  20562082.80006 -24338520.98906 -18965060.11709  20561951.65206  20561954.44106
  20748901.78606 -22770279.43806 -17743037.87209  20748770.18506  20748772.54506
 92  8 20 22 52 30.0000000  0  7 23 26 20 16 21 03 17
  21345056.99606 -11317235.56106  -8818608.41809  21344925.32706  21344928.26506
  22517131.13606 -11127062.42506  -8670411.86909  22516999.73206  22517002.61606
  24355779.60506  10615681.53006   8271934.99009  24355648.32306  24355657.29106
  24784497.79506   9349998.83006   7285716.53109  24784365.97106  24784370.69406
  24460872.02506  -4026461.81306  -3137488.63909  24460740.26606  24460748.03806
  20560993.44806 -24344245.20206 -18969520.54809  20560862.38806  20560865.15106
  20745969.03406 -22785691.73906 -17755047.44909  20745837.36806  20745839.69806
 92  8 20 22 53  0.0000000  0  7 23 26 20 16 21 03 17
  21334263.51906 -11373955.55106  -8862805.75109  21334131.90206  21334134.87706
  22515055.29906 -11137970.21106  -8678911.40609  22514923.97206  22514926.76606
  24375870.09106  10721258.65706   8354202.61009  24375739.12606  24375748.20006
  24804200.61006   9453536.64406   7366395.30009  24804068.69306  24804073.22806
  24442199.77906  -4124582.68906  -3213946.15809  24442068.16706  24442075.95906
  20559997.60706 -24349478.73606 -18973598.62909  20559866.45806  20559869.22806
  20743092.34706 -22800809.29406 -17766827.35309  20742960.74106  20742963.01306
 92  8 20 22 53 30.0000000  0  7 23 26 20 16 21 03 17
  21323559.06306 -11430207.98406  -8906638.75309  21323427.45106  21323430.37006
  22513087.28406 -11148312.87906  -8686970.58909  22512955.83206  22512958.66206
  24395965.49306  10826858.05906   8436487.60509  24395834.24006  24395843.33306
  24823923.66406   9557182.69706   7447158.40209  24823791.72606  24823796.55006
  24423566.74706  -4222499.45306  -3290244.63209  24423435.01806  24423442.78406
  20559096.92606 -24354212.03106 -18977286.91309  20558965.75906  20558968.57606
  20740272.56906 -22815626.91606 -17778373.54509  20740140.95106  20740143.22506
 92  8 20 22 54  0.0000000  0  7 23 26 20 16 21 03 17
  21312941.46806 -11486003.81606  -8950115.96309  21312809.77806  21312812.67106
  22511225.01906 -11158099.15606  -8694596.21509  22511093.57206  22511096.35906
  24416064.40706  10932477.91206   8518788.51309  24415933.25806  24415942.37306
  24843664.81406   9660922.53806   7527994.56809  24843532.65306  24843537.83306
  24404970.45906  -4320220.68606  -3366390.74709  24404839.15706  24404846.66906
  20558291.98606 -24358441.98506 -18980582.97809  20558160.83706  20558163.63406
  20737510.33606 -22830142.33206 -17789684.25109  20737378.71206  20737380.99506
 92  8 20 22 54 30.0000000  0  7 23 26 20 16 21 03 17
  21302410.65706 -11541343.48406  -8993237.72209  21302278.87506  21302281.72706
  22509469.21806 -11167324.09206  -8701784.43409  22509337.99406  22509340.71106
  24436166.46806  11038114.32206   8601102.33209  24436035.39906  24436044.57706
  24863418.40006   9764730.12706   7608883.52709  24863286.54806  24863291.74306
  24386408.38806  -4417764.03806  -3442398.26109  24386276.94806  24386284.55906
  20557582.87206 -24362167.93906 -18983486.31509  20557451.78906  20557454.59806
  20734803.77006 -22844365.24806 -17800767.03609  20734672.15106  20734674.45506
 92  8 20 22 55  0.0000000  0  7 23 26 20 16 21 03 17
  21291951.73206 -11596305.12106  -9036064.90909  21291819.98906  21291822.77706
  22507813.69606 -11176025.15606  -8708564.44609  22507682.32706  22507685.03306
  24456261.06006  11143712.20406   8683386.10909  24456130.19706  24456139.40606
  24883172.36506   9868537.17606   7689772.08009  24883040.45606  24883045.48106
  24367873.31206  -4515165.44906  -3518295.17609  24367741.94606  24367749.30206
  20556960.21906 -24365440.10806 -18986036.05109  20556829.08406  20556831.93906
  20732138.65606 -22858370.43806 -17811680.16509  20732007.07206  20732009.34806
 92  8 20 22 55 30.0000000  0  7 23 26 20 16 21 03 17
  21281559.62806 -11650915.14906  -9078618.11509  21281428.02906  21281430.77406
  22506255.78906 -11184212.56006  -8714944.20909  22506124.36406  22506127.05106
  24476341.52406  11249233.72006   8765610.38209  24476210.54106  24476219.76906
  24902919.42606   9972308.08706   7770632.50609  24902787.51706  24902792.48006
  24349360.61106  -4612449.10406  -3594100.33309  24349229.35106  24349236.80106
  20556417.45806 -24368292.17206 -18988258.43209  20556286.36206  20556289.19606
  20729508.51606 -22872191.55006 -17822449.85409  20729376.95406  20729379.22106
 92  8 20 22 56  0.0000000  0  7 23 26 20 16 21 03 17
  21271241.71306 -11705136.27806  -9120868.28109  21271110.07106  21271112.83606
  22504799.15306 -11191865.93706  -8720907.84709  22504667.92106  22504670.70906
  24496409.23806  11354689.86706   8847783.71709  24496278.18906  24496287.50906
  24922662.98006  10076058.27906   7851476.74709  24922530.87206  24922535.53006
  24330873.34506  -4709600.25206  -3669802.24909  24330741.81906  24330749.29006
  20555957.64506 -24370708.61606 -18990141.37009  20555826.51006  20555829.36206
  20726915.68506 -22885817.27706 -17833067.29509  20726784.06506  20726786.32106
 92  8 20 22 56 30.0000000  0  7 23 26 20 16 21 03 17
  21261004.25406 -11758934.42206  -9162788.84809  21260872.52506  21260875.26306
  22503449.15706 -11198960.72506  -8726436.22109  22503317.78606  22503320.52606
  24516470.67406  11460108.75306   8929928.02709  24516339.04706  24516348.41106
  24942406.76306  10179815.10206   7932326.16309  24942274.79806  24942279.95006
  24312418.01606  -4806582.73606  -3745372.73409  24312286.36206  24312293.80106
  20555586.91706 -24372656.87706 -18991659.49209  20555455.77006  20555458.60706
  20724364.73106 -22899222.69006 -17843513.06109  20724233.10506  20724235.37306
 92  8 20 22 57  0.0000000  0  7 23 26 20 16 21 03 17
  21250848.17306 -11812304.62406  -9204375.95609  21250716.48306  21250719.23506
  22502206.17806 -11205492.58006  -8731525.95309  22502074.84706  22502077.51506
  24536524.60406  11565491.86406   9012044.47309  24536392.94006  24536402.19906
  24962156.68806  10283601.67606   8013198.78409  24962024.78806  24962029.91206
  24293999.11806  -4903373.35506  -3820793.72509  24293867.67206  24293874.87106
  20555306.46606 -24374130.75806 -18992807.96809  20555175.30506  20555178.11706
  20721856.75206 -22912401.99106 -17853782.63609  20721725.13006  20721727.44106
 92  8 20 22 57 30.0000000  0  7 23 26 20 16 21 03 17
  21240782.77406 -11865198.29906  -9245591.74609  21240651.13106  21240653.90206
  22501074.06006 -11211442.78906  -8736162.46109  22500942.55606  22500945.13106
  24556575.61806  11670858.74106   9094148.22509  24556443.73506  24556453.30306
  24981918.12406  10387448.82706   8094118.54909  24981786.07106  24981791.37906
  24275620.92906  -4999952.03406  -3896049.57709  24275489.04506  24275496.41406
  20555120.83206 -24375106.02306 -18993567.91609  20554989.68806  20554992.57506
  20719399.10906 -22925316.73906 -17863846.06509  20719267.53206  20719269.84606
 92  8 20 22 58  0.0000000  0  7 23 26 20 16 21 03 17
  21230805.47306 -11917628.96106  -9286446.74909  21230673.79306  21230676.58806
  22500046.50006 -11216842.21306  -8740369.78609  22499915.05806  22499917.60806
  24576620.89906  11776196.62606   9176229.41409  24576488.95606  24576498.69006
  25001690.06706  10491354.27706   8175083.78209  25001558.36306  25001564.18206
  24257279.56006  -5096334.94606  -3971152.88309  24257147.86106  24257155.02306
  20555028.46806 -24375591.11806 -18993945.91409  20554897.38906  20554900.24806
  20716986.75906 -22937994.06606 -17873724.48809  20716855.12006  20716857.42006
 92  8 20 22 58 30.0000000  0  7 23 26 20 16 21 03 17
  21220906.08406 -11969650.63106  -9326983.05809  21220774.39506  21220777.18706
  22499117.72706 -11221722.84606  -8744172.86209  22498986.32406  22498988.85906
  24596653.36606  11881467.50606   9258258.37609  24596521.68006  24596531.38506
  25021469.44206  10595292.48106   8256074.56409  25021337.54406  25021342.60006
  24238970.21206  -5192549.35106  -4046124.89209  24238838.51206  24238845.88806
  20555023.05006 -24375619.84506 -18993968.30409  20554891.94706  20554894.77506
  20714613.57406 -22950465.69706 -17883442.62809  20714481.94406  20714484.20706
 92  8 20 22 59  0.0000000  0  7 23 26 20 16 21 03 17
  21211079.92806 -12021287.18006  -9367219.27309  21210948.27806  21210951.03006
  22498284.87506 -11226099.20506  -8747582.99309  22498153.46606  22498156.09506
  24616668.39906  11986646.81206   9340215.99109  24616536.90006  24616546.69206
  25041252.19106  10699248.39706   8337079.12909  25041120.16306  25041124.89506
  24220690.75506  -5288605.31206  -4120973.43509  24220559.51206  24220566.67806
  20555100.55006 -24375212.50706 -18993650.90409  20554969.43906  20554972.27506
  20712275.77106 -22962750.66506 -17893015.31409  20712144.16406  20712146.35206
 92  8 20 22 59 30.0000000  0  7 23 26 20 16 21 03 17
  21201327.93506 -12072533.19506  -9407151.18109  21201196.41406  21201199.10806
  22497546.38206 -11229978.53306  -8750605.83909  22497415.17506  22497417.85506
  24636666.98806  12091739.24706   9422105.91809  24636535.52506  24636545.37306
  25061038.64306  10803224.05506   8418099.08209  25060906.14406  25060910.95006
  24202440.70006  -5384509.64006  -4195703.82509  24202309.40806  24202316.49106
  20555262.91506 -24374359.55906 -18992986.28209  20555131.78206  20555134.58906
  20709975.54406 -22974838.48506 -17902434.37909  20709843.84006  20709846.08706
 92  8 20 23  0  0.0000000  0  7 23 26 20 16 21 03 17
  21191645.74006 -12123414.20006  -9446798.66709  21191514.08006  21191516.79006
  22496904.50706 -11233351.58206  -8753234.18609  22496773.17706  22496775.96206
  24656648.65306  12196742.47406   9503926.33609  24656517.18006  24656527.19606
  25080827.63706  10907221.08706   8499135.68409  25080696.04606  25080701.11806
  24184219.81806  -5480261.13906  -4270315.13309  24184088.35606  24184095.29706
  20555510.22906 -24373059.37006 -18991973.15809  20555379.22206  20555382.07706
  20707711.14606 -22986738.15906 -17911706.83509  20707579.46506  20707581.71006
 92  8 20 23  0 30.0000000  0  7 23 26 20 16 21 03 17
  21182027.39006 -12173958.83006  -9486184.04409  21181895.64906  21181898.32006
  22496357.15006 -11236228.73306  -8755476.11309  22496225.79006  22496228.48706
  24676608.36906  12301631.69106   9585657.90809  24676477.23606  24676487.22206
  25100615.28806  11011206.99006   8580163.60609  25100483.58506  25100489.16806
  24166025.10006  -5575873.50906  -4344818.03409  24165893.71606  24165900.53706
  20555839.07006 -24371332.07806 -18990627.23009  20555707.91906  20555710.73806
  20705480.29806 -22998460.46206 -17920841.07909  20705348.69206  20705350.93106
 92  8 20 23  1  0.0000000  0  7 23 26 20 16 21 03 17
  21172475.66706 -12224153.01006  -9525296.34509  21172343.99006  21172346.68006
  22495903.55706 -11238611.98206  -8757333.18009  22495772.25806  22495774.97206
  24696545.69906  12406400.07406   9667295.31509  24696414.29806  24696424.27606
  25120399.10706  11115170.62306   8661174.20009  25120267.49406  25120272.14306
  24147851.95306  -5671373.23606  -4419233.16709  24147720.60106  24147727.36206
  20556248.44406 -24369180.17906 -18988950.43709  20556117.42506  20556120.23406
  20703282.26706 -23010010.80706 -17929841.33009  20703150.69906  20703152.93706
 92  8 20 23  1 30.0000000  0  7 23 26 21 20 16 03 17
  21162994.86906 -12273974.37706  -9564118.14209  21162863.26306  21162865.98906
  22495549.84506 -11240470.81706  -8758781.61309  22495418.52706  22495421.18506
  24129699.13806  -5766766.83506  -4493565.60409  24129567.64206  24129574.29206
  24716461.94806  12511061.62606   9748849.51009  24716330.80006  24716340.96306
  25140179.75006  11219115.65606   8742170.26409  25140047.73306  25140052.66706
  20556742.36006 -24366585.45106 -18986928.57609  20556611.20506  20556614.01506
  20701120.84406 -23021369.23406 -17938692.03509  20700989.26506  20700991.52406
 92  8 20 23  2  0.0000000  0  7 23 26 21 20 16 03 17
  21153589.37206 -12323400.52506  -9602631.97909  21153457.80406  21153460.48006
  22495304.49506 -11241759.66406  -8759785.90009  22495173.28006  22495175.84506
  24111572.48406  -5862022.92806  -4567790.89809  24111440.89906  24111447.44506
  24736362.58306  12615638.73406   9830337.89009  24736231.56406  24736241.67006
  25159957.46106  11323049.00906   8823157.25209  25159825.85506  25159830.51306
  20557325.44106 -24363521.05206 -18984540.74409  20557194.35706  20557197.15506
  20698999.79606 -23032515.50006 -17947377.42009  20698868.20806  20698870.47106
 92  8 20 23  2 30.0000000  0  7 23 26 21 20 03 16 17
  21144263.35106 -12372409.61806  -9640820.83709  21144131.58006  21144134.26106
  22495169.20606 -11242470.84006  -8760340.05109  22495037.97806  22495040.60506
  24093472.72006  -5957134.75506  -4641903.78309  24093341.58406  24093347.88806
  24756249.02306  12720141.15106   9911768.08009  24756117.76406  24756128.03806
  20558000.67606 -24359973.14306 -18981776.14109  20557869.48706  20557872.32906
  25179733.07306  11426969.96806   8904134.61409  25179601.03406  25179605.79006
  20696920.50006 -23043442.20006 -17955891.71309  20696788.86206  20696791.14506
 92  8 20 23  3  0.0000000  0  7 23 26 21 20 03 16 17
  21135017.83806 -12420994.80906  -9678679.37909  21134886.14306  21134888.81506
  22495143.39206 -11242606.85406  -8760446.02409  22495012.07206  22495014.78406
  24075400.42106  -6052105.47206  -4715906.71809  24075269.07506  24075275.30706
  24776120.50006  12824565.18806   9993137.16709  24775989.27906  24775999.51306
  20558767.76606 -24355941.27706 -18978634.42909  20558636.74206  20558639.58406
  25199505.83606  11530878.75906   8985102.48909  25199374.10306  25199378.95506
  20694882.85906 -23054149.92006 -17964235.37009  20694751.25606  20694753.53506
 92  8 20 23  3 30.0000000  0  8 23 26 21 20 03 16 17 28
  21125859.99206 -12469119.44406  -9716179.05109  21125728.35206  21125730.97506
  22495234.05606 -11242129.81906  -8760074.29509  22495102.82106  22495105.52206
  24057368.87006  -6146862.68206  -4789743.28309  24057237.18106  24057243.42606
  24795985.53406  12928954.90406  10074479.53809  24795854.18806  24795864.64106
  20559636.49006 -24351376.81106 -18975077.70209  20559505.31306  20559508.18806
  25219285.28806  11634819.04706   9066094.92609  25219153.28206  25219158.00906
  20692896.02706 -23064590.61506 -17972370.95809  20692764.44706  20692766.65806
  25740692.35816        -0.83016        -0.02319  25740560.41916  25740564.16716
